| time (UTC) | temp F | wind direction | speed MPH | gust MPH | rain 1hr in | rain 24hr in | rain mn in | humidity % | barometer mb |
| 20260510134006 | 60 | 261 | 0.0 | 1.0 | 0.00 | 0.16 | 0.00 | 90 | 1007.1 |
| 20260510133906 | 60 | 261 | 0.0 | 1.0 | 0.00 | 0.16 | 0.00 | 91 | 1006.9 |
| 20260510133820 | 60 | 252 | 0.0 | 0.0 | 0.00 | 0.16 | 0.00 | 92 | 1007.7 |
| 20260510133814 | 60 | 252 | 0.0 | 0.0 | 0.00 | 0.16 | 0.00 | 92 | 1007.7 |
| 20260510133630 | 60 | 252 | 0.0 | 0.0 | 0.00 | 0.16 | 0.00 | 92 | 1007.7 |
| 20260510133604 | 60 | 252 | 0.0 | 0.0 | 0.00 | 0.16 | 0.00 | 92 | 1007.6 |
| 20260510133517 | 59 | 259 | 0.0 | 0.0 | 0.00 | 0.16 | 0.00 | 92 | 1007.0 |
| 20260510133503 | 59 | 259 | 0.0 | 0.0 | 0.00 | 0.16 | 0.00 | 92 | 1007.1 |
| 20260510133403 | 59 | 260 | 0.0 | 0.0 | 0.00 | 0.16 | 0.00 | 92 | 1009.6 |
| 20260510133302 | 59 | 260 | 0.0 | 0.0 | 0.00 | 0.16 | 0.00 | 92 | 1009.6 |
| 20260510133202 | 59 | 260 | 0.0 | 0.0 | 0.00 | 0.16 | 0.00 | 93 | 1009.6 |
| 20260510133130 | 59 | 260 | 0.0 | 0.0 | 0.00 | 0.16 | 0.00 | 93 | 1009.6 |
| 20260510133102 | 59 | 260 | 0.0 | 0.0 | 0.00 | 0.16 | 0.00 | 93 | 1009.4 |
| 20260510133017 | 59 | 260 | 0.0 | 0.0 | 0.00 | 0.16 | 0.00 | 93 | 1009.3 |
| 20260510133001 | 59 | 260 | 0.0 | 0.0 | 0.00 | 0.16 | 0.00 | 93 | 1009.4 |
| 20260510132901 | 59 | 260 | 0.0 | 0.0 | 0.00 | 0.16 | 0.00 | 93 | 1009.4 |
| 20260510132815 | 59 | 260 | 0.0 | 0.0 | 0.00 | 0.16 | 0.00 | 94 | 1007.4 |
| 20260510132809 | 59 | 260 | 0.0 | 0.0 | 0.00 | 0.16 | 0.00 | 94 | 1009.1 |
| 20260510132629 | 59 | 260 | 0.0 | 0.0 | 0.00 | 0.16 | 0.00 | 94 | 1007.4 |
| 20260510132559 | 59 | 260 | 0.0 | 0.0 | 0.00 | 0.16 | 0.00 | 94 | 1007.4 |
| 20260510132517 | 59 | 260 | 0.0 | 0.0 | 0.00 | 0.16 | 0.00 | 95 | 1009.3 |
| 20260510132459 | 59 | 260 | 0.0 | 0.0 | 0.00 | 0.16 | 0.00 | 95 | 1009.4 |
| 20260510132358 | 58 | 259 | 0.0 | 0.0 | 0.00 | 0.16 | 0.00 | 95 | 1009.4 |
| 20260510132258 | 58 | 259 | 0.0 | 0.0 | 0.00 | 0.16 | 0.00 | 95 | 1009.7 |
| 20260510132157 | 58 | 259 | 0.0 | 0.0 | 0.00 | 0.16 | 0.00 | 95 | 1009.3 |
| 20260510132126 | 58 | 259 | 0.0 | 0.0 | 0.00 | 0.16 | 0.00 | 95 | 1009.3 |
| 20260510132057 | 58 | 259 | 0.0 | 0.0 | 0.00 | 0.16 | 0.00 | 95 | 1009.3 |
| 20260510132017 | 58 | 360 | 0.0 | 0.0 | 0.00 | 0.16 | 0.00 | 95 | 1009.2 |
| 20260510131957 | 58 | 0 | 0.0 | 0.0 | 0.00 | 0.16 | 0.00 | 95 | 1009.3 |
| 20260510131918 | 58 | 0 | 0.0 | 0.0 | 0.00 | 0.16 | 0.00 | 96 | 1010.1 |
| 20260510131914 | 58 | 0 | 0.0 | 0.0 | 0.00 | 0.16 | 0.00 | 96 | 1010.4 |
| 20260510131908 | 58 | 0 | 0.0 | 0.0 | 0.00 | 0.16 | 0.00 | 95 | 1009.9 |
| 20260510131859 | 58 | 0 | 0.0 | 0.0 | 0.00 | 0.16 | 0.00 | 96 | 1009.9 |
| 20260510131746 | 58 | 0 | 0.0 | 0.0 | 0.00 | 0.16 | 0.00 | 96 | 1010.0 |
| 20260510131740 | 58 | 0 | 0.0 | 0.0 | 0.00 | 0.16 | 0.00 | 96 | 1010.0 |
| 20260510131517 | 58 | 360 | 0.0 | 0.0 | 0.00 | 0.16 | 0.00 | 96 | 1010.3 |
| 20260510131127 | 57 | 0 | 0.0 | 2.0 | 0.00 | 0.16 | 0.00 | 96 | 1010.3 |
| 20260510131103 | 57 | 0 | 0.0 | 2.0 | 0.00 | 0.16 | 0.00 | 96 | 1010.0 |
| 20260510131058 | 57 | 0 | 0.0 | 2.0 | 0.00 | 0.16 | 0.00 | 96 | 1010.1 |
| 20260510131017 | 57 | 360 | 0.0 | 2.0 | 0.00 | 0.16 | 0.00 | 96 | 1010.0 |
| 20260510130852 | 57 | 0 | 0.0 | 2.0 | 0.00 | 0.16 | 0.00 | 97 | 1009.4 |
| 20260510130847 | 57 | 0 | 0.0 | 2.0 | 0.00 | 0.16 | 0.00 | 96 | 1009.8 |
| 20260510130748 | 57 | 0 | 0.0 | 2.0 | 0.00 | 0.16 | 0.00 | 96 | 1009.6 |
| 20260510130730 | 57 | 0 | 0.0 | 2.0 | 0.00 | 0.16 | 0.00 | 96 | 1009.4 |
| 20260510130547 | 57 | 0 | 0.0 | 2.0 | 0.00 | 0.16 | 0.00 | 97 | 1009.7 |
| 20260510130517 | 57 | 360 | 0.0 | 2.0 | 0.00 | 0.16 | 0.00 | 97 | 1009.7 |
| 20260510130500 | 57 | 0 | 0.0 | 2.0 | 0.00 | 0.16 | 0.00 | 97 | 1009.9 |
| 20260510130455 | 57 | 0 | 0.0 | 2.0 | 0.00 | 0.16 | 0.00 | 97 | 1009.7 |
| 20260510130245 | 57 | 0 | 0.0 | 2.0 | 0.00 | 0.16 | 0.00 | 97 | 1010.0 |
| 20260510130220 | 57 | 0 | 0.0 | 1.0 | 0.00 | 0.16 | 0.00 | 97 | 1010.2 |
| 20260510130213 | 56 | 0 | 0.0 | 1.0 | 0.00 | 0.16 | 0.00 | 97 | 1010.2 |
| 20260510130203 | 57 | 0 | 0.0 | 1.0 | 0.00 | 0.16 | 0.00 | 97 | 1010.2 |
| 20260510130017 | 57 | 360 | 0.0 | 0.0 | 0.00 | 0.16 | 0.00 | 97 | 1010.2 |
| 20260510125842 | 56 | 0 | 0.0 | 1.0 | 0.00 | 0.16 | 0.00 | 97 | 1010.3 |
| 20260510125742 | 56 | 0 | 0.0 | 1.0 | 0.00 | 0.16 | 0.00 | 97 | 1010.3 |
| 20260510125621 | 56 | 0 | 0.0 | 1.0 | 0.00 | 0.16 | 0.00 | 97 | 1010.3 |
| 20260510125541 | 56 | 0 | 0.0 | 1.0 | 0.00 | 0.16 | 0.00 | 97 | 1010.4 |
| 20260510125517 | 57 | 360 | 0.0 | 0.0 | 0.00 | 0.16 | 0.00 | 97 | 1010.4 |
| 20260510125441 | 57 | 0 | 0.0 | 1.0 | 0.00 | 0.16 | 0.00 | 97 | 1010.4 |
| 20260510125344 | 57 | 0 | 0.0 | 1.0 | 0.00 | 0.16 | 0.00 | 97 | 1010.4 |
| 20260510125339 | 57 | 263 | 0.0 | 0.0 | 0.00 | 0.16 | 0.00 | 97 | 1010.5 |
| 20260510125240 | 57 | 0 | 0.0 | 1.0 | 0.00 | 0.16 | 0.00 | 97 | 1010.5 |
| 20260510125225 | 57 | 263 | 0.0 | 0.0 | 0.00 | 0.16 | 0.00 | 97 | 1010.5 |
| 20260510125039 | 57 | 263 | 0.0 | 0.0 | 0.00 | 0.16 | 0.00 | 97 | 1010.4 |
| 20260510125017 | 57 | 263 | 0.0 | 0.0 | 0.00 | 0.16 | 0.00 | 97 | 1010.4 |
| 20260510124936 | 56 | 263 | 0.0 | 0.0 | 0.00 | 0.16 | 0.00 | 97 | 1010.4 |
| 20260510124836 | 56 | 263 | 0.0 | 0.0 | 0.00 | 0.16 | 0.00 | 97 | 1010.4 |
| 20260510124736 | 56 | 263 | 0.0 | 0.0 | 0.00 | 0.16 | 0.00 | 97 | 1010.3 |
| 20260510124656 | 56 | 263 | 0.0 | 0.0 | 0.00 | 0.16 | 0.00 | 97 | 1010.0 |
| 20260510124646 | 56 | 263 | 0.0 | 0.0 | 0.00 | 0.16 | 0.00 | 97 | 1010.1 |
| 20260510124517 | 56 | 263 | 0.0 | 0.0 | 0.00 | 0.16 | 0.00 | 97 | 1009.9 |
| 20260510124435 | 56 | 263 | 0.0 | 0.0 | 0.00 | 0.16 | 0.00 | 97 | 1009.9 |
| 20260510124335 | 56 | 0 | 0.0 | 0.0 | 0.00 | 0.16 | 0.00 | 97 | 1009.8 |
| 20260510124234 | 56 | 0 | 0.0 | 0.0 | 0.00 | 0.16 | 0.00 | 97 | 1009.3 |
| 20260510124120 | 56 | 0 | 0.0 | 0.0 | 0.00 | 0.16 | 0.00 | 97 | 1009.2 |
| 20260510124033 | 56 | 0 | 0.0 | 0.0 | 0.00 | 0.16 | 0.00 | 97 | 1009.8 |
| 20260510124017 | 56 | 360 | 0.0 | 0.0 | 0.00 | 0.16 | 0.00 | 97 | 1009.7 |
| 20260510123933 | 56 | 0 | 0.0 | 0.0 | 0.00 | 0.16 | 0.00 | 97 | 1009.7 |
| 20260510123846 | 56 | 266 | 0.0 | 0.0 | 0.00 | 0.16 | 0.00 | 97 | 1010.3 |
| 20260510123841 | 56 | 266 | 0.0 | 0.0 | 0.00 | 0.16 | 0.00 | 97 | 1010.2 |
| 20260510123631 | 56 | 272 | 0.0 | 0.0 | 0.00 | 0.16 | 0.00 | 97 | 1010.2 |
| 20260510123618 | 56 | 272 | 0.0 | 0.0 | 0.00 | 0.16 | 0.00 | 97 | 1010.2 |
| 20260510123532 | 56 | 273 | 0.0 | 0.0 | 0.00 | 0.16 | 0.00 | 97 | 1010.2 |
| 20260510123430 | 56 | 273 | 0.0 | 0.0 | 0.00 | 0.16 | 0.00 | 97 | 1010.2 |
| 20260510123330 | 56 | 273 | 0.0 | 0.0 | 0.00 | 0.16 | 0.00 | 97 | 1010.1 |
| 20260510123229 | 56 | 273 | 0.0 | 0.0 | 0.00 | 0.16 | 0.00 | 97 | 1010.1 |
| 20260510123117 | 55 | 273 | 0.0 | 0.0 | 0.00 | 0.16 | 0.00 | 97 | 1010.1 |
| 20260510123043 | 55 | 273 | 0.0 | 0.0 | 0.00 | 0.16 | 0.00 | 97 | 1010.1 |
| 20260510123037 | 55 | 273 | 0.0 | 0.0 | 0.00 | 0.16 | 0.00 | 97 | 1010.1 |
| 20260510122827 | 55 | 273 | 0.0 | 0.0 | 0.00 | 0.16 | 0.00 | 97 | 1009.9 |
| 20260510122727 | 55 | 273 | 0.0 | 0.0 | 0.00 | 0.16 | 0.00 | 97 | 1009.9 |
| 20260510122644 | 55 | 272 | 0.0 | 0.0 | 0.00 | 0.16 | 0.00 | 97 | 1009.7 |
| 20260510122639 | 55 | 272 | 0.0 | 0.0 | 0.00 | 0.16 | 0.00 | 97 | 1009.8 |
| 20260510122635 | 55 | 273 | 0.0 | 0.0 | 0.00 | 0.16 | 0.00 | 97 | 1009.8 |
| 20260510122518 | 55 | 271 | 0.0 | 0.0 | 0.00 | 0.16 | 0.00 | 97 | 1009.7 |
| 20260510122424 | 55 | 0 | 0.0 | 0.0 | 0.00 | 0.16 | 0.00 | 97 | 1009.7 |
| 20260510122324 | 55 | 0 | 0.0 | 0.0 | 0.00 | 0.16 | 0.00 | 97 | 1009.3 |
| 20260510122223 | 54 | 0 | 0.0 | 0.0 | 0.00 | 0.16 | 0.00 | 97 | 1008.8 |
| 20260510122114 | 54 | 0 | 0.0 | 0.0 | 0.00 | 0.16 | 0.00 | 97 | 1009.4 |
| 20260510122047 | 54 | 360 | 0.0 | 0.0 | 0.00 | 0.16 | 0.00 | 97 | 1010.0 |
| 20260510122022 | 54 | 0 | 0.0 | 0.0 | 0.00 | 0.16 | 0.00 | 97 | 1009.8 |
| 20260510121920 | 54 | 0 | 0.0 | 0.0 | 0.00 | 0.16 | 0.00 | 97 | 1010.0 |
| 20260510121820 | 54 | 0 | 0.0 | 0.0 | 0.00 | 0.16 | 0.00 | 97 | 1010.1 |
| 20260510121719 | 54 | 0 | 0.0 | 0.0 | 0.00 | 0.16 | 0.00 | 97 | 1010.1 |
| 20260510121614 | 54 | 0 | 0.0 | 0.0 | 0.00 | 0.16 | 0.00 | 97 | 1010.2 |
| 20260510121518 | 54 | 0 | 0.0 | 0.0 | 0.00 | 0.16 | 0.00 | 97 | 1010.2 |
| 20260510121418 | 54 | 0 | 0.0 | 0.0 | 0.00 | 0.16 | 0.00 | 97 | 1010.1 |
| 20260510121318 | 54 | 0 | 0.0 | 0.0 | 0.00 | 0.16 | 0.00 | 97 | 1010.0 |
| 20260510121217 | 54 | 0 | 0.0 | 0.0 | 0.00 | 0.16 | 0.00 | 97 | 1010.0 |
| 20260510121113 | 54 | 0 | 0.0 | 0.0 | 0.00 | 0.16 | 0.00 | 97 | 1009.7 |
| 20260510121017 | 54 | 360 | 0.0 | 0.0 | 0.00 | 0.16 | 0.00 | 97 | 1009.7 |
| 20260510121015 | 54 | 0 | 0.0 | 0.0 | 0.00 | 0.16 | 0.00 | 97 | 1009.6 |
| 20260510120916 | 54 | 0 | 0.0 | 0.0 | 0.00 | 0.16 | 0.00 | 97 | 1009.7 |
| 20260510120858 | 54 | 0 | 0.0 | 0.0 | 0.00 | 0.16 | 0.00 | 97 | 1009.9 |
| 20260510120853 | 54 | 0 | 0.0 | 0.0 | 0.00 | 0.16 | 0.00 | 97 | 1009.8 |
| 20260510120845 | 54 | 0 | 0.0 | 0.0 | 0.00 | 0.16 | 0.00 | 97 | 1009.7 |
| 20260510120836 | 54 | 0 | 0.0 | 0.0 | 0.00 | 0.16 | 0.00 | 97 | 1010.0 |
| 20260510120517 | 54 | 360 | 0.0 | 0.0 | 0.00 | 0.16 | 0.00 | 97 | 1009.9 |
| 20260510120412 | 54 | 0 | 0.0 | 0.0 | 0.00 | 0.16 | 0.00 | 97 | 1009.9 |
| 20260510120312 | 54 | 0 | 0.0 | 0.0 | 0.00 | 0.16 | 0.00 | 97 | 1010.0 |
| 20260510120211 | 54 | 0 | 0.0 | 0.0 | 0.00 | 0.16 | 0.00 | 97 | 1009.9 |
| 20260510120110 | 54 | 0 | 0.0 | 0.0 | 0.00 | 0.16 | 0.00 | 97 | 1009.9 |
| 20260510120017 | 54 | 360 | 0.0 | 0.0 | 0.00 | 0.16 | 0.00 | 97 | 1009.9 |
| 20260510120010 | 54 | 0 | 0.0 | 0.0 | 0.00 | 0.16 | 0.00 | 97 | 1009.9 |
| 20260510115909 | 54 | 0 | 0.0 | 0.0 | 0.00 | 0.16 | 0.00 | 97 | 1009.9 |
| 20260510115808 | 54 | 0 | 0.0 | 0.0 | 0.00 | 0.16 | 0.00 | 97 | 1009.9 |
| 20260510115708 | 54 | 0 | 0.0 | 0.0 | 0.00 | 0.16 | 0.00 | 97 | 1009.9 |
| 20260510115607 | 54 | 0 | 0.0 | 0.0 | 0.00 | 0.16 | 0.00 | 97 | 1009.9 |
| 20260510115517 | 54 | 360 | 0.0 | 0.0 | 0.00 | 0.16 | 0.00 | 97 | 1009.9 |
| 20260510115507 | 54 | 0 | 0.0 | 0.0 | 0.00 | 0.16 | 0.00 | 97 | 1009.9 |
| 20260510115406 | 54 | 0 | 0.0 | 0.0 | 0.00 | 0.16 | 0.00 | 97 | 1009.9 |
| 20260510115306 | 53 | 0 | 0.0 | 0.0 | 0.00 | 0.16 | 0.00 | 97 | 1009.9 |
| 20260510115205 | 53 | 0 | 0.0 | 0.0 | 0.00 | 0.16 | 0.00 | 97 | 1009.9 |
| 20260510115112 | 53 | 0 | 0.0 | 0.0 | 0.00 | 0.16 | 0.00 | 97 | 1009.9 |
| 20260510115104 | 53 | 0 | 0.0 | 0.0 | 0.00 | 0.16 | 0.00 | 97 | 1009.9 |
| 20260510115032 | 53 | 360 | 0.0 | 0.0 | 0.00 | 0.16 | 0.00 | 97 | 1009.8 |
| 20260510115004 | 53 | 0 | 0.0 | 0.0 | 0.00 | 0.16 | 0.00 | 97 | 1009.8 |
| 20260510114904 | 53 | 0 | 0.0 | 0.0 | 0.00 | 0.16 | 0.00 | 97 | 1009.9 |
| 20260510114803 | 53 | 0 | 0.0 | 0.0 | 0.00 | 0.16 | 0.00 | 97 | 1009.8 |
| 20260510114701 | 53 | 0 | 0.0 | 0.0 | 0.00 | 0.16 | 0.00 | 97 | 1009.8 |
| 20260510114601 | 53 | 0 | 0.0 | 0.0 | 0.00 | 0.16 | 0.00 | 97 | 1009.7 |
| 20260510114517 | 53 | 360 | 0.0 | 0.0 | 0.00 | 0.16 | 0.00 | 97 | 1009.6 |
| 20260510114501 | 53 | 0 | 0.0 | 0.0 | 0.00 | 0.16 | 0.00 | 97 | 1009.6 |
| 20260510114400 | 53 | 0 | 0.0 | 0.0 | 0.00 | 0.16 | 0.00 | 97 | 1009.6 |
| 20260510114300 | 53 | 0 | 0.0 | 0.0 | 0.00 | 0.16 | 0.00 | 97 | 1009.6 |
| 20260510114200 | 53 | 0 | 0.0 | 0.0 | 0.00 | 0.16 | 0.00 | 97 | 1009.6 |
| 20260510114113 | 53 | 0 | 0.0 | 0.0 | 0.00 | 0.16 | 0.00 | 97 | 1009.6 |
| 20260510114059 | 53 | 0 | 0.0 | 0.0 | 0.00 | 0.16 | 0.00 | 97 | 1009.6 |
| 20260510114017 | 53 | 360 | 0.0 | 0.0 | 0.00 | 0.16 | 0.00 | 97 | 1009.6 |
| 20260510113958 | 53 | 0 | 0.0 | 0.0 | 0.00 | 0.16 | 0.00 | 97 | 1009.6 |
| 20260510113858 | 53 | 0 | 0.0 | 0.0 | 0.00 | 0.16 | 0.00 | 97 | 1009.4 |
| 20260510113757 | 52 | 0 | 0.0 | 0.0 | 0.00 | 0.16 | 0.00 | 97 | 1009.4 |
| 20260510113657 | 52 | 0 | 0.0 | 0.0 | 0.00 | 0.16 | 0.00 | 97 | 1009.5 |
| 20260510113625 | 52 | 0 | 0.0 | 0.0 | 0.00 | 0.16 | 0.00 | 97 | 1009.6 |
| 20260510113618 | 52 | 0 | 0.0 | 0.0 | 0.00 | 0.16 | 0.00 | 97 | 1009.6 |
| 20260510113518 | 52 | 360 | 0.0 | 0.0 | 0.00 | 0.16 | 0.00 | 97 | 1009.6 |
| 20260510113505 | 52 | 0 | 0.0 | 0.0 | 0.00 | 0.16 | 0.00 | 97 | 1009.6 |
| 20260510113342 | 52 | 0 | 0.0 | 0.0 | 0.00 | 0.16 | 0.00 | 97 | 1009.6 |
| 20260510113337 | 52 | 0 | 0.0 | 0.0 | 0.00 | 0.16 | 0.00 | 97 | 1009.5 |
| 20260510113329 | 52 | 0 | 0.0 | 0.0 | 0.00 | 0.16 | 0.00 | 97 | 1009.6 |
| 20260510113054 | 52 | 0 | 0.0 | 0.0 | 0.00 | 0.16 | 0.00 | 97 | 1009.6 |
| 20260510113017 | 52 | 360 | 0.0 | 0.0 | 0.00 | 0.16 | 0.00 | 97 | 1009.7 |
| 20260510112954 | 52 | 0 | 0.0 | 0.0 | 0.00 | 0.16 | 0.00 | 97 | 1009.6 |
| 20260510112853 | 52 | 0 | 0.0 | 0.0 | 0.00 | 0.16 | 0.00 | 97 | 1009.7 |
| 20260510112753 | 52 | 0 | 0.0 | 0.0 | 0.00 | 0.16 | 0.00 | 97 | 1009.7 |
| 20260510112653 | 52 | 0 | 0.0 | 0.0 | 0.00 | 0.16 | 0.00 | 97 | 1009.7 |
| 20260510112612 | 52 | 0 | 0.0 | 0.0 | 0.00 | 0.16 | 0.00 | 97 | 1009.7 |
| 20260510112551 | 52 | 0 | 0.0 | 0.0 | 0.00 | 0.16 | 0.00 | 97 | 1009.7 |
| 20260510112532 | 52 | 360 | 0.0 | 0.0 | 0.00 | 0.16 | 0.00 | 97 | 1009.7 |
| 20260510112451 | 52 | 0 | 0.0 | 0.0 | 0.00 | 0.16 | 0.00 | 97 | 1009.6 |
| 20260510112350 | 52 | 0 | 0.0 | 0.0 | 0.00 | 0.16 | 0.00 | 97 | 1009.6 |
| 20260510112250 | 52 | 0 | 0.0 | 0.0 | 0.00 | 0.16 | 0.00 | 97 | 1009.6 |
| 20260510112149 | 52 | 0 | 0.0 | 0.0 | 0.00 | 0.16 | 0.00 | 97 | 1009.7 |
| 20260510112115 | 52 | 0 | 0.0 | 0.0 | 0.00 | 0.16 | 0.00 | 97 | 1009.8 |
| 20260510112109 | 52 | 0 | 0.0 | 0.0 | 0.00 | 0.16 | 0.00 | 97 | 1009.8 |
| 20260510112017 | 52 | 360 | 0.0 | 0.0 | 0.00 | 0.16 | 0.00 | 97 | 1009.9 |
| 20260510111955 | 52 | 0 | 0.0 | 0.0 | 0.00 | 0.16 | 0.00 | 97 | 1009.8 |
| 20260510111841 | 51 | 0 | 0.0 | 0.0 | 0.00 | 0.16 | 0.00 | 97 | 1009.7 |
| 20260510111837 | 51 | 0 | 0.0 | 0.0 | 0.00 | 0.16 | 0.00 | 97 | 1009.8 |
| 20260510111828 | 51 | 0 | 0.0 | 0.0 | 0.00 | 0.16 | 0.00 | 97 | 1009.7 |
| 20260510111543 | 51 | 0 | 0.0 | 0.0 | 0.00 | 0.16 | 0.00 | 97 | 1009.8 |
| 20260510111517 | 52 | 360 | 0.0 | 0.0 | 0.00 | 0.16 | 0.00 | 97 | 1009.8 |
| 20260510111457 | 51 | 0 | 0.0 | 0.0 | 0.00 | 0.16 | 0.00 | 97 | 1009.8 |
| 20260510111452 | 51 | 0 | 0.0 | 0.0 | 0.00 | 0.16 | 0.00 | 97 | 1009.7 |
| 20260510111242 | 51 | 0 | 0.0 | 0.0 | 0.00 | 0.16 | 0.00 | 97 | 1009.7 |
| 20260510111142 | 51 | 0 | 0.0 | 0.0 | 0.00 | 0.16 | 0.00 | 97 | 1009.7 |
| 20260510111110 | 51 | 0 | 0.0 | 0.0 | 0.00 | 0.16 | 0.00 | 97 | 1009.7 |
| 20260510111056 | 51 | 0 | 0.0 | 0.0 | 0.00 | 0.16 | 0.00 | 97 | 1009.6 |
| 20260510111051 | 51 | 0 | 0.0 | 0.0 | 0.00 | 0.16 | 0.00 | 97 | 1009.7 |
| 20260510111017 | 51 | 360 | 0.0 | 0.0 | 0.00 | 0.16 | 0.00 | 97 | 1009.7 |
| 20260510110841 | 51 | 0 | 0.0 | 0.0 | 0.00 | 0.16 | 0.00 | 97 | 1009.6 |
| 20260510110741 | 51 | 0 | 0.0 | 0.0 | 0.00 | 0.16 | 0.00 | 97 | 1009.6 |
| 20260510110641 | 51 | 0 | 0.0 | 0.0 | 0.00 | 0.16 | 0.00 | 97 | 1009.6 |
| 20260510110609 | 51 | 0 | 0.0 | 0.0 | 0.00 | 0.16 | 0.00 | 97 | 1009.6 |
| 20260510110602 | 51 | 0 | 0.0 | 0.0 | 0.00 | 0.16 | 0.00 | 97 | 1009.6 |
| 20260510110517 | 51 | 360 | 0.0 | 0.0 | 0.00 | 0.16 | 0.00 | 97 | 1009.7 |
| 20260510110448 | 51 | 0 | 0.0 | 0.0 | 0.00 | 0.16 | 0.00 | 97 | 1009.6 |
| 20260510110255 | 51 | 0 | 0.0 | 0.0 | 0.00 | 0.16 | 0.00 | 97 | 1009.6 |
| 20260510110250 | 51 | 0 | 0.0 | 0.0 | 0.00 | 0.16 | 0.00 | 97 | 1009.6 |
| 20260510110108 | 51 | 0 | 0.0 | 0.0 | 0.00 | 0.16 | 0.00 | 97 | 1009.6 |
| 20260510110040 | 51 | 0 | 0.0 | 0.0 | 0.00 | 0.16 | 0.00 | 97 | 1009.6 |
| 20260510110017 | 51 | 360 | 0.0 | 0.0 | 0.00 | 0.16 | 0.00 | 97 | 1009.6 |
| 20260510105939 | 51 | 0 | 0.0 | 0.0 | 0.00 | 0.16 | 0.00 | 97 | 1009.5 |
| 20260510105838 | 51 | 0 | 0.0 | 0.0 | 0.00 | 0.16 | 0.00 | 97 | 1009.6 |
| 20260510105823 | 51 | 0 | 0.0 | 0.0 | 0.00 | 0.16 | 0.00 | 97 | 1009.6 |
| 20260510105737 | 51 | 0 | 0.0 | 0.0 | 0.00 | 0.16 | 0.00 | 97 | 1009.6 |
| 20260510105714 | 51 | 0 | 0.0 | 0.0 | 0.00 | 0.16 | 0.00 | 97 | 1009.6 |
| 20260510105537 | 51 | 0 | 0.0 | 0.0 | 0.00 | 0.16 | 0.00 | 97 | 1009.6 |
| 20260510105516 | 51 | 360 | 0.0 | 0.0 | 0.00 | 0.16 | 0.00 | 97 | 1009.7 |
| 20260510105458 | 51 | 0 | 0.0 | 0.0 | 0.00 | 0.16 | 0.00 | 97 | 1009.6 |
| 20260510105345 | 51 | 0 | 0.0 | 0.0 | 0.00 | 0.16 | 0.00 | 97 | 1009.6 |
| 20260510105135 | 51 | 0 | 0.0 | 0.0 | 0.00 | 0.16 | 0.00 | 97 | 1009.6 |
| 20260510105107 | 51 | 0 | 0.0 | 0.0 | 0.00 | 0.16 | 0.00 | 97 | 1009.7 |
| 20260510105035 | 51 | 0 | 0.0 | 0.0 | 0.00 | 0.16 | 0.00 | 97 | 1009.7 |
| 20260510105017 | 51 | 360 | 0.0 | 0.0 | 0.00 | 0.16 | 0.00 | 97 | 1009.8 |
| 20260510104935 | 51 | 0 | 0.0 | 0.0 | 0.00 | 0.16 | 0.00 | 97 | 1009.7 |
| 20260510104834 | 51 | 0 | 0.0 | 0.0 | 0.00 | 0.16 | 0.00 | 97 | 1009.8 |
| 20260510104734 | 51 | 0 | 0.0 | 0.0 | 0.00 | 0.16 | 0.00 | 97 | 1009.7 |
| 20260510104635 | 51 | 0 | 0.0 | 0.0 | 0.00 | 0.16 | 0.00 | 97 | 1009.7 |
| 20260510104605 | 51 | 0 | 0.0 | 0.0 | 0.00 | 0.16 | 0.00 | 97 | 1009.6 |
| 20260510104534 | 51 | 0 | 0.0 | 0.0 | 0.00 | 0.16 | 0.00 | 97 | 1009.6 |
| 20260510104531 | 51 | 360 | 0.0 | 0.0 | 0.00 | 0.16 | 0.00 | 97 | 1009.7 |
| 20260510104434 | 50 | 0 | 0.0 | 0.0 | 0.00 | 0.16 | 0.00 | 97 | 1009.6 |
| 20260510104333 | 50 | 0 | 0.0 | 0.0 | 0.00 | 0.16 | 0.00 | 97 | 1009.6 |
| 20260510104247 | 50 | 0 | 0.0 | 0.0 | 0.00 | 0.16 | 0.00 | 96 | 1009.6 |
| 20260510104241 | 50 | 0 | 0.0 | 0.0 | 0.00 | 0.16 | 0.00 | 96 | 1009.6 |
| 20260510104103 | 50 | 0 | 0.0 | 0.0 | 0.00 | 0.16 | 0.00 | 96 | 1009.6 |
| 20260510104032 | 50 | 0 | 0.0 | 0.0 | 0.00 | 0.16 | 0.00 | 96 | 1009.6 |
| 20260510104017 | 50 | 360 | 0.0 | 0.0 | 0.00 | 0.16 | 0.00 | 96 | 1009.6 |
| 20260510103945 | 50 | 0 | 0.0 | 0.0 | 0.00 | 0.16 | 0.00 | 96 | 1009.5 |
| 20260510103940 | 50 | 0 | 0.0 | 0.0 | 0.00 | 0.16 | 0.00 | 96 | 1009.5 |
| 20260510103730 | 50 | 0 | 0.0 | 0.0 | 0.00 | 0.16 | 0.00 | 96 | 1009.4 |
| 20260510103649 | 50 | 0 | 0.0 | 0.0 | 0.00 | 0.16 | 0.00 | 96 | 1009.4 |
| 20260510103644 | 50 | 0 | 0.0 | 0.0 | 0.00 | 0.16 | 0.00 | 96 | 1009.5 |
| 20260510103636 | 50 | 0 | 0.0 | 0.0 | 0.00 | 0.16 | 0.00 | 96 | 1009.4 |
| 20260510103548 | 50 | 360 | 0.0 | 0.0 | 0.00 | 0.16 | 0.00 | 96 | 1009.6 |
| 20260510103444 | 50 | 0 | 0.0 | 0.0 | 0.00 | 0.16 | 0.00 | 96 | 1009.5 |
| 20260510103439 | 50 | 0 | 0.0 | 0.0 | 0.00 | 0.16 | 0.00 | 96 | 1009.5 |
| 20260510103229 | 50 | 0 | 0.0 | 0.0 | 0.00 | 0.16 | 0.00 | 96 | 1009.5 |
| 20260510103131 | 50 | 0 | 0.0 | 0.0 | 0.00 | 0.16 | 0.00 | 96 | 1009.6 |
| 20260510103104 | 50 | 0 | 0.0 | 0.0 | 0.00 | 0.16 | 0.00 | 96 | 1009.5 |
| 20260510103029 | 50 | 0 | 0.0 | 0.0 | 0.00 | 0.16 | 0.00 | 96 | 1009.5 |
| 20260510103017 | 50 | 360 | 0.0 | 0.0 | 0.00 | 0.16 | 0.00 | 96 | 1009.6 |
| 20260510102930 | 50 | 0 | 0.0 | 0.0 | 0.00 | 0.16 | 0.00 | 96 | 1009.5 |
| 20260510102828 | 50 | 0 | 0.0 | 0.0 | 0.00 | 0.16 | 0.00 | 96 | 1009.4 |
| 20260510102728 | 50 | 0 | 0.0 | 0.0 | 0.00 | 0.16 | 0.00 | 96 | 1009.4 |
| 20260510102641 | 50 | 0 | 0.0 | 0.0 | 0.00 | 0.16 | 0.00 | 96 | 1009.3 |
| 20260510102636 | 50 | 0 | 0.0 | 0.0 | 0.00 | 0.16 | 0.00 | 96 | 1009.3 |
| 20260510102516 | 50 | 360 | 0.0 | 0.0 | 0.00 | 0.16 | 0.00 | 96 | 1009.4 |
| 20260510102436 | 50 | 0 | 0.0 | 0.0 | 0.00 | 0.16 | 0.00 | 96 | 1009.3 |
| 20260510102427 | 50 | 0 | 0.0 | 0.0 | 0.00 | 0.16 | 0.00 | 96 | 1009.3 |
| 20260510102226 | 50 | 0 | 0.0 | 0.0 | 0.00 | 0.16 | 0.00 | 96 | 1009.3 |
| 20260510102205 | 50 | 0 | 0.0 | 0.0 | 0.00 | 0.16 | 0.00 | 96 | 1009.3 |
| 20260510102025 | 50 | 0 | 0.0 | 0.0 | 0.00 | 0.16 | 0.00 | 96 | 1009.3 |
| 20260510102017 | 50 | 360 | 0.0 | 0.0 | 0.00 | 0.16 | 0.00 | 96 | 1009.5 |
| 20260510101922 | 50 | 0 | 0.0 | 0.0 | 0.00 | 0.16 | 0.00 | 96 | 1009.4 |
| 20260510101837 | 50 | 0 | 0.0 | 0.0 | 0.00 | 0.16 | 0.00 | 96 | 1009.3 |
| 20260510101833 | 50 | 0 | 0.0 | 0.0 | 0.00 | 0.16 | 0.00 | 96 | 1009.3 |
| 20260510101623 | 50 | 0 | 0.0 | 0.0 | 0.00 | 0.16 | 0.00 | 96 | 1009.3 |
| 20260510101557 | 50 | 0 | 0.0 | 0.0 | 0.00 | 0.16 | 0.00 | 96 | 1009.3 |
| 20260510101532 | 50 | 360 | 0.0 | 0.0 | 0.00 | 0.16 | 0.00 | 96 | 1009.3 |
| 20260510101523 | 50 | 0 | 0.0 | 0.0 | 0.00 | 0.16 | 0.00 | 96 | 1009.3 |
| 20260510101422 | 50 | 0 | 0.0 | 0.0 | 0.00 | 0.16 | 0.00 | 96 | 1009.2 |
| 20260510101354 | 50 | 0 | 0.0 | 0.0 | 0.00 | 0.16 | 0.00 | 96 | 1009.3 |
| 20260510101321 | 50 | 0 | 0.0 | 0.0 | 0.00 | 0.16 | 0.00 | 96 | 1009.2 |
| 20260510101247 | 50 | 0 | 0.0 | 0.0 | 0.00 | 0.16 | 0.00 | 96 | 1009.3 |
| 20260510101243 | 50 | 0 | 0.0 | 0.0 | 0.00 | 0.16 | 0.00 | 96 | 1009.2 |
| 20260510101234 | 50 | 0 | 0.0 | 0.0 | 0.00 | 0.16 | 0.00 | 96 | 1009.2 |
| 20260510101017 | 50 | 360 | 0.0 | 0.0 | 0.00 | 0.16 | 0.00 | 96 | 1009.4 |
| 20260510100919 | 50 | 0 | 0.0 | 0.0 | 0.00 | 0.16 | 0.00 | 96 | 1009.3 |
| 20260510100819 | 50 | 0 | 0.0 | 0.0 | 0.00 | 0.16 | 0.00 | 96 | 1009.2 |
| 20260510100718 | 51 | 0 | 0.0 | 0.0 | 0.00 | 0.16 | 0.00 | 96 | 1009.2 |
| 20260510100617 | 51 | 0 | 0.0 | 0.0 | 0.00 | 0.16 | 0.00 | 96 | 1009.1 |
| 20260510100554 | 51 | 0 | 0.0 | 0.0 | 0.00 | 0.16 | 0.00 | 96 | 1009.2 |
| 20260510100517 | 51 | 0 | 0.0 | 0.0 | 0.00 | 0.16 | 0.00 | 96 | 1009.2 |
| 20260510100417 | 51 | 0 | 0.0 | 0.0 | 0.00 | 0.16 | 0.00 | 96 | 1009.2 |
| 20260510100327 | 51 | 0 | 0.0 | 0.0 | 0.00 | 0.16 | 0.00 | 96 | 1009.2 |
| 20260510100321 | 51 | 0 | 0.0 | 0.0 | 0.00 | 0.16 | 0.00 | 96 | 1009.2 |
| 20260510100317 | 51 | 0 | 0.0 | 0.0 | 0.00 | 0.16 | 0.00 | 96 | 1009.2 |
| 20260510100308 | 51 | 0 | 0.0 | 0.0 | 0.00 | 0.16 | 0.00 | 96 | 1009.2 |
| 20260510100016 | 51 | 360 | 0.0 | 0.0 | 0.00 | 0.16 | 0.00 | 96 | 1009.4 |
| 20260510095915 | 51 | 0 | 0.0 | 0.0 | 0.00 | 0.16 | 0.00 | 96 | 1009.3 |
| 20260510095811 | 51 | 0 | 0.0 | 0.0 | 0.00 | 0.16 | 0.00 | 96 | 1009.3 |
| 20260510095724 | 51 | 0 | 0.0 | 0.0 | 0.00 | 0.16 | 0.00 | 97 | 1009.3 |
| 20260510095720 | 51 | 0 | 0.0 | 0.0 | 0.00 | 0.16 | 0.00 | 96 | 1009.3 |
| 20260510095552 | 51 | 0 | 0.0 | 0.0 | 0.00 | 0.16 | 0.00 | 97 | 1009.4 |
| 20260510095524 | 51 | 0 | 0.0 | 0.0 | 0.00 | 0.16 | 0.00 | 97 | 1009.4 |
| 20260510095520 | 51 | 0 | 0.0 | 0.0 | 0.00 | 0.16 | 0.00 | 96 | 1009.4 |
| 20260510095517 | 51 | 360 | 0.0 | 0.0 | 0.00 | 0.16 | 0.00 | 96 | 1009.5 |
| 20260510095310 | 51 | 0 | 0.0 | 0.0 | 0.00 | 0.16 | 0.00 | 96 | 1009.3 |
| 20260510095210 | 51 | 0 | 0.0 | 0.0 | 0.00 | 0.16 | 0.00 | 96 | 1009.3 |
| 20260510095110 | 51 | 0 | 0.0 | 0.0 | 0.00 | 0.16 | 0.00 | 96 | 1009.3 |
| 20260510095053 | 51 | 0 | 0.0 | 0.0 | 0.00 | 0.16 | 0.00 | 96 | 1009.3 |
| 20260510095017 | 51 | 360 | 0.0 | 0.0 | 0.00 | 0.16 | 0.00 | 96 | 1009.4 |
| 20260510095010 | 51 | 0 | 0.0 | 0.0 | 0.00 | 0.16 | 0.00 | 96 | 1009.3 |
| 20260510094909 | 51 | 0 | 0.0 | 0.0 | 0.00 | 0.16 | 0.00 | 96 | 1009.4 |
| 20260510094808 | 51 | 0 | 0.0 | 0.0 | 0.00 | 0.16 | 0.00 | 96 | 1009.3 |
| 20260510094708 | 51 | 0 | 0.0 | 0.0 | 0.00 | 0.16 | 0.00 | 96 | 1009.3 |
| 20260510094645 | 51 | 0 | 0.0 | 0.0 | 0.00 | 0.16 | 0.00 | 96 | 1009.3 |
| 20260510094641 | 50 | 0 | 0.0 | 0.0 | 0.00 | 0.16 | 0.00 | 96 | 1009.3 |
| 20260510094633 | 51 | 0 | 0.0 | 0.0 | 0.00 | 0.16 | 0.00 | 96 | 1009.3 |
| 20260510094629 | 51 | 0 | 0.0 | 0.0 | 0.00 | 0.16 | 0.00 | 96 | 1009.3 |
| 20260510094624 | 51 | 0 | 0.0 | 0.0 | 0.00 | 0.16 | 0.00 | 96 | 1009.3 |
| 20260510094614 | 51 | 0 | 0.0 | 0.0 | 0.00 | 0.16 | 0.00 | 96 | 1009.2 |
| 20260510094518 | 51 | 360 | 0.0 | 0.0 | 0.00 | 0.16 | 0.00 | 96 | 1009.3 |
| 20260510094137 | 50 | 0 | 0.0 | 0.0 | 0.00 | 0.16 | 0.00 | 96 | 1009.3 |
| 20260510094129 | 50 | 0 | 0.0 | 0.0 | 0.00 | 0.16 | 0.00 | 96 | 1009.4 |
| 20260510094124 | 50 | 0 | 0.0 | 0.0 | 0.00 | 0.16 | 0.00 | 96 | 1009.4 |
| 20260510094032 | 51 | 360 | 0.0 | 0.0 | 0.00 | 0.16 | 0.00 | 96 | 1009.4 |
| 20260510093805 | 50 | 0 | 0.0 | 0.0 | 0.00 | 0.16 | 0.00 | 96 | 1009.2 |
| 20260510093705 | 51 | 0 | 0.0 | 0.0 | 0.00 | 0.16 | 0.00 | 96 | 1009.3 |
| 20260510093604 | 50 | 0 | 0.0 | 0.0 | 0.00 | 0.16 | 0.00 | 96 | 1009.3 |
| 20260510093550 | 50 | 0 | 0.0 | 0.0 | 0.00 | 0.16 | 0.00 | 96 | 1009.3 |
| 20260510093518 | 50 | 360 | 0.0 | 0.0 | 0.00 | 0.16 | 0.00 | 96 | 1009.3 |
| 20260510093504 | 50 | 0 | 0.0 | 0.0 | 0.00 | 0.16 | 0.00 | 96 | 1009.2 |
| 20260510093403 | 50 | 0 | 0.0 | 0.0 | 0.00 | 0.16 | 0.00 | 96 | 1009.2 |
| 20260510093308 | 50 | 0 | 0.0 | 0.0 | 0.00 | 0.16 | 0.00 | 96 | 1009.3 |
| 20260510093303 | 50 | 0 | 0.0 | 0.0 | 0.00 | 0.16 | 0.00 | 96 | 1009.2 |
| 20260510093203 | 50 | 0 | 0.0 | 0.0 | 0.00 | 0.16 | 0.00 | 96 | 1009.2 |
| 20260510093154 | 50 | 0 | 0.0 | 0.0 | 0.00 | 0.16 | 0.00 | 96 | 1009.3 |
| 20260510093016 | 50 | 360 | 0.0 | 0.0 | 0.00 | 0.16 | 0.00 | 96 | 1009.3 |
| 20260510093002 | 50 | 0 | 0.0 | 0.0 | 0.00 | 0.16 | 0.00 | 96 | 1009.2 |
| 20260510092859 | 50 | 0 | 0.0 | 0.0 | 0.00 | 0.16 | 0.00 | 96 | 1009.2 |
| 20260510092812 | 50 | 0 | 0.0 | 0.0 | 0.00 | 0.16 | 0.00 | 96 | 1009.2 |
| 20260510092808 | 50 | 0 | 0.0 | 0.0 | 0.00 | 0.16 | 0.00 | 96 | 1009.2 |
| 20260510092616 | 51 | 0 | 0.0 | 0.0 | 0.00 | 0.16 | 0.00 | 96 | 1009.0 |
| 20260510092607 | 50 | 0 | 0.0 | 0.0 | 0.00 | 0.16 | 0.00 | 96 | 1009.1 |
| 20260510092517 | 50 | 360 | 0.0 | 0.0 | 0.00 | 0.16 | 0.00 | 96 | 1009.1 |
| 20260510092357 | 51 | 0 | 0.0 | 0.0 | 0.00 | 0.16 | 0.00 | 96 | 1008.9 |
| 20260510092257 | 51 | 0 | 0.0 | 0.0 | 0.00 | 0.16 | 0.00 | 96 | 1008.8 |
| 20260510092156 | 51 | 0 | 0.0 | 0.0 | 0.00 | 0.16 | 0.00 | 96 | 1008.8 |
| 20260510092045 | 51 | 0 | 0.0 | 0.0 | 0.00 | 0.16 | 0.00 | 96 | 1008.8 |
| 20260510092017 | 51 | 360 | 0.0 | 0.0 | 0.00 | 0.16 | 0.00 | 96 | 1009.0 |
| 20260510091956 | 51 | 0 | 0.0 | 0.0 | 0.00 | 0.16 | 0.00 | 96 | 1008.9 |
| 20260510091855 | 51 | 0 | 0.0 | 0.0 | 0.00 | 0.16 | 0.00 | 96 | 1008.9 |
| 20260510091755 | 51 | 0 | 0.0 | 0.0 | 0.00 | 0.16 | 0.00 | 97 | 1008.8 |
| 20260510091655 | 51 | 0 | 0.0 | 0.0 | 0.00 | 0.16 | 0.00 | 96 | 1008.9 |
| 20260510091602 | 51 | 360 | 0.0 | 0.0 | 0.00 | 0.16 | 0.00 | 96 | 1008.9 |
| 20260510091543 | 51 | 0 | 0.0 | 0.0 | 0.00 | 0.16 | 0.00 | 96 | 1008.8 |
| 20260510091454 | 51 | 0 | 0.0 | 0.0 | 0.00 | 0.16 | 0.00 | 96 | 1008.8 |
| 20260510091406 | 51 | 0 | 0.0 | 0.0 | 0.00 | 0.16 | 0.00 | 96 | 1008.8 |
| 20260510091402 | 51 | 0 | 0.0 | 0.0 | 0.00 | 0.16 | 0.00 | 96 | 1008.8 |
| 20260510091151 | 51 | 0 | 0.0 | 0.0 | 0.00 | 0.16 | 0.00 | 97 | 1008.8 |
| 20260510091043 | 51 | 0 | 0.0 | 0.0 | 0.00 | 0.16 | 0.00 | 97 | 1008.8 |
| 20260510091018 | 51 | 0 | 0.0 | 0.0 | 0.00 | 0.16 | 0.00 | 96 | 1008.9 |
| 20260510091013 | 51 | 0 | 0.0 | 0.0 | 0.00 | 0.16 | 0.00 | 96 | 1008.9 |
| 20260510091009 | 51 | 0 | 0.0 | 0.0 | 0.00 | 0.16 | 0.00 | 97 | 1008.8 |
| 20260510090649 | 51 | 0 | 0.0 | 0.0 | 0.00 | 0.16 | 0.00 | 96 | 1008.9 |
| 20260510090639 | 51 | 0 | 0.0 | 0.0 | 0.00 | 0.16 | 0.00 | 96 | 1008.9 |
| 20260510090625 | 51 | 0 | 0.0 | 0.0 | 0.00 | 0.16 | 0.00 | 96 | 1008.9 |
| 20260510090517 | 51 | 360 | 0.0 | 0.0 | 0.00 | 0.16 | 0.00 | 96 | 1009.0 |
| 20260510090357 | 51 | 0 | 0.0 | 0.0 | 0.00 | 0.16 | 0.00 | 96 | 1008.9 |
| 20260510090148 | 51 | 0 | 0.0 | 0.0 | 0.00 | 0.16 | 0.00 | 96 | 1009.0 |
| 20260510090040 | 51 | 0 | 0.0 | 0.0 | 0.00 | 0.16 | 0.00 | 96 | 1009.1 |
| 20260510090017 | 51 | 360 | 0.0 | 0.0 | 0.00 | 0.16 | 0.00 | 96 | 1009.2 |
| 20260510085946 | 51 | 0 | 0.0 | 0.0 | 0.00 | 0.16 | 0.00 | 96 | 1009.1 |
| 20260510085846 | 51 | 0 | 0.0 | 0.0 | 0.00 | 0.16 | 0.00 | 96 | 1009.2 |
| 20260510085811 | 51 | 0 | 0.0 | 0.0 | 0.00 | 0.16 | 0.00 | 96 | 1009.1 |
| 20260510085806 | 51 | 0 | 0.0 | 0.0 | 0.00 | 0.16 | 0.00 | 96 | 1009.2 |
| 20260510085802 | 51 | 0 | 0.0 | 0.0 | 0.00 | 0.16 | 0.00 | 96 | 1009.1 |
| 20260510085643 | 51 | 0 | 0.0 | 0.0 | 0.00 | 0.16 | 0.00 | 96 | 1009.2 |
| 20260510085517 | 51 | 360 | 0.0 | 0.0 | 0.00 | 0.16 | 0.00 | 96 | 1009.3 |
| 20260510085443 | 51 | 0 | 0.0 | 0.0 | 0.00 | 0.16 | 0.00 | 96 | 1009.2 |
| 20260510085413 | 50 | 0 | 0.0 | 0.0 | 0.00 | 0.16 | 0.00 | 96 | 1009.3 |
| 20260510085243 | 51 | 0 | 0.0 | 0.0 | 0.00 | 0.16 | 0.00 | 96 | 1009.3 |
| 20260510085152 | 51 | 0 | 0.0 | 0.0 | 0.00 | 0.16 | 0.00 | 96 | 1009.2 |
| 20260510085142 | 50 | 0 | 0.0 | 0.0 | 0.00 | 0.16 | 0.00 | 96 | 1009.2 |
| 20260510085017 | 50 | 360 | 0.0 | 0.0 | 0.00 | 0.16 | 0.00 | 96 | 1009.3 |
| 20260510084942 | 50 | 0 | 0.0 | 0.0 | 0.00 | 0.16 | 0.00 | 96 | 1009.2 |
| 20260510084854 | 50 | 0 | 0.0 | 0.0 | 0.00 | 0.16 | 0.00 | 96 | 1009.2 |
| 20260510084850 | 50 | 0 | 0.0 | 0.0 | 0.00 | 0.16 | 0.00 | 96 | 1009.2 |
| 20260510084640 | 50 | 0 | 0.0 | 0.0 | 0.00 | 0.16 | 0.00 | 96 | 1009.2 |
| 20260510084559 | 50 | 0 | 0.0 | 0.0 | 0.00 | 0.16 | 0.00 | 96 | 1009.2 |
| 20260510084551 | 50 | 0 | 0.0 | 0.0 | 0.00 | 0.16 | 0.00 | 96 | 1009.2 |
| 20260510084517 | 50 | 360 | 0.0 | 0.0 | 0.00 | 0.16 | 0.00 | 96 | 1009.3 |
| 20260510084339 | 50 | 0 | 0.0 | 0.0 | 0.00 | 0.16 | 0.00 | 96 | 1009.3 |
| 20260510084239 | 50 | 0 | 0.0 | 0.0 | 0.00 | 0.16 | 0.00 | 96 | 1009.3 |
| 20260510084138 | 50 | 0 | 0.0 | 0.0 | 0.00 | 0.16 | 0.00 | 97 | 1009.3 |
| 20260510084035 | 50 | 0 | 0.0 | 0.0 | 0.00 | 0.16 | 0.00 | 96 | 1009.4 |
| 20260510084017 | 50 | 360 | 0.0 | 0.0 | 0.00 | 0.16 | 0.00 | 96 | 1009.5 |
| 20260510083940 | 50 | 0 | 0.0 | 0.0 | 0.00 | 0.16 | 0.00 | 96 | 1009.4 |
| 20260510083935 | 50 | 0 | 0.0 | 0.0 | 0.00 | 0.16 | 0.00 | 97 | 1009.3 |
| 20260510083930 | 50 | 0 | 0.0 | 0.0 | 0.00 | 0.16 | 0.00 | 97 | 1009.2 |
| 20260510083922 | 50 | 0 | 0.0 | 0.0 | 0.00 | 0.16 | 0.00 | 97 | 1009.3 |
| 20260510083546 | 50 | 0 | 0.0 | 0.0 | 0.00 | 0.16 | 0.00 | 97 | 1009.2 |
| 20260510083517 | 50 | 360 | 0.0 | 0.0 | 0.00 | 0.16 | 0.00 | 97 | 1009.3 |
| 20260510083335 | 50 | 0 | 0.0 | 0.0 | 0.00 | 0.16 | 0.00 | 97 | 1009.2 |
| 20260510083235 | 50 | 0 | 0.0 | 3.0 | 0.00 | 0.16 | 0.00 | 97 | 1009.3 |
| 20260510083134 | 50 | 0 | 0.0 | 3.0 | 0.00 | 0.16 | 0.00 | 97 | 1009.4 |
| 20260510083052 | 50 | 0 | 0.0 | 3.0 | 0.00 | 0.16 | 0.00 | 97 | 1009.3 |
| 20260510083044 | 50 | 0 | 0.0 | 3.0 | 0.00 | 0.16 | 0.00 | 97 | 1009.4 |
| 20260510083017 | 50 | 360 | 0.0 | 3.0 | 0.00 | 0.16 | 0.00 | 97 | 1009.4 |
| 20260510082832 | 50 | 0 | 0.0 | 3.0 | 0.00 | 0.16 | 0.00 | 97 | 1009.2 |
| 20260510082732 | 50 | 0 | 0.0 | 3.0 | 0.00 | 0.16 | 0.00 | 97 | 1009.2 |
| 20260510082632 | 50 | 0 | 0.0 | 3.0 | 0.00 | 0.16 | 0.00 | 96 | 1009.3 |
| 20260510082531 | 50 | 0 | 0.0 | 3.0 | 0.00 | 0.16 | 0.00 | 96 | 1009.5 |
| 20260510082517 | 50 | 360 | 0.0 | 3.0 | 0.00 | 0.16 | 0.00 | 96 | 1009.6 |
| 20260510082456 | 50 | 0 | 0.0 | 0.0 | 0.00 | 0.16 | 0.00 | 96 | 1009.2 |
| 20260510082450 | 50 | 0 | 0.0 | 3.0 | 0.00 | 0.16 | 0.00 | 96 | 1009.5 |
| 20260510082337 | 50 | 0 | 0.0 | 3.0 | 0.00 | 0.16 | 0.00 | 96 | 1009.5 |
| 20260510082328 | 50 | 0 | 0.0 | 2.0 | 0.00 | 0.16 | 0.00 | 96 | 1009.4 |
| 20260510082210 | 50 | 0 | 0.0 | 0.0 | 0.00 | 0.16 | 0.00 | 96 | 1009.1 |
| 20260510082117 | 50 | 360 | 0.0 | 0.0 | 0.00 | 0.16 | 0.00 | 96 | 1009.2 |
| 20260510081950 | 50 | 0 | 0.0 | 0.0 | 0.00 | 0.16 | 0.00 | 97 | 1009.5 |
| 20260510081946 | 50 | 0 | 0.0 | 0.0 | 0.00 | 0.16 | 0.00 | 96 | 1009.1 |
| 20260510081628 | 50 | 0 | 0.0 | 0.0 | 0.00 | 0.16 | 0.00 | 97 | 1009.5 |
| 20260510081527 | 50 | 0 | 0.0 | 0.0 | 0.00 | 0.16 | 0.00 | 97 | 1009.5 |
| 20260510081517 | 50 | 360 | 0.0 | 0.0 | 0.00 | 0.16 | 0.00 | 97 | 1009.5 |
| 20260510081427 | 50 | 0 | 0.0 | 0.0 | 0.00 | 0.16 | 0.00 | 97 | 1009.4 |
| 20260510081326 | 49 | 0 | 0.0 | 0.0 | 0.00 | 0.16 | 0.00 | 97 | 1009.1 |
| 20260510081226 | 49 | 0 | 0.0 | 0.0 | 0.00 | 0.16 | 0.00 | 97 | 1008.9 |
| 20260510081123 | 49 | 0 | 0.0 | 0.0 | 0.00 | 0.16 | 0.00 | 97 | 1009.0 |
| 20260510081023 | 49 | 0 | 0.0 | 0.0 | 0.00 | 0.16 | 0.00 | 97 | 1009.1 |
| 20260510081017 | 49 | 360 | 0.0 | 0.0 | 0.00 | 0.16 | 0.00 | 96 | 1009.4 |
| 20260510080922 | 49 | 0 | 0.0 | 0.0 | 0.00 | 0.16 | 0.00 | 96 | 1009.3 |
| 20260510080822 | 49 | 0 | 0.0 | 0.0 | 0.00 | 0.16 | 0.00 | 96 | 1009.4 |
| 20260510080722 | 49 | 0 | 0.0 | 0.0 | 0.00 | 0.16 | 0.00 | 96 | 1009.4 |
| 20260510080622 | 49 | 0 | 0.0 | 0.0 | 0.00 | 0.16 | 0.00 | 96 | 1009.1 |
| 20260510080521 | 49 | 0 | 0.0 | 0.0 | 0.00 | 0.16 | 0.00 | 96 | 1008.9 |
| 20260510080517 | 49 | 360 | 0.0 | 0.0 | 0.00 | 0.16 | 0.00 | 96 | 1009.1 |
| 20260510080434 | 49 | 0 | 0.0 | 0.0 | 0.00 | 0.16 | 0.00 | 96 | 1009.1 |
| 20260510080429 | 49 | 0 | 0.0 | 0.0 | 0.00 | 0.16 | 0.00 | 96 | 1009.0 |
| 20260510080220 | 49 | 0 | 0.0 | 0.0 | 0.00 | 0.16 | 0.00 | 96 | 1009.3 |
| 20260510080119 | 49 | 0 | 0.0 | 0.0 | 0.00 | 0.16 | 0.00 | 96 | 1009.3 |
| 20260510080040 | 49 | 0 | 0.0 | 0.0 | 0.00 | 0.16 | 0.00 | 96 | 1009.3 |
| 20260510080032 | 49 | 360 | 0.0 | 0.0 | 0.00 | 0.16 | 0.00 | 96 | 1009.1 |
| 20260510075927 | 49 | 0 | 0.0 | 0.0 | 0.00 | 0.16 | 0.00 | 96 | 1009.0 |
| 20260510075718 | 49 | 0 | 0.0 | 0.0 | 0.00 | 0.16 | 0.00 | 96 | 1008.6 |
| 20260510075617 | 49 | 0 | 0.0 | 0.0 | 0.00 | 0.16 | 0.00 | 96 | 1008.5 |
| 20260510075517 | 49 | 360 | 0.0 | 0.0 | 0.00 | 0.16 | 0.00 | 96 | 1008.5 |
| 20260510075514 | 49 | 0 | 0.0 | 0.0 | 0.00 | 0.16 | 0.00 | 96 | 1008.5 |
| 20260510075414 | 49 | 0 | 0.0 | 0.0 | 0.00 | 0.16 | 0.00 | 96 | 1008.5 |
| 20260510075313 | 49 | 0 | 0.0 | 0.0 | 0.00 | 0.16 | 0.00 | 96 | 1008.5 |
| 20260510075226 | 49 | 0 | 0.0 | 0.0 | 0.00 | 0.16 | 0.00 | 96 | 1008.5 |
| 20260510075222 | 49 | 0 | 0.0 | 0.0 | 0.00 | 0.16 | 0.00 | 96 | 1008.5 |
| 20260510075017 | 49 | 360 | 0.0 | 0.0 | 0.00 | 0.16 | 0.00 | 96 | 1008.5 |
| 20260510075011 | 49 | 0 | 0.0 | 0.0 | 0.00 | 0.16 | 0.00 | 96 | 1008.5 |
| 20260510074936 | 49 | 0 | 0.0 | 0.0 | 0.00 | 0.16 | 0.00 | 96 | 1008.4 |
| 20260510074931 | 49 | 0 | 0.0 | 0.0 | 0.00 | 0.16 | 0.00 | 96 | 1008.4 |
| 20260510074927 | 49 | 0 | 0.0 | 0.0 | 0.00 | 0.16 | 0.00 | 96 | 1008.5 |
| 20260510074608 | 49 | 0 | 0.0 | 0.0 | 0.00 | 0.16 | 0.00 | 96 | 1008.5 |
| 20260510074526 | 49 | 0 | 0.0 | 0.0 | 0.00 | 0.16 | 0.00 | 96 | 1008.5 |
| 20260510074518 | 49 | 360 | 0.0 | 0.0 | 0.00 | 0.16 | 0.00 | 96 | 1008.4 |
| 20260510074508 | 49 | 0 | 0.0 | 0.0 | 0.00 | 0.16 | 0.00 | 96 | 1008.4 |
| 20260510074407 | 49 | 0 | 0.0 | 0.0 | 0.00 | 0.16 | 0.00 | 96 | 1008.4 |
| 20260510074308 | 49 | 0 | 0.0 | 0.0 | 0.00 | 0.16 | 0.00 | 96 | 1008.3 |
| 20260510074208 | 49 | 0 | 0.0 | 0.0 | 0.00 | 0.16 | 0.00 | 96 | 1008.4 |
| 20260510074107 | 49 | 0 | 0.0 | 0.0 | 0.00 | 0.16 | 0.00 | 96 | 1008.4 |
| 20260510074017 | 49 | 360 | 0.0 | 0.0 | 0.00 | 0.16 | 0.00 | 96 | 1008.4 |
| 20260510074007 | 49 | 0 | 0.0 | 0.0 | 0.00 | 0.16 | 0.00 | 96 | 1008.4 |
| 20260510073906 | 49 | 0 | 0.0 | 0.0 | 0.00 | 0.16 | 0.00 | 96 | 1008.5 |
| 20260510073806 | 49 | 0 | 0.0 | 0.0 | 0.00 | 0.16 | 0.00 | 96 | 1008.5 |
| 20260510073706 | 49 | 0 | 0.0 | 0.0 | 0.00 | 0.16 | 0.00 | 96 | 1008.5 |
| 20260510073619 | 49 | 0 | 0.0 | 0.0 | 0.00 | 0.16 | 0.00 | 96 | 1008.5 |
| 20260510073610 | 49 | 0 | 0.0 | 0.0 | 0.00 | 0.16 | 0.00 | 96 | 1008.5 |
| 20260510073548 | 49 | 360 | 0.0 | 0.0 | 0.00 | 0.16 | 0.00 | 96 | 1008.5 |
| 20260510073405 | 49 | 0 | 0.0 | 0.0 | 0.00 | 0.16 | 0.00 | 96 | 1008.5 |
| 20260510073305 | 49 | 0 | 0.0 | 0.0 | 0.00 | 0.16 | 0.00 | 96 | 1008.5 |
| 20260510073231 | 49 | 0 | 0.0 | 0.0 | 0.00 | 0.16 | 0.00 | 96 | 1008.5 |
| 20260510073118 | 49 | 0 | 0.0 | 0.0 | 0.00 | 0.16 | 0.00 | 96 | 1008.5 |
| 20260510073109 | 49 | 0 | 0.0 | 0.0 | 0.00 | 0.16 | 0.00 | 96 | 1008.5 |
| 20260510073017 | 49 | 360 | 0.0 | 0.0 | 0.00 | 0.16 | 0.00 | 96 | 1008.5 |
| 20260510072903 | 49 | 0 | 0.0 | 0.0 | 0.00 | 0.16 | 0.00 | 96 | 1008.5 |
| 20260510072824 | 49 | 0 | 0.0 | 0.0 | 0.00 | 0.16 | 0.00 | 96 | 1008.5 |
| 20260510072711 | 49 | 0 | 0.0 | 0.0 | 0.00 | 0.16 | 0.00 | 96 | 1008.5 |
| 20260510072523 | 48 | 0 | 0.0 | 0.0 | 0.00 | 0.16 | 0.00 | 96 | 1008.5 |
| 20260510072517 | 48 | 360 | 0.0 | 0.0 | 0.00 | 0.16 | 0.00 | 96 | 1008.4 |
| 20260510072501 | 48 | 0 | 0.0 | 0.0 | 0.00 | 0.16 | 0.00 | 96 | 1008.4 |
| 20260510072402 | 48 | 0 | 0.0 | 0.0 | 0.00 | 0.16 | 0.00 | 96 | 1008.5 |
| 20260510072305 | 48 | 0 | 0.0 | 0.0 | 0.00 | 0.16 | 0.00 | 96 | 1008.5 |
| 20260510072201 | 48 | 0 | 0.0 | 0.0 | 0.00 | 0.16 | 0.00 | 96 | 1008.5 |
| 20260510072101 | 48 | 0 | 0.0 | 0.0 | 0.00 | 0.16 | 0.00 | 96 | 1008.5 |
| 20260510072025 | 48 | 0 | 0.0 | 0.0 | 0.00 | 0.16 | 0.00 | 96 | 1008.5 |
| 20260510072017 | 48 | 360 | 0.0 | 0.0 | 0.00 | 0.16 | 0.00 | 96 | 1008.4 |
| 20260510072000 | 48 | 0 | 0.0 | 0.0 | 0.00 | 0.16 | 0.00 | 96 | 1008.4 |
| 20260510071900 | 48 | 0 | 0.0 | 0.0 | 0.00 | 0.16 | 0.00 | 96 | 1008.5 |
| 20260510071759 | 48 | 0 | 0.0 | 0.0 | 0.00 | 0.16 | 0.00 | 96 | 1008.5 |
| 20260510071659 | 48 | 0 | 0.0 | 0.0 | 0.00 | 0.16 | 0.00 | 96 | 1008.5 |
| 20260510071559 | 48 | 0 | 0.0 | 0.0 | 0.00 | 0.16 | 0.00 | 96 | 1008.5 |
| 20260510071532 | 48 | 360 | 0.0 | 0.0 | 0.00 | 0.16 | 0.00 | 96 | 1008.5 |
| 20260510071522 | 48 | 0 | 0.0 | 0.0 | 0.00 | 0.16 | 0.00 | 96 | 1008.5 |
| 20260510071512 | 48 | 0 | 0.0 | 0.0 | 0.00 | 0.16 | 0.00 | 96 | 1008.5 |
| 20260510071508 | 48 | 0 | 0.0 | 0.0 | 0.00 | 0.16 | 0.00 | 96 | 1008.5 |
| 20260510071459 | 48 | 0 | 0.0 | 0.0 | 0.00 | 0.16 | 0.00 | 96 | 1008.5 |
| 20260510071155 | 48 | 0 | 0.0 | 0.0 | 0.00 | 0.16 | 0.00 | 96 | 1008.5 |
| 20260510071127 | 48 | 0 | 0.0 | 0.0 | 0.00 | 0.16 | 0.00 | 96 | 1008.5 |
| 20260510071047 | 48 | 360 | 0.0 | 0.0 | 0.00 | 0.16 | 0.00 | 96 | 1008.5 |
| 20260510071004 | 48 | 0 | 0.0 | 0.0 | 0.00 | 0.16 | 0.00 | 96 | 1008.5 |
| 20260510071000 | 48 | 0 | 0.0 | 0.0 | 0.00 | 0.16 | 0.00 | 96 | 1008.5 |
| 20260510070751 | 48 | 0 | 0.0 | 0.0 | 0.00 | 0.16 | 0.00 | 96 | 1008.5 |
| 20260510070744 | 48 | 0 | 0.0 | 0.0 | 0.00 | 0.16 | 0.00 | 96 | 1008.5 |
| 20260510070650 | 48 | 0 | 0.0 | 0.0 | 0.00 | 0.16 | 0.00 | 96 | 1008.5 |
| 20260510070627 | 48 | 0 | 0.0 | 0.0 | 0.00 | 0.16 | 0.00 | 96 | 1008.5 |
| 20260510070517 | 48 | 360 | 0.0 | 0.0 | 0.00 | 0.16 | 0.00 | 96 | 1008.5 |
| 20260510070449 | 48 | 0 | 0.0 | 0.0 | 0.00 | 0.16 | 0.00 | 96 | 1008.5 |
| 20260510070350 | 48 | 0 | 0.0 | 0.0 | 0.00 | 0.16 | 0.00 | 96 | 1008.6 |
| 20260510070250 | 48 | 0 | 0.0 | 0.0 | 0.00 | 0.16 | 0.00 | 96 | 1008.6 |
| 20260510070149 | 48 | 0 | 0.0 | 0.0 | 0.00 | 0.16 | 0.00 | 96 | 1008.6 |
| 20260510070046 | 47 | 0 | 0.0 | 0.0 | 0.00 | 0.16 | 0.00 | 96 | 1008.6 |
| 20260510070022 | 48 | 0 | 0.0 | 0.0 | 0.00 | 0.16 | 0.00 | 96 | 1008.6 |
| 20260510070017 | 48 | 360 | 0.0 | 0.0 | 0.00 | 0.16 | 0.00 | 96 | 1008.6 |
| 20260510065948 | 47 | 0 | 0.0 | 0.0 | 0.00 | 0.16 | 0.00 | 96 | 1008.6 |
| 20260510065845 | 47 | 0 | 0.0 | 0.0 | 0.00 | 0.16 | 0.00 | 96 | 1008.6 |
| 20260510065745 | 47 | 0 | 0.0 | 0.0 | 0.00 | 0.16 | 0.00 | 96 | 1008.6 |
| 20260510065645 | 47 | 0 | 0.0 | 0.0 | 0.00 | 0.16 | 0.00 | 96 | 1008.6 |
| 20260510065532 | 47 | 360 | 0.0 | 0.0 | 0.00 | 0.16 | 0.00 | 96 | 1008.7 |
| 20260510065519 | 47 | 0 | 0.0 | 0.0 | 0.00 | 0.16 | 0.00 | 96 | 1008.6 |
| 20260510065444 | 47 | 0 | 0.0 | 0.0 | 0.00 | 0.16 | 0.00 | 96 | 1008.7 |
| 20260510065344 | 47 | 0 | 0.0 | 0.0 | 0.00 | 0.16 | 0.00 | 96 | 1008.7 |
| 20260510065243 | 47 | 0 | 0.0 | 0.0 | 0.00 | 0.16 | 0.00 | 96 | 1008.6 |
| 20260510065143 | 47 | 0 | 0.0 | 0.0 | 0.00 | 0.16 | 0.00 | 96 | 1008.6 |
| 20260510065102 | 47 | 0 | 0.0 | 0.0 | 0.00 | 0.16 | 0.00 | 96 | 1008.6 |
| 20260510065052 | 47 | 0 | 0.0 | 0.0 | 0.00 | 0.16 | 0.00 | 96 | 1008.7 |
| 20260510065017 | 47 | 360 | 0.0 | 0.0 | 0.00 | 0.16 | 0.00 | 96 | 1008.6 |
| 20260510064842 | 47 | 0 | 0.0 | 0.0 | 0.00 | 0.16 | 0.00 | 96 | 1008.6 |
| 20260510064810 | 47 | 0 | 0.0 | 0.0 | 0.00 | 0.16 | 0.00 | 96 | 1008.4 |
| 20260510064742 | 47 | 0 | 0.0 | 0.0 | 0.00 | 0.16 | 0.00 | 96 | 1008.5 |
| 20260510064713 | 47 | 0 | 0.0 | 0.0 | 0.00 | 0.16 | 0.00 | 96 | 1008.5 |
| 20260510064705 | 47 | 0 | 0.0 | 0.0 | 0.00 | 0.16 | 0.00 | 96 | 1008.5 |
| 20260510064656 | 47 | 0 | 0.0 | 0.0 | 0.00 | 0.16 | 0.00 | 96 | 1008.4 |
| 20260510064547 | 47 | 360 | 0.0 | 0.0 | 0.00 | 0.16 | 0.00 | 96 | 1008.5 |
| 20260510064341 | 47 | 0 | 0.0 | 0.0 | 0.00 | 0.16 | 0.00 | 96 | 1008.5 |
| 20260510064240 | 47 | 0 | 0.0 | 0.0 | 0.00 | 0.16 | 0.00 | 96 | 1008.4 |
| 20260510064140 | 47 | 0 | 0.0 | 0.0 | 0.00 | 0.16 | 0.00 | 96 | 1008.4 |
| 20260510064018 | 47 | 360 | 0.0 | 0.0 | 0.00 | 0.16 | 0.00 | 96 | 1008.4 |
| 20260510064014 | 47 | 0 | 0.0 | 0.0 | 0.00 | 0.16 | 0.00 | 96 | 1008.4 |
| 20260510063939 | 47 | 0 | 0.0 | 0.0 | 0.00 | 0.16 | 0.00 | 96 | 1008.4 |
| 20260510063838 | 47 | 0 | 0.0 | 0.0 | 0.00 | 0.16 | 0.00 | 96 | 1008.3 |
| 20260510063738 | 47 | 0 | 0.0 | 0.0 | 0.00 | 0.16 | 0.00 | 96 | 1008.3 |
| 20260510063637 | 47 | 0 | 0.0 | 0.0 | 0.00 | 0.16 | 0.00 | 96 | 1008.3 |
| 20260510063517 | 47 | 360 | 0.0 | 0.0 | 0.00 | 0.16 | 0.00 | 96 | 1008.3 |
| 20260510063515 | 47 | 0 | 0.0 | 0.0 | 0.00 | 0.16 | 0.00 | 96 | 1008.3 |
| 20260510063436 | 47 | 0 | 0.0 | 0.0 | 0.00 | 0.16 | 0.00 | 96 | 1008.3 |
| 20260510063337 | 47 | 0 | 0.0 | 0.0 | 0.00 | 0.16 | 0.00 | 96 | 1008.3 |
| 20260510063253 | 47 | 0 | 0.0 | 0.0 | 0.00 | 0.16 | 0.00 | 96 | 1008.2 |
| 20260510063249 | 47 | 0 | 0.0 | 0.0 | 0.00 | 0.16 | 0.00 | 96 | 1008.1 |
| 20260510063245 | 47 | 0 | 0.0 | 0.0 | 0.00 | 0.16 | 0.00 | 96 | 1008.3 |
| 20260510063119 | 47 | 0 | 0.0 | 0.0 | 0.00 | 0.16 | 0.00 | 96 | 1008.1 |
| 20260510063017 | 47 | 360 | 0.0 | 0.0 | 0.00 | 0.16 | 0.00 | 96 | 1008.2 |
| 20260510062933 | 47 | 0 | 0.0 | 0.0 | 0.00 | 0.16 | 0.00 | 96 | 1008.2 |
| 20260510062833 | 47 | 0 | 0.0 | 0.0 | 0.00 | 0.16 | 0.00 | 96 | 1008.1 |
| 20260510062732 | 47 | 0 | 0.0 | 0.0 | 0.00 | 0.16 | 0.00 | 96 | 1008.1 |
| 20260510062632 | 47 | 0 | 0.0 | 0.0 | 0.00 | 0.16 | 0.00 | 96 | 1008.1 |
| 20260510062518 | 47 | 360 | 0.0 | 0.0 | 0.00 | 0.16 | 0.00 | 96 | 1008.0 |
| 20260510062514 | 47 | 0 | 0.0 | 0.0 | 0.00 | 0.16 | 0.00 | 96 | 1008.1 |
| 20260510062430 | 47 | 0 | 0.0 | 0.0 | 0.00 | 0.16 | 0.00 | 96 | 1008.0 |
| 20260510062347 | 47 | 0 | 0.0 | 0.0 | 0.00 | 0.16 | 0.00 | 96 | 1008.0 |
| 20260510062343 | 47 | 0 | 0.0 | 0.0 | 0.00 | 0.16 | 0.00 | 96 | 1008.0 |
| 20260510062339 | 47 | 0 | 0.0 | 0.0 | 0.00 | 0.16 | 0.00 | 96 | 1008.0 |
| 20260510062157 | 47 | 0 | 0.0 | 0.0 | 0.00 | 0.16 | 0.00 | 96 | 1007.9 |
| 20260510062151 | 47 | 0 | 0.0 | 0.0 | 0.00 | 0.16 | 0.00 | 96 | 1008.0 |
| 20260510062142 | 47 | 0 | 0.0 | 0.0 | 0.00 | 0.16 | 0.00 | 96 | 1008.0 |
| 20260510062017 | 47 | 360 | 0.0 | 0.0 | 0.00 | 0.16 | 0.00 | 96 | 1007.9 |
| 20260510061827 | 47 | 0 | 0.0 | 0.0 | 0.00 | 0.16 | 0.00 | 96 | 1007.9 |
| 20260510061732 | 47 | 0 | 0.0 | 0.0 | 0.00 | 0.16 | 0.00 | 96 | 1008.0 |
| 20260510061727 | 47 | 0 | 0.0 | 0.0 | 0.00 | 0.16 | 0.00 | 96 | 1008.0 |
| 20260510061627 | 47 | 0 | 0.0 | 0.0 | 0.00 | 0.16 | 0.00 | 96 | 1008.0 |
| 20260510061618 | 47 | 0 | 0.0 | 0.0 | 0.00 | 0.16 | 0.00 | 96 | 1008.0 |
| 20260510061517 | 47 | 360 | 0.0 | 0.0 | 0.00 | 0.16 | 0.00 | 96 | 1008.0 |
| 20260510061426 | 47 | 0 | 0.0 | 0.0 | 0.00 | 0.16 | 0.00 | 96 | 1008.0 |
| 20260510061326 | 47 | 0 | 0.0 | 0.0 | 0.00 | 0.16 | 0.00 | 96 | 1008.0 |
| 20260510061225 | 47 | 0 | 0.0 | 0.0 | 0.00 | 0.16 | 0.00 | 96 | 1008.0 |
| 20260510061125 | 47 | 0 | 0.0 | 0.0 | 0.00 | 0.16 | 0.00 | 96 | 1008.0 |
| 20260510061019 | 47 | 0 | 0.0 | 0.0 | 0.00 | 0.16 | 0.00 | 96 | 1008.0 |
| 20260510061017 | 47 | 360 | 0.0 | 0.0 | 0.00 | 0.16 | 0.00 | 96 | 1008.0 |
| 20260510060951 | 47 | 0 | 0.0 | 0.0 | 0.00 | 0.16 | 0.00 | 96 | 1008.0 |
| 20260510060946 | 47 | 0 | 0.0 | 0.0 | 0.00 | 0.16 | 0.00 | 96 | 1008.0 |
| 20260510060832 | 47 | 0 | 0.0 | 0.0 | 0.00 | 0.16 | 0.00 | 96 | 1008.0 |
| 20260510060659 | 47 | 0 | 0.0 | 0.0 | 0.00 | 0.16 | 0.00 | 96 | 1008.0 |
| 20260510060649 | 47 | 0 | 0.0 | 0.0 | 0.00 | 0.16 | 0.00 | 96 | 1008.0 |
| 20260510060517 | 47 | 360 | 0.0 | 0.0 | 0.00 | 0.16 | 0.00 | 96 | 1008.0 |
| 20260510060430 | 47 | 0 | 0.0 | 0.0 | 0.00 | 0.16 | 0.00 | 96 | 1008.0 |
| 20260510060234 | 47 | 0 | 0.0 | 0.0 | 0.00 | 0.16 | 0.00 | 95 | 1008.0 |
| 20260510060230 | 47 | 0 | 0.0 | 0.0 | 0.00 | 0.16 | 0.00 | 95 | 1008.0 |
| 20260510060020 | 47 | 0 | 0.0 | 0.0 | 0.00 | 0.16 | 0.00 | 95 | 1008.1 |
| 20260510060017 | 47 | 360 | 0.0 | 0.0 | 0.00 | 0.16 | 0.00 | 95 | 1008.0 |
| 20260510060011 | 47 | 0 | 0.0 | 0.0 | 0.00 | 0.16 | 0.00 | 95 | 1008.0 |
| 20260510055920 | 47 | 0 | 0.0 | 0.0 | 0.00 | 0.16 | 0.00 | 95 | 1008.0 |
| 20260510055818 | 47 | 0 | 0.0 | 0.0 | 0.00 | 0.16 | 0.00 | 95 | 1008.1 |
| 20260510055718 | 47 | 0 | 0.0 | 0.0 | 0.00 | 0.16 | 0.00 | 95 | 1008.1 |
| 20260510055617 | 47 | 0 | 0.0 | 0.0 | 0.00 | 0.16 | 0.00 | 95 | 1008.1 |
| 20260510055517 | 47 | 360 | 0.0 | 0.0 | 0.00 | 0.16 | 0.00 | 95 | 1008.2 |
| 20260510055510 | 47 | 0 | 0.0 | 0.0 | 0.00 | 0.16 | 0.00 | 95 | 1008.2 |
| 20260510055416 | 47 | 0 | 0.0 | 0.0 | 0.00 | 0.16 | 0.00 | 95 | 1008.2 |
| 20260510055316 | 47 | 0 | 0.0 | 0.0 | 0.00 | 0.16 | 0.00 | 95 | 1008.2 |
| 20260510055215 | 47 | 0 | 0.0 | 0.0 | 0.00 | 0.16 | 0.00 | 95 | 1008.2 |
| 20260510055115 | 47 | 0 | 0.0 | 0.0 | 0.00 | 0.16 | 0.00 | 95 | 1008.2 |
| 20260510055017 | 47 | 360 | 0.0 | 0.0 | 0.00 | 0.16 | 0.00 | 95 | 1008.2 |
| 20260510055009 | 47 | 0 | 0.0 | 0.0 | 0.00 | 0.16 | 0.00 | 95 | 1008.2 |
| 20260510054927 | 47 | 0 | 0.0 | 0.0 | 0.00 | 0.16 | 0.00 | 95 | 1008.2 |
| 20260510054923 | 47 | 0 | 0.0 | 0.0 | 0.00 | 0.16 | 0.00 | 95 | 1008.2 |
| 20260510054714 | 47 | 0 | 0.0 | 0.0 | 0.00 | 0.16 | 0.00 | 95 | 1008.2 |
| 20260510054613 | 47 | 0 | 0.0 | 0.0 | 0.00 | 0.16 | 0.00 | 95 | 1008.2 |
| 20260510054547 | 47 | 360 | 0.0 | 0.0 | 0.00 | 0.16 | 0.00 | 95 | 1008.2 |
| 20260510054510 | 47 | 0 | 0.0 | 0.0 | 0.00 | 0.16 | 0.00 | 95 | 1008.2 |
| 20260510054445 | 47 | 0 | 0.0 | 0.0 | 0.00 | 0.16 | 0.00 | 95 | 1008.3 |
| 20260510054437 | 47 | 0 | 0.0 | 0.0 | 0.00 | 0.16 | 0.00 | 95 | 1008.2 |
| 20260510054324 | 47 | 0 | 0.0 | 0.0 | 0.00 | 0.16 | 0.00 | 95 | 1008.3 |
| 20260510054121 | 47 | 0 | 0.0 | 0.0 | 0.00 | 0.16 | 0.00 | 95 | 1008.3 |
| 20260510054112 | 47 | 0 | 0.0 | 0.0 | 0.00 | 0.16 | 0.00 | 95 | 1008.3 |
| 20260510054017 | 47 | 360 | 0.0 | 0.0 | 0.00 | 0.16 | 0.00 | 95 | 1008.4 |
| 20260510053913 | 47 | 0 | 0.0 | 0.0 | 0.00 | 0.16 | 0.00 | 95 | 1008.4 |
| 20260510053812 | 47 | 0 | 0.0 | 0.0 | 0.00 | 0.16 | 0.00 | 95 | 1008.3 |
| 20260510053725 | 47 | 0 | 0.0 | 0.0 | 0.00 | 0.16 | 0.00 | 95 | 1008.3 |
| 20260510053712 | 47 | 0 | 0.0 | 0.0 | 0.00 | 0.16 | 0.00 | 95 | 1008.3 |
| 20260510053619 | 47 | 0 | 0.0 | 0.0 | 0.00 | 0.16 | 0.00 | 95 | 1008.3 |
| 20260510053610 | 47 | 0 | 0.0 | 0.0 | 0.00 | 0.16 | 0.00 | 95 | 1008.3 |
| 20260510053532 | 47 | 360 | 0.0 | 0.0 | 0.00 | 0.16 | 0.00 | 95 | 1008.3 |
| 20260510053410 | 47 | 0 | 0.0 | 0.0 | 0.00 | 0.16 | 0.00 | 96 | 1008.3 |
| 20260510053309 | 47 | 0 | 0.0 | 0.0 | 0.00 | 0.16 | 0.00 | 96 | 1008.3 |
| 20260510053209 | 47 | 0 | 0.0 | 0.0 | 0.00 | 0.16 | 0.00 | 96 | 1008.3 |
| 20260510053125 | 47 | 0 | 0.0 | 0.0 | 0.00 | 0.16 | 0.00 | 96 | 1008.3 |
| 20260510053119 | 47 | 0 | 0.0 | 0.0 | 0.00 | 0.16 | 0.00 | 96 | 1008.3 |
| 20260510053017 | 47 | 360 | 0.0 | 0.0 | 0.00 | 0.16 | 0.00 | 96 | 1008.3 |
| 20260510053006 | 47 | 0 | 0.0 | 0.0 | 0.00 | 0.16 | 0.00 | 96 | 1008.3 |
| 20260510052907 | 47 | 0 | 0.0 | 0.0 | 0.00 | 0.16 | 0.00 | 95 | 1008.3 |
| 20260510052821 | 47 | 0 | 0.0 | 0.0 | 0.00 | 0.16 | 0.00 | 95 | 1008.3 |
| 20260510052816 | 47 | 0 | 0.0 | 0.0 | 0.00 | 0.16 | 0.00 | 96 | 1008.3 |
| 20260510052605 | 47 | 0 | 0.0 | 0.0 | 0.00 | 0.16 | 0.00 | 95 | 1008.3 |
| 20260510052525 | 47 | 0 | 0.0 | 0.0 | 0.00 | 0.16 | 0.00 | 95 | 1008.3 |
| 20260510052517 | 47 | 360 | 0.0 | 0.0 | 0.00 | 0.16 | 0.00 | 95 | 1008.4 |
| 20260510052515 | 47 | 0 | 0.0 | 0.0 | 0.00 | 0.16 | 0.00 | 95 | 1008.4 |
| 20260510052318 | 47 | 0 | 0.0 | 0.0 | 0.00 | 0.16 | 0.00 | 95 | 1008.4 |
| 20260510052313 | 47 | 0 | 0.0 | 0.0 | 0.00 | 0.16 | 0.00 | 95 | 1008.3 |
| 20260510052102 | 47 | 0 | 0.0 | 0.0 | 0.00 | 0.16 | 0.00 | 95 | 1008.3 |
| 20260510052038 | 47 | 0 | 0.0 | 0.0 | 0.00 | 0.16 | 0.00 | 95 | 1008.3 |
| 20260510052033 | 47 | 0 | 0.0 | 0.0 | 0.00 | 0.16 | 0.00 | 95 | 1008.4 |
| 20260510052020 | 47 | 0 | 0.0 | 0.0 | 0.00 | 0.16 | 0.00 | 95 | 1008.4 |
| 20260510052017 | 47 | 360 | 0.0 | 0.0 | 0.00 | 0.16 | 0.00 | 95 | 1008.4 |
| 20260510051701 | 47 | 0 | 0.0 | 0.0 | 0.00 | 0.16 | 0.00 | 95 | 1008.3 |
| 20260510051600 | 47 | 0 | 0.0 | 0.0 | 0.00 | 0.16 | 0.00 | 95 | 1008.3 |
| 20260510051517 | 47 | 360 | 0.0 | 0.0 | 0.00 | 0.16 | 0.00 | 95 | 1008.4 |
| 20260510051501 | 47 | 0 | 0.0 | 0.0 | 0.00 | 0.16 | 0.00 | 95 | 1008.4 |
| 20260510051400 | 47 | 0 | 0.0 | 0.0 | 0.00 | 0.16 | 0.00 | 95 | 1008.4 |
| 20260510051300 | 47 | 0 | 0.0 | 0.0 | 0.00 | 0.16 | 0.00 | 95 | 1008.4 |
| 20260510051200 | 47 | 0 | 0.0 | 0.0 | 0.00 | 0.16 | 0.00 | 95 | 1008.4 |
| 20260510051059 | 47 | 0 | 0.0 | 0.0 | 0.00 | 0.16 | 0.00 | 95 | 1008.3 |
| 20260510051017 | 47 | 360 | 0.0 | 0.0 | 0.00 | 0.16 | 0.00 | 95 | 1008.3 |
| 20260510051005 | 47 | 0 | 0.0 | 0.0 | 0.00 | 0.16 | 0.00 | 95 | 1008.3 |
| 20260510050958 | 47 | 0 | 0.0 | 0.0 | 0.00 | 0.16 | 0.00 | 95 | 1008.3 |
| 20260510050858 | 47 | 0 | 0.0 | 0.0 | 0.00 | 0.16 | 0.00 | 95 | 1008.3 |
| 20260510050758 | 47 | 0 | 0.0 | 0.0 | 0.00 | 0.16 | 0.00 | 95 | 1008.3 |
| 20260510050657 | 47 | 0 | 0.0 | 0.0 | 0.00 | 0.16 | 0.00 | 95 | 1008.3 |
| 20260510050557 | 47 | 0 | 0.0 | 0.0 | 0.00 | 0.16 | 0.00 | 95 | 1008.3 |
| 20260510050517 | 47 | 360 | 0.0 | 0.0 | 0.00 | 0.16 | 0.00 | 95 | 1008.3 |
| 20260510050504 | 47 | 0 | 0.0 | 0.0 | 0.00 | 0.16 | 0.00 | 95 | 1008.3 |
| 20260510050456 | 47 | 0 | 0.0 | 0.0 | 0.00 | 0.16 | 0.00 | 95 | 1008.3 |
| 20260510050426 | 47 | 0 | 0.0 | 0.0 | 0.00 | 0.16 | 0.00 | 95 | 1008.4 |
| 20260510050419 | 47 | 0 | 0.0 | 0.0 | 0.00 | 0.16 | 0.00 | 95 | 1008.4 |
| 20260510050414 | 47 | 0 | 0.0 | 0.0 | 0.00 | 0.16 | 0.00 | 95 | 1008.4 |
| 20260510050108 | 47 | 0 | 0.0 | 0.0 | 0.00 | 0.16 | 0.00 | 95 | 1008.4 |
| 20260510050059 | 47 | 0 | 0.0 | 0.0 | 0.00 | 0.16 | 0.00 | 95 | 1008.4 |
| 20260510050032 | 47 | 360 | 0.0 | 0.0 | 0.00 | 0.16 | 0.00 | 95 | 1008.4 |
| 20260510045852 | 47 | 0 | 0.0 | 0.0 | 0.00 | 0.16 | 0.00 | 95 | 1008.4 |
| 20260510045751 | 47 | 0 | 0.0 | 0.0 | 0.00 | 0.16 | 0.00 | 95 | 1008.5 |
| 20260510045651 | 47 | 0 | 0.0 | 0.0 | 0.00 | 0.16 | 0.00 | 95 | 1008.5 |
| 20260510045548 | 47 | 0 | 0.0 | 0.0 | 0.00 | 0.16 | 0.00 | 95 | 1008.5 |
| 20260510045517 | 47 | 360 | 0.0 | 0.0 | 0.00 | 0.16 | 0.00 | 95 | 1008.6 |
| 20260510045507 | 47 | 0 | 0.0 | 0.0 | 0.00 | 0.16 | 0.00 | 95 | 1008.5 |
| 20260510045456 | 47 | 0 | 0.0 | 0.0 | 0.00 | 0.16 | 0.00 | 95 | 1008.5 |
| 20260510045247 | 47 | 0 | 0.0 | 0.0 | 0.00 | 0.16 | 0.00 | 95 | 1008.5 |
| 20260510045146 | 47 | 0 | 0.0 | 0.0 | 0.00 | 0.16 | 0.00 | 95 | 1008.5 |
| 20260510045046 | 47 | 0 | 0.0 | 0.0 | 0.00 | 0.16 | 0.00 | 95 | 1008.5 |
| 20260510045017 | 47 | 360 | 0.0 | 0.0 | 0.00 | 0.16 | 0.00 | 95 | 1008.6 |
| 20260510044945 | 47 | 0 | 0.0 | 0.0 | 0.00 | 0.16 | 0.00 | 95 | 1008.5 |
| 20260510044846 | 47 | 0 | 0.0 | 0.0 | 0.00 | 0.16 | 0.00 | 95 | 1008.6 |
| 20260510044745 | 47 | 0 | 0.0 | 0.0 | 0.00 | 0.16 | 0.00 | 95 | 1008.6 |
| 20260510044645 | 47 | 0 | 0.0 | 0.0 | 0.00 | 0.16 | 0.00 | 95 | 1008.6 |
| 20260510044545 | 47 | 0 | 0.0 | 0.0 | 0.00 | 0.16 | 0.00 | 95 | 1008.6 |
| 20260510044528 | 47 | 0 | 0.0 | 0.0 | 0.00 | 0.16 | 0.00 | 95 | 1008.6 |
| 20260510044517 | 47 | 360 | 0.0 | 0.0 | 0.00 | 0.16 | 0.00 | 95 | 1008.7 |
| 20260510044414 | 47 | 0 | 0.0 | 0.0 | 0.00 | 0.16 | 0.00 | 95 | 1008.6 |
| 20260510044301 | 47 | 0 | 0.0 | 0.0 | 0.00 | 0.16 | 0.00 | 95 | 1008.6 |
| 20260510044047 | 47 | 360 | 0.0 | 0.0 | 0.00 | 0.16 | 0.00 | 95 | 1008.7 |
| 20260510043942 | 47 | 0 | 0.0 | 0.0 | 0.00 | 0.16 | 0.00 | 95 | 1008.6 |
| 20260510043841 | 47 | 0 | 0.0 | 0.0 | 0.00 | 0.16 | 0.00 | 95 | 1008.6 |
| 20260510043741 | 47 | 0 | 0.0 | 0.0 | 0.00 | 0.16 | 0.00 | 95 | 1008.6 |
| 20260510043640 | 47 | 0 | 0.0 | 0.0 | 0.00 | 0.16 | 0.00 | 95 | 1008.6 |
| 20260510043547 | 47 | 360 | 0.0 | 0.0 | 0.00 | 0.16 | 0.00 | 95 | 1008.7 |
| 20260510043540 | 47 | 0 | 0.0 | 0.0 | 0.00 | 0.16 | 0.00 | 95 | 1008.6 |
| 20260510043439 | 47 | 0 | 0.0 | 0.0 | 0.00 | 0.16 | 0.00 | 95 | 1008.6 |
| 20260510043339 | 47 | 0 | 0.0 | 0.0 | 0.00 | 0.16 | 0.00 | 95 | 1008.6 |
| 20260510043252 | 47 | 0 | 0.0 | 0.0 | 0.00 | 0.16 | 0.00 | 95 | 1008.7 |
| 20260510043247 | 47 | 0 | 0.0 | 0.0 | 0.00 | 0.16 | 0.00 | 95 | 1008.6 |
| 20260510043047 | 47 | 360 | 0.0 | 0.0 | 0.00 | 0.16 | 0.00 | 95 | 1008.7 |
| 20260510043037 | 47 | 0 | 0.0 | 0.0 | 0.00 | 0.16 | 0.00 | 95 | 1008.6 |
| 20260510042936 | 47 | 0 | 0.0 | 0.0 | 0.00 | 0.16 | 0.00 | 95 | 1008.6 |
| 20260510042836 | 47 | 0 | 0.0 | 0.0 | 0.00 | 0.16 | 0.00 | 95 | 1008.7 |
| 20260510042735 | 47 | 0 | 0.0 | 0.0 | 0.00 | 0.16 | 0.00 | 95 | 1008.6 |
| 20260510042635 | 47 | 0 | 0.0 | 0.0 | 0.00 | 0.16 | 0.00 | 95 | 1008.6 |
| 20260510042535 | 47 | 0 | 0.0 | 0.0 | 0.00 | 0.16 | 0.00 | 95 | 1008.6 |
| 20260510042518 | 47 | 360 | 0.0 | 0.0 | 0.00 | 0.16 | 0.00 | 95 | 1008.7 |
| 20260510042434 | 47 | 0 | 0.0 | 0.0 | 0.00 | 0.16 | 0.00 | 95 | 1008.6 |
| 20260510042333 | 47 | 0 | 0.0 | 0.0 | 0.00 | 0.16 | 0.00 | 95 | 1008.6 |
| 20260510042233 | 47 | 0 | 0.0 | 0.0 | 0.00 | 0.16 | 0.00 | 95 | 1008.6 |
| 20260510042148 | 47 | 0 | 0.0 | 0.0 | 0.00 | 0.16 | 0.00 | 95 | 1008.7 |
| 20260510042142 | 47 | 0 | 0.0 | 0.0 | 0.00 | 0.16 | 0.00 | 95 | 1008.6 |
| 20260510042017 | 47 | 360 | 0.0 | 0.0 | 0.00 | 0.16 | 0.00 | 95 | 1008.7 |
| 20260510041933 | 47 | 0 | 0.0 | 0.0 | 0.00 | 0.16 | 0.00 | 95 | 1008.6 |
| 20260510041833 | 47 | 0 | 0.0 | 0.0 | 0.00 | 0.16 | 0.00 | 95 | 1008.7 |
| 20260510041732 | 47 | 0 | 0.0 | 0.0 | 0.00 | 0.16 | 0.00 | 95 | 1008.7 |
| 20260510041632 | 47 | 0 | 0.0 | 0.0 | 0.00 | 0.16 | 0.00 | 95 | 1008.7 |
| 20260510041530 | 47 | 0 | 0.0 | 0.0 | 0.00 | 0.16 | 0.00 | 95 | 1008.7 |
| 20260510041517 | 47 | 360 | 0.0 | 0.0 | 0.00 | 0.16 | 0.00 | 95 | 1008.8 |
| 20260510041429 | 47 | 0 | 0.0 | 0.0 | 0.00 | 0.16 | 0.00 | 95 | 1008.7 |
| 20260510041344 | 47 | 0 | 0.0 | 0.0 | 0.01 | 0.16 | 0.00 | 95 | 1008.7 |
| 20260510041339 | 47 | 0 | 0.0 | 0.0 | 0.01 | 0.16 | 0.00 | 95 | 1008.6 |
| 20260510041215 | 47 | 0 | 0.0 | 0.0 | 0.01 | 0.16 | 0.00 | 95 | 1008.7 |
| 20260510041129 | 47 | 0 | 0.0 | 0.0 | 0.01 | 0.16 | 0.00 | 95 | 1008.7 |
| 20260510041102 | 47 | 360 | 0.0 | 0.0 | 0.01 | 0.16 | 0.00 | 95 | 1008.8 |
| 20260510041059 | 47 | 0 | 0.0 | 0.0 | 0.01 | 0.16 | 0.00 | 95 | 1008.6 |
| 20260510040928 | 47 | 0 | 0.0 | 0.0 | 0.01 | 0.16 | 0.00 | 95 | 1008.7 |
| 20260510040828 | 47 | 0 | 0.0 | 0.0 | 0.01 | 0.16 | 0.00 | 95 | 1008.6 |
| 20260510040728 | 47 | 0 | 0.0 | 0.0 | 0.01 | 0.16 | 0.00 | 95 | 1008.7 |
| 20260510040627 | 47 | 0 | 0.0 | 0.0 | 0.01 | 0.16 | 0.00 | 95 | 1008.7 |
| 20260510040602 | 47 | 360 | 0.0 | 0.0 | 0.01 | 0.16 | 0.00 | 95 | 1008.8 |
| 20260510040526 | 47 | 0 | 0.0 | 0.0 | 0.01 | 0.16 | 0.00 | 95 | 1008.7 |
| 20260510040440 | 47 | 0 | 0.0 | 0.0 | 0.01 | 0.16 | 0.00 | 95 | 1008.7 |
| 20260510040435 | 47 | 0 | 0.0 | 0.0 | 0.01 | 0.16 | 0.00 | 95 | 1008.7 |
| 20260510040224 | 47 | 0 | 0.0 | 0.0 | 0.01 | 0.16 | 0.00 | 95 | 1008.7 |
| 20260510040125 | 47 | 0 | 0.0 | 0.0 | 0.01 | 0.16 | 0.00 | 95 | 1008.7 |
| 20260510040055 | 47 | 0 | 0.0 | 0.0 | 0.01 | 0.16 | 0.16 | 94 | 1008.8 |
| 20260510040047 | 47 | 360 | 0.0 | 0.0 | 0.01 | 0.16 | 0.00 | 94 | 1008.8 |
| 20260510040042 | 47 | 0 | 0.0 | 0.0 | 0.01 | 0.16 | 0.16 | 94 | 1008.7 |
| 20260510035810 | 47 | 0 | 0.0 | 0.0 | 0.01 | 0.16 | 0.16 | 94 | 1008.7 |
| 20260510035759 | 47 | 0 | 0.0 | 0.0 | 0.01 | 0.16 | 0.16 | 94 | 1008.8 |
| 20260510035646 | 47 | 0 | 0.0 | 0.0 | 0.01 | 0.16 | 0.16 | 94 | 1008.8 |
| 20260510035637 | 47 | 0 | 0.0 | 0.0 | 0.01 | 0.16 | 0.16 | 94 | 1008.7 |
| 20260510035517 | 47 | 360 | 0.0 | 0.0 | 0.01 | 0.16 | 0.16 | 94 | 1008.8 |
| 20260510035322 | 47 | 0 | 0.0 | 0.0 | 0.01 | 0.16 | 0.16 | 94 | 1008.7 |
| 20260510035222 | 47 | 0 | 0.0 | 0.0 | 0.01 | 0.16 | 0.16 | 94 | 1008.7 |
| 20260510035120 | 47 | 0 | 0.0 | 0.0 | 0.01 | 0.16 | 0.16 | 94 | 1008.7 |
| 20260510035101 | 47 | 0 | 0.0 | 0.0 | 0.01 | 0.16 | 0.16 | 94 | 1008.7 |
| 20260510035017 | 47 | 360 | 0.0 | 0.0 | 0.01 | 0.16 | 0.16 | 94 | 1008.8 |
| 20260510034951 | 47 | 0 | 0.0 | 0.0 | 0.01 | 0.16 | 0.16 | 94 | 1008.7 |
| 20260510034937 | 47 | 0 | 0.0 | 0.0 | 0.01 | 0.16 | 0.16 | 94 | 1008.7 |
| 20260510034710 | 47 | 0 | 0.0 | 0.0 | 0.01 | 0.16 | 0.16 | 94 | 1008.7 |
| 20260510034619 | 47 | 0 | 0.0 | 0.0 | 0.01 | 0.16 | 0.16 | 95 | 1008.7 |
| 20260510034550 | 47 | 0 | 0.0 | 0.0 | 0.01 | 0.16 | 0.16 | 95 | 1008.7 |
| 20260510034517 | 47 | 360 | 0.0 | 0.0 | 0.01 | 0.16 | 0.16 | 95 | 1008.8 |
| 20260510034418 | 47 | 0 | 0.0 | 0.0 | 0.01 | 0.16 | 0.16 | 94 | 1008.7 |
| 20260510034317 | 47 | 0 | 0.0 | 0.0 | 0.01 | 0.16 | 0.16 | 94 | 1008.7 |
| 20260510034217 | 47 | 0 | 0.0 | 0.0 | 0.01 | 0.16 | 0.16 | 94 | 1008.7 |
| 20260510034117 | 47 | 0 | 0.0 | 0.0 | 0.01 | 0.16 | 0.16 | 94 | 1008.7 |
| 20260510034017 | 48 | 360 | 0.0 | 0.0 | 0.01 | 0.16 | 0.16 | 94 | 1008.7 |
| 20260510033916 | 47 | 0 | 0.0 | 0.0 | 0.01 | 0.16 | 0.16 | 94 | 1008.6 |
| 20260510033815 | 48 | 0 | 0.0 | 0.0 | 0.01 | 0.16 | 0.16 | 94 | 1008.6 |
| 20260510033715 | 48 | 0 | 0.0 | 0.0 | 0.01 | 0.16 | 0.16 | 94 | 1008.6 |
| 20260510033628 | 48 | 0 | 0.0 | 0.0 | 0.01 | 0.16 | 0.16 | 94 | 1008.6 |
| 20260510033622 | 48 | 0 | 0.0 | 0.0 | 0.01 | 0.16 | 0.16 | 94 | 1008.6 |
| 20260510033517 | 48 | 360 | 0.0 | 0.0 | 0.01 | 0.16 | 0.16 | 94 | 1008.7 |
| 20260510033412 | 48 | 0 | 0.0 | 0.0 | 0.01 | 0.16 | 0.16 | 94 | 1008.6 |
| 20260510033312 | 48 | 0 | 0.0 | 0.0 | 0.01 | 0.16 | 0.16 | 94 | 1008.5 |
| 20260510033212 | 48 | 0 | 0.0 | 0.0 | 0.01 | 0.16 | 0.16 | 94 | 1008.6 |
| 20260510033112 | 48 | 0 | 0.0 | 0.0 | 0.01 | 0.16 | 0.16 | 94 | 1008.4 |
| 20260510033017 | 48 | 360 | 0.0 | 0.0 | 0.01 | 0.16 | 0.16 | 94 | 1008.6 |
| 20260510033011 | 48 | 0 | 0.0 | 0.0 | 0.01 | 0.16 | 0.16 | 94 | 1008.5 |
| 20260510032946 | 48 | 0 | 0.0 | 0.0 | 0.01 | 0.16 | 0.16 | 94 | 1008.5 |
| 20260510032942 | 48 | 0 | 0.0 | 0.0 | 0.01 | 0.16 | 0.16 | 94 | 1008.5 |
| 20260510032936 | 48 | 0 | 0.0 | 0.0 | 0.01 | 0.16 | 0.16 | 94 | 1008.5 |
| 20260510032928 | 48 | 0 | 0.0 | 0.0 | 0.01 | 0.16 | 0.16 | 94 | 1008.4 |
| 20260510032610 | 48 | 0 | 0.0 | 0.0 | 0.01 | 0.16 | 0.16 | 94 | 1008.5 |
| 20260510032547 | 48 | 360 | 0.0 | 0.0 | 0.01 | 0.16 | 0.16 | 94 | 1008.6 |
| 20260510032508 | 48 | 0 | 0.0 | 0.0 | 0.01 | 0.16 | 0.16 | 94 | 1008.5 |
| 20260510032439 | 48 | 0 | 0.0 | 0.0 | 0.01 | 0.16 | 0.16 | 94 | 1008.5 |
| 20260510032408 | 48 | 0 | 0.0 | 0.0 | 0.01 | 0.16 | 0.16 | 94 | 1008.5 |
| 20260510032320 | 48 | 0 | 0.0 | 0.0 | 0.01 | 0.16 | 0.16 | 94 | 1008.5 |
| 20260510032315 | 48 | 0 | 0.0 | 0.0 | 0.01 | 0.16 | 0.16 | 94 | 1008.5 |
| 20260510032105 | 48 | 0 | 0.0 | 0.0 | 0.01 | 0.16 | 0.16 | 94 | 1008.5 |
| 20260510032017 | 48 | 360 | 0.0 | 0.0 | 0.01 | 0.16 | 0.16 | 94 | 1008.5 |
| 20260510032004 | 48 | 0 | 0.0 | 0.0 | 0.01 | 0.16 | 0.16 | 94 | 1008.4 |
| 20260510031919 | 48 | 0 | 0.0 | 0.0 | 0.01 | 0.16 | 0.16 | 94 | 1008.4 |
| 20260510031913 | 48 | 0 | 0.0 | 0.0 | 0.01 | 0.16 | 0.16 | 94 | 1008.4 |
| 20260510031704 | 48 | 0 | 0.0 | 0.0 | 0.01 | 0.16 | 0.16 | 94 | 1008.4 |
| 20260510031604 | 48 | 0 | 0.0 | 0.0 | 0.01 | 0.16 | 0.16 | 94 | 1008.4 |
| 20260510031517 | 48 | 360 | 0.0 | 0.0 | 0.01 | 0.16 | 0.16 | 94 | 1008.5 |
| 20260510031503 | 48 | 0 | 0.0 | 0.0 | 0.01 | 0.16 | 0.16 | 94 | 1008.4 |
| 20260510031437 | 48 | 0 | 0.0 | 0.0 | 0.01 | 0.16 | 0.16 | 94 | 1008.4 |
| 20260510031402 | 48 | 0 | 0.0 | 0.0 | 0.01 | 0.16 | 0.16 | 94 | 1008.4 |
| 20260510031302 | 48 | 0 | 0.0 | 0.0 | 0.00 | 0.15 | 0.15 | 94 | 1008.3 |
| 20260510031202 | 48 | 0 | 0.0 | 0.0 | 0.00 | 0.15 | 0.15 | 94 | 1008.3 |
| 20260510031101 | 48 | 0 | 0.0 | 0.0 | 0.00 | 0.15 | 0.15 | 94 | 1008.2 |
| 20260510031047 | 48 | 360 | 0.0 | 0.0 | 0.00 | 0.15 | 0.15 | 94 | 1008.3 |
| 20260510031001 | 48 | 0 | 0.0 | 0.0 | 0.00 | 0.15 | 0.15 | 94 | 1008.2 |
| 20260510030935 | 48 | 0 | 0.0 | 0.0 | 0.00 | 0.15 | 0.15 | 94 | 1008.2 |
| 20260510030900 | 48 | 0 | 0.0 | 0.0 | 0.00 | 0.15 | 0.15 | 94 | 1008.2 |
| 20260510030758 | 48 | 0 | 0.0 | 0.0 | 0.00 | 0.15 | 0.15 | 94 | 1008.2 |
| 20260510030658 | 48 | 0 | 0.0 | 0.0 | 0.00 | 0.15 | 0.15 | 94 | 1008.2 |
| 20260510030557 | 49 | 0 | 0.0 | 0.0 | 0.00 | 0.15 | 0.15 | 94 | 1008.2 |
| 20260510030517 | 49 | 360 | 0.0 | 0.0 | 0.00 | 0.15 | 0.15 | 94 | 1008.3 |
| 20260510030435 | 49 | 0 | 0.0 | 0.0 | 0.00 | 0.15 | 0.15 | 94 | 1008.2 |
| 20260510030357 | 49 | 0 | 0.0 | 0.0 | 0.00 | 0.15 | 0.15 | 94 | 1008.2 |
| 20260510030256 | 49 | 0 | 0.0 | 0.0 | 0.00 | 0.15 | 0.15 | 94 | 1008.2 |
| 20260510030214 | 49 | 0 | 0.0 | 0.0 | 0.00 | 0.15 | 0.15 | 94 | 1008.2 |
| 20260510030210 | 49 | 0 | 0.0 | 0.0 | 0.00 | 0.15 | 0.15 | 94 | 1008.2 |
| 20260510030205 | 49 | 0 | 0.0 | 0.0 | 0.00 | 0.15 | 0.15 | 94 | 1008.2 |
| 20260510030039 | 49 | 0 | 0.0 | 0.0 | 0.00 | 0.15 | 0.15 | 94 | 1008.2 |
| 20260510030017 | 49 | 360 | 0.0 | 0.0 | 0.00 | 0.15 | 0.15 | 94 | 1008.3 |
| 20260510025854 | 49 | 0 | 0.0 | 0.0 | 0.00 | 0.15 | 0.15 | 94 | 1008.1 |
| 20260510025837 | 49 | 0 | 0.0 | 0.0 | 0.00 | 0.15 | 0.15 | 94 | 1008.1 |
| 20260510025833 | 49 | 0 | 0.0 | 0.0 | 0.00 | 0.15 | 0.15 | 94 | 1008.1 |
| 20260510025827 | 49 | 0 | 0.0 | 0.0 | 0.00 | 0.15 | 0.15 | 94 | 1008.2 |
| 20260510025820 | 49 | 0 | 0.0 | 0.0 | 0.00 | 0.15 | 0.15 | 94 | 1008.1 |
| 20260510025517 | 49 | 360 | 0.0 | 0.0 | 0.00 | 0.15 | 0.15 | 94 | 1008.3 |
| 20260510025432 | 49 | 0 | 0.0 | 0.0 | 0.00 | 0.15 | 0.15 | 94 | 1008.2 |
| 20260510025351 | 49 | 0 | 0.0 | 0.0 | 0.00 | 0.15 | 0.15 | 94 | 1008.1 |
| 20260510025251 | 49 | 0 | 0.0 | 0.0 | 0.00 | 0.15 | 0.15 | 94 | 1008.1 |
| 20260510025151 | 49 | 0 | 0.0 | 0.0 | 0.00 | 0.15 | 0.15 | 94 | 1008.2 |
| 20260510025126 | 49 | 0 | 0.0 | 0.0 | 0.00 | 0.15 | 0.15 | 94 | 1008.1 |
| 20260510025122 | 49 | 0 | 0.0 | 0.0 | 0.00 | 0.15 | 0.15 | 94 | 1008.1 |
| 20260510025114 | 49 | 0 | 0.0 | 0.0 | 0.00 | 0.15 | 0.15 | 94 | 1008.1 |
| 20260510025017 | 49 | 360 | 0.0 | 0.0 | 0.00 | 0.15 | 0.15 | 94 | 1008.2 |
| 20260510025000 | 49 | 0 | 0.0 | 0.0 | 0.00 | 0.15 | 0.15 | 94 | 1008.1 |
| 20260510024804 | 49 | 0 | 0.0 | 0.0 | 0.00 | 0.15 | 0.15 | 94 | 1008.2 |
| 20260510024758 | 49 | 0 | 0.0 | 0.0 | 0.00 | 0.15 | 0.15 | 94 | 1008.2 |
| 20260510024548 | 49 | 0 | 0.0 | 0.0 | 0.00 | 0.15 | 0.15 | 94 | 1008.2 |
| 20260510024517 | 49 | 360 | 0.0 | 0.0 | 0.00 | 0.15 | 0.15 | 94 | 1008.2 |
| 20260510024507 | 49 | 0 | 0.0 | 0.0 | 0.00 | 0.15 | 0.15 | 94 | 1008.2 |
| 20260510024458 | 49 | 0 | 0.0 | 0.0 | 0.00 | 0.15 | 0.15 | 94 | 1008.1 |
| 20260510024247 | 49 | 0 | 0.0 | 0.0 | 0.00 | 0.15 | 0.15 | 94 | 1008.2 |
| 20260510024147 | 49 | 0 | 0.0 | 0.0 | 0.00 | 0.15 | 0.15 | 94 | 1008.2 |
| 20260510024046 | 49 | 0 | 0.0 | 0.0 | 0.00 | 0.15 | 0.15 | 94 | 1008.2 |
| 20260510024017 | 49 | 360 | 0.0 | 0.0 | 0.00 | 0.15 | 0.15 | 93 | 1008.3 |
| 20260510023929 | 49 | 0 | 0.0 | 0.0 | 0.00 | 0.15 | 0.15 | 93 | 1008.2 |
| 20260510023845 | 49 | 0 | 0.0 | 0.0 | 0.00 | 0.15 | 0.15 | 93 | 1008.2 |
| 20260510023745 | 49 | 0 | 0.0 | 0.0 | 0.00 | 0.15 | 0.15 | 93 | 1008.2 |
| 20260510023644 | 49 | 0 | 0.0 | 0.0 | 0.00 | 0.15 | 0.15 | 93 | 1008.2 |
| 20260510023557 | 49 | 0 | 0.0 | 0.0 | 0.00 | 0.15 | 0.15 | 93 | 1008.1 |
| 20260510023552 | 49 | 0 | 0.0 | 0.0 | 0.00 | 0.15 | 0.15 | 93 | 1008.2 |
| 20260510023517 | 49 | 360 | 0.0 | 0.0 | 0.00 | 0.15 | 0.15 | 93 | 1008.2 |
| 20260510023429 | 49 | 0 | 0.0 | 0.0 | 0.00 | 0.15 | 0.15 | 93 | 1008.1 |
| 20260510023344 | 49 | 0 | 0.0 | 0.0 | 0.00 | 0.15 | 0.15 | 93 | 1008.1 |
| 20260510023243 | 49 | 0 | 0.0 | 0.0 | 0.00 | 0.15 | 0.15 | 93 | 1008.1 |
| 20260510023143 | 50 | 0 | 0.0 | 0.0 | 0.00 | 0.15 | 0.15 | 94 | 1008.1 |
| 20260510023056 | 50 | 0 | 0.0 | 0.0 | 0.00 | 0.15 | 0.15 | 94 | 1008.1 |
| 20260510023051 | 50 | 0 | 0.0 | 0.0 | 0.00 | 0.15 | 0.15 | 94 | 1008.1 |
| 20260510023033 | 50 | 360 | 0.0 | 0.0 | 0.00 | 0.15 | 0.15 | 94 | 1008.2 |
| 20260510022928 | 50 | 0 | 0.0 | 0.0 | 0.00 | 0.15 | 0.15 | 94 | 1008.1 |
| 20260510022842 | 50 | 0 | 0.0 | 0.0 | 0.00 | 0.15 | 0.15 | 94 | 1008.1 |
| 20260510022741 | 50 | 0 | 0.0 | 0.0 | 0.00 | 0.15 | 0.15 | 94 | 1008.1 |
| 20260510022648 | 50 | 0 | 0.0 | 0.0 | 0.00 | 0.15 | 0.15 | 94 | 1008.1 |
| 20260510022641 | 50 | 0 | 0.0 | 0.0 | 0.00 | 0.15 | 0.15 | 94 | 1008.1 |
| 20260510022540 | 50 | 0 | 0.0 | 0.0 | 0.00 | 0.15 | 0.15 | 94 | 1008.1 |
| 20260510022530 | 50 | 0 | 0.0 | 0.0 | 0.00 | 0.15 | 0.15 | 94 | 1008.1 |
| 20260510022517 | 50 | 360 | 0.0 | 0.0 | 0.00 | 0.15 | 0.15 | 94 | 1008.2 |
| 20260510022339 | 50 | 0 | 0.0 | 0.0 | 0.00 | 0.15 | 0.15 | 94 | 1008.1 |
| 20260510022239 | 50 | 0 | 0.0 | 0.0 | 0.00 | 0.15 | 0.15 | 94 | 1008.1 |
| 20260510022147 | 50 | 0 | 0.0 | 0.0 | 0.00 | 0.15 | 0.15 | 93 | 1008.1 |
| 20260510022139 | 50 | 0 | 0.0 | 0.0 | 0.00 | 0.15 | 0.15 | 93 | 1008.1 |
| 20260510022040 | 50 | 0 | 0.0 | 0.0 | 0.00 | 0.15 | 0.15 | 93 | 1008.0 |
| 20260510022031 | 50 | 0 | 0.0 | 0.0 | 0.00 | 0.15 | 0.15 | 93 | 1008.1 |
| 20260510022017 | 50 | 360 | 0.0 | 0.0 | 0.00 | 0.15 | 0.15 | 93 | 1008.2 |
| 20260510021837 | 50 | 0 | 0.0 | 0.0 | 0.00 | 0.15 | 0.15 | 94 | 1008.0 |
| 20260510021737 | 50 | 0 | 0.0 | 0.0 | 0.00 | 0.15 | 0.15 | 93 | 1008.0 |
| 20260510021636 | 50 | 0 | 0.0 | 0.0 | 0.00 | 0.15 | 0.15 | 94 | 1008.0 |
| 20260510021535 | 50 | 0 | 0.0 | 0.0 | 0.00 | 0.15 | 0.15 | 94 | 1008.0 |
| 20260510021517 | 50 | 360 | 0.0 | 0.0 | 0.00 | 0.15 | 0.15 | 94 | 1008.2 |
| 20260510021426 | 50 | 0 | 0.0 | 0.0 | 0.00 | 0.15 | 0.15 | 94 | 1008.1 |
| 20260510021333 | 50 | 0 | 0.0 | 0.0 | 0.00 | 0.15 | 0.15 | 94 | 1008.0 |
| 20260510021232 | 50 | 0 | 0.0 | 0.0 | 0.00 | 0.15 | 0.15 | 94 | 1008.0 |
| 20260510021132 | 50 | 0 | 0.0 | 0.0 | 0.00 | 0.15 | 0.15 | 94 | 1008.1 |
| 20260510021032 | 50 | 0 | 0.0 | 0.0 | 0.00 | 0.15 | 0.15 | 94 | 1008.1 |
| 20260510021017 | 50 | 360 | 0.0 | 0.0 | 0.00 | 0.15 | 0.15 | 94 | 1008.2 |
| 20260510020926 | 50 | 0 | 0.0 | 0.0 | 0.00 | 0.15 | 0.15 | 94 | 1008.1 |
| 20260510020831 | 50 | 0 | 0.0 | 0.0 | 0.00 | 0.15 | 0.15 | 94 | 1008.1 |
| 20260510020729 | 50 | 0 | 0.0 | 0.0 | 0.00 | 0.15 | 0.15 | 94 | 1008.0 |
| 20260510020629 | 50 | 0 | 0.0 | 0.0 | 0.00 | 0.15 | 0.15 | 93 | 1008.1 |
| 20260510020529 | 51 | 0 | 0.0 | 0.0 | 0.00 | 0.15 | 0.15 | 93 | 1008.0 |
| 20260510020517 | 51 | 360 | 0.0 | 0.0 | 0.00 | 0.15 | 0.15 | 93 | 1008.2 |
| 20260510020424 | 51 | 0 | 0.0 | 0.0 | 0.00 | 0.15 | 0.15 | 93 | 1008.1 |
| 20260510020328 | 51 | 0 | 0.0 | 0.0 | 0.00 | 0.15 | 0.15 | 93 | 1008.1 |
| 20260510020227 | 51 | 0 | 0.0 | 0.0 | 0.00 | 0.15 | 0.15 | 93 | 1008.0 |
| 20260510020127 | 51 | 0 | 0.0 | 0.0 | 0.00 | 0.15 | 0.15 | 93 | 1008.1 |
| 20260510020032 | 51 | 360 | 0.0 | 0.0 | 0.00 | 0.15 | 0.15 | 93 | 1008.1 |
| 20260510020027 | 51 | 0 | 0.0 | 0.0 | 0.00 | 0.15 | 0.15 | 93 | 1008.0 |
| 20260510015925 | 51 | 0 | 0.0 | 0.0 | 0.00 | 0.15 | 0.15 | 93 | 1008.0 |
| 20260510015839 | 51 | 0 | 0.0 | 0.0 | 0.00 | 0.15 | 0.15 | 93 | 1008.0 |
| 20260510015834 | 51 | 0 | 0.0 | 0.0 | 0.00 | 0.15 | 0.15 | 93 | 1008.1 |
| 20260510015625 | 51 | 0 | 0.0 | 0.0 | 0.00 | 0.15 | 0.15 | 93 | 1008.0 |
| 20260510015525 | 51 | 0 | 0.0 | 0.0 | 0.00 | 0.15 | 0.15 | 93 | 1008.0 |
| 20260510015517 | 51 | 360 | 0.0 | 0.0 | 0.00 | 0.15 | 0.15 | 93 | 1008.1 |
| 20260510015447 | 51 | 0 | 0.0 | 0.0 | 0.00 | 0.15 | 0.15 | 93 | 1008.0 |
| 20260510015332 | 51 | 0 | 0.0 | 0.0 | 0.00 | 0.15 | 0.15 | 93 | 1007.9 |
| 20260510015123 | 51 | 0 | 0.0 | 0.0 | 0.00 | 0.15 | 0.15 | 93 | 1007.9 |
| 20260510015032 | 51 | 360 | 0.0 | 0.0 | 0.00 | 0.15 | 0.15 | 93 | 1008.0 |
| 20260510015022 | 51 | 0 | 0.0 | 0.0 | 0.00 | 0.15 | 0.15 | 93 | 1007.9 |
| 20260510014920 | 51 | 0 | 0.0 | 0.0 | 0.00 | 0.15 | 0.15 | 93 | 1008.0 |
| 20260510014821 | 51 | 0 | 0.0 | 0.0 | 0.00 | 0.15 | 0.15 | 93 | 1008.0 |
| 20260510014718 | 51 | 0 | 0.0 | 0.0 | 0.00 | 0.15 | 0.15 | 93 | 1007.9 |
| 20260510014618 | 51 | 0 | 0.0 | 0.0 | 0.00 | 0.15 | 0.15 | 93 | 1007.9 |
| 20260510014536 | 51 | 0 | 0.0 | 0.0 | 0.00 | 0.15 | 0.15 | 93 | 1008.0 |
| 20260510014531 | 51 | 0 | 0.0 | 0.0 | 0.00 | 0.15 | 0.15 | 93 | 1008.0 |
| 20260510014517 | 51 | 360 | 0.0 | 0.0 | 0.00 | 0.15 | 0.15 | 93 | 1008.0 |
| 20260510014417 | 51 | 0 | 0.0 | 0.0 | 0.00 | 0.15 | 0.15 | 93 | 1008.0 |
| 20260510014318 | 51 | 0 | 0.0 | 0.0 | 0.00 | 0.15 | 0.15 | 93 | 1008.0 |
| 20260510014217 | 51 | 0 | 0.0 | 0.0 | 0.00 | 0.15 | 0.15 | 93 | 1008.0 |
| 20260510014116 | 51 | 0 | 0.0 | 0.0 | 0.00 | 0.15 | 0.15 | 93 | 1008.0 |
| 20260510014017 | 51 | 360 | 0.0 | 0.0 | 0.00 | 0.15 | 0.15 | 93 | 1008.1 |
| 20260510013917 | 51 | 0 | 0.0 | 0.0 | 0.00 | 0.15 | 0.15 | 93 | 1008.1 |
| 20260510013815 | 51 | 0 | 0.0 | 0.0 | 0.00 | 0.15 | 0.15 | 93 | 1008.1 |
| 20260510013715 | 51 | 0 | 0.0 | 0.0 | 0.00 | 0.15 | 0.15 | 93 | 1008.1 |
| 20260510013614 | 51 | 0 | 0.0 | 0.0 | 0.00 | 0.15 | 0.15 | 93 | 1008.1 |
| 20260510013518 | 52 | 360 | 0.0 | 0.0 | 0.00 | 0.15 | 0.15 | 93 | 1008.0 |
| 20260510013514 | 51 | 0 | 0.0 | 0.0 | 0.00 | 0.15 | 0.15 | 93 | 1008.1 |
| 20260510013413 | 51 | 0 | 0.0 | 0.0 | 0.00 | 0.15 | 0.15 | 93 | 1008.0 |
| 20260510013327 | 52 | 0 | 0.0 | 0.0 | 0.00 | 0.15 | 0.15 | 93 | 1008.0 |
| 20260510013322 | 51 | 0 | 0.0 | 0.0 | 0.00 | 0.15 | 0.15 | 93 | 1008.1 |
| 20260510013112 | 52 | 0 | 0.0 | 0.0 | 0.00 | 0.15 | 0.15 | 93 | 1008.0 |
| 20260510013018 | 52 | 360 | 0.0 | 0.0 | 0.00 | 0.15 | 0.15 | 93 | 1008.0 |
| 20260510013012 | 52 | 0 | 0.0 | 0.0 | 0.00 | 0.15 | 0.15 | 93 | 1008.0 |
| 20260510012911 | 52 | 0 | 0.0 | 0.0 | 0.00 | 0.15 | 0.15 | 93 | 1008.0 |
| 20260510012811 | 52 | 0 | 0.0 | 0.0 | 0.00 | 0.15 | 0.15 | 93 | 1008.0 |
| 20260510012723 | 52 | 0 | 0.0 | 0.0 | 0.00 | 0.15 | 0.15 | 93 | 1008.0 |
| 20260510012718 | 52 | 0 | 0.0 | 0.0 | 0.00 | 0.15 | 0.15 | 93 | 1008.0 |
| 20260510012517 | 52 | 360 | 0.0 | 0.0 | 0.00 | 0.15 | 0.15 | 93 | 1007.9 |
| 20260510012508 | 52 | 0 | 0.0 | 0.0 | 0.00 | 0.15 | 0.15 | 93 | 1007.9 |
| 20260510012408 | 52 | 0 | 0.0 | 0.0 | 0.00 | 0.15 | 0.15 | 93 | 1007.9 |
| 20260510012308 | 52 | 0 | 0.0 | 0.0 | 0.00 | 0.15 | 0.15 | 93 | 1007.9 |
| 20260510012207 | 52 | 0 | 0.0 | 0.0 | 0.00 | 0.15 | 0.15 | 93 | 1007.9 |
| 20260510012106 | 52 | 0 | 0.0 | 0.0 | 0.00 | 0.15 | 0.15 | 93 | 1007.9 |
| 20260510012017 | 52 | 360 | 0.0 | 0.0 | 0.00 | 0.15 | 0.15 | 93 | 1008.0 |
| 20260510012005 | 52 | 0 | 0.0 | 0.0 | 0.00 | 0.15 | 0.15 | 93 | 1008.0 |
| 20260510011905 | 52 | 0 | 0.0 | 0.0 | 0.00 | 0.15 | 0.15 | 93 | 1008.0 |
| 20260510011805 | 52 | 0 | 0.0 | 0.0 | 0.00 | 0.15 | 0.15 | 93 | 1008.0 |
| 20260510011704 | 52 | 0 | 0.0 | 0.0 | 0.00 | 0.15 | 0.15 | 93 | 1008.0 |
| 20260510011604 | 52 | 0 | 0.0 | 0.0 | 0.00 | 0.15 | 0.15 | 93 | 1008.0 |
| 20260510011517 | 52 | 360 | 0.0 | 0.0 | 0.00 | 0.15 | 0.15 | 93 | 1008.0 |
| 20260510011501 | 52 | 0 | 0.0 | 0.0 | 0.00 | 0.15 | 0.15 | 93 | 1008.0 |
| 20260510011415 | 53 | 0 | 0.0 | 0.0 | 0.00 | 0.15 | 0.15 | 93 | 1007.9 |
| 20260510011401 | 52 | 0 | 0.0 | 0.0 | 0.00 | 0.15 | 0.15 | 93 | 1007.9 |
| 20260510011301 | 53 | 0 | 0.0 | 0.0 | 0.00 | 0.15 | 0.15 | 93 | 1007.9 |
| 20260510011200 | 53 | 0 | 0.0 | 0.0 | 0.00 | 0.15 | 0.15 | 93 | 1007.9 |
| 20260510011102 | 53 | 0 | 0.0 | 0.0 | 0.00 | 0.15 | 0.15 | 93 | 1007.9 |
| 20260510011017 | 53 | 360 | 0.0 | 0.0 | 0.00 | 0.15 | 0.15 | 93 | 1007.9 |
| 20260510011002 | 53 | 0 | 0.0 | 0.0 | 0.00 | 0.15 | 0.15 | 93 | 1007.9 |
| 20260510010901 | 53 | 0 | 0.0 | 0.0 | 0.00 | 0.15 | 0.15 | 93 | 1007.9 |
| 20260510010801 | 53 | 0 | 0.0 | 0.0 | 0.00 | 0.15 | 0.15 | 93 | 1007.9 |
| 20260510010701 | 53 | 0 | 0.0 | 0.0 | 0.00 | 0.15 | 0.15 | 93 | 1007.9 |
| 20260510010634 | 53 | 0 | 0.0 | 0.0 | 0.00 | 0.15 | 0.15 | 92 | 1007.8 |
| 20260510010600 | 53 | 0 | 0.0 | 0.0 | 0.00 | 0.15 | 0.15 | 93 | 1007.8 |
| 20260510010532 | 53 | 0 | 0.0 | 0.0 | 0.00 | 0.15 | 0.15 | 92 | 1007.8 |
| 20260510010524 | 53 | 0 | 0.0 | 0.0 | 0.00 | 0.15 | 0.15 | 92 | 1007.8 |
| 20260510010517 | 53 | 360 | 0.0 | 0.0 | 0.00 | 0.15 | 0.15 | 93 | 1007.8 |
| 20260510010409 | 53 | 0 | 0.0 | 0.0 | 0.00 | 0.15 | 0.15 | 92 | 1007.8 |
| 20260510010200 | 53 | 0 | 0.0 | 0.0 | 0.00 | 0.15 | 0.15 | 92 | 1007.8 |
| 20260510010059 | 53 | 0 | 0.0 | 0.0 | 0.00 | 0.15 | 0.15 | 92 | 1007.8 |
| 20260510010017 | 53 | 360 | 0.0 | 0.0 | 0.00 | 0.15 | 0.15 | 92 | 1007.7 |
| 20260510005958 | 53 | 0 | 0.0 | 0.0 | 0.00 | 0.15 | 0.15 | 92 | 1007.7 |
| 20260510005912 | 53 | 0 | 0.0 | 0.0 | 0.00 | 0.15 | 0.15 | 92 | 1007.7 |
| 20260510005857 | 53 | 0 | 0.0 | 0.0 | 0.00 | 0.15 | 0.15 | 92 | 1007.7 |
| 20260510005757 | 53 | 0 | 0.0 | 0.0 | 0.00 | 0.15 | 0.15 | 92 | 1007.7 |
| 20260510005656 | 53 | 0 | 0.0 | 0.0 | 0.00 | 0.15 | 0.15 | 92 | 1007.7 |
| 20260510005633 | 53 | 0 | 0.0 | 0.0 | 0.00 | 0.15 | 0.15 | 92 | 1007.6 |
| 20260510005555 | 53 | 0 | 0.0 | 0.0 | 0.00 | 0.15 | 0.15 | 92 | 1007.6 |
| 20260510005520 | 53 | 0 | 0.0 | 0.0 | 0.00 | 0.15 | 0.15 | 92 | 1007.6 |
| 20260510005517 | 53 | 360 | 0.0 | 0.0 | 0.00 | 0.15 | 0.15 | 92 | 1007.6 |
| 20260510005353 | 53 | 0 | 0.0 | 0.0 | 0.00 | 0.15 | 0.15 | 92 | 1007.6 |
| 20260510005253 | 53 | 0 | 0.0 | 0.0 | 0.00 | 0.15 | 0.15 | 92 | 1007.6 |
| 20260510005152 | 53 | 0 | 0.0 | 0.0 | 0.00 | 0.15 | 0.15 | 92 | 1007.6 |
| 20260510005052 | 53 | 0 | 0.0 | 0.0 | 0.00 | 0.15 | 0.15 | 92 | 1007.6 |
| 20260510005047 | 53 | 360 | 0.0 | 0.0 | 0.00 | 0.15 | 0.15 | 92 | 1007.6 |
| 20260510004952 | 53 | 0 | 0.0 | 0.0 | 0.00 | 0.15 | 0.15 | 92 | 1007.6 |
| 20260510004913 | 53 | 0 | 0.0 | 0.0 | 0.00 | 0.15 | 0.15 | 92 | 1007.5 |
| 20260510004849 | 53 | 0 | 0.0 | 0.0 | 0.00 | 0.15 | 0.15 | 92 | 1007.5 |
| 20260510004749 | 53 | 0 | 0.0 | 0.0 | 0.00 | 0.15 | 0.15 | 92 | 1007.5 |
| 20260510004701 | 53 | 0 | 0.0 | 0.0 | 0.00 | 0.15 | 0.15 | 92 | 1007.5 |
| 20260510004657 | 53 | 0 | 0.0 | 0.0 | 0.00 | 0.15 | 0.15 | 92 | 1007.5 |
| 20260510004517 | 54 | 360 | 0.0 | 0.0 | 0.00 | 0.15 | 0.15 | 92 | 1007.5 |
| 20260510004506 | 54 | 0 | 0.0 | 0.0 | 0.00 | 0.15 | 0.15 | 92 | 1007.5 |
| 20260510004455 | 54 | 0 | 0.0 | 0.0 | 0.00 | 0.15 | 0.15 | 92 | 1007.5 |
| 20260510004247 | 54 | 0 | 0.0 | 0.0 | 0.00 | 0.15 | 0.15 | 92 | 1007.5 |
| 20260510004146 | 54 | 0 | 0.0 | 0.0 | 0.00 | 0.15 | 0.15 | 91 | 1007.5 |
| 20260510004045 | 54 | 0 | 0.0 | 0.0 | 0.00 | 0.15 | 0.15 | 91 | 1007.5 |
| 20260510004017 | 54 | 360 | 0.0 | 0.0 | 0.00 | 0.15 | 0.15 | 91 | 1007.5 |
| 20260510003945 | 54 | 0 | 0.0 | 0.0 | 0.00 | 0.15 | 0.15 | 91 | 1007.5 |
| 20260510003913 | 54 | 0 | 0.0 | 0.0 | 0.00 | 0.15 | 0.15 | 91 | 1007.5 |
| 20260510003844 | 54 | 0 | 0.0 | 0.0 | 0.00 | 0.15 | 0.15 | 91 | 1007.5 |
| 20260510003744 | 54 | 0 | 0.0 | 0.0 | 0.00 | 0.15 | 0.15 | 91 | 1007.5 |
| 20260510003641 | 54 | 0 | 0.0 | 0.0 | 0.00 | 0.15 | 0.15 | 91 | 1007.5 |
| 20260510003541 | 54 | 0 | 0.0 | 0.0 | 0.00 | 0.15 | 0.15 | 91 | 1007.5 |
| 20260510003517 | 54 | 360 | 0.0 | 0.0 | 0.00 | 0.15 | 0.15 | 91 | 1007.4 |
| 20260510003441 | 54 | 0 | 0.0 | 0.0 | 0.00 | 0.15 | 0.15 | 91 | 1007.4 |
| 20260510003412 | 54 | 0 | 0.0 | 0.0 | 0.00 | 0.15 | 0.15 | 91 | 1007.5 |
| 20260510003340 | 54 | 0 | 0.0 | 0.0 | 0.00 | 0.15 | 0.15 | 91 | 1007.5 |
| 20260510003240 | 54 | 0 | 0.0 | 0.0 | 0.00 | 0.15 | 0.15 | 91 | 1007.5 |
| 20260510003140 | 54 | 0 | 0.0 | 0.0 | 0.00 | 0.15 | 0.15 | 91 | 1007.5 |
| 20260510003039 | 54 | 0 | 0.0 | 0.0 | 0.00 | 0.15 | 0.15 | 91 | 1007.5 |
| 20260510003018 | 54 | 360 | 0.0 | 0.0 | 0.00 | 0.15 | 0.15 | 91 | 1007.5 |
| 20260510002910 | 54 | 0 | 0.0 | 0.0 | 0.00 | 0.15 | 0.15 | 91 | 1007.5 |
| 20260510002838 | 54 | 0 | 0.0 | 0.0 | 0.00 | 0.15 | 0.15 | 91 | 1007.5 |
| 20260510002738 | 54 | 0 | 0.0 | 0.0 | 0.00 | 0.15 | 0.15 | 91 | 1007.5 |
| 20260510002637 | 54 | 0 | 0.0 | 0.0 | 0.00 | 0.15 | 0.15 | 91 | 1007.6 |
| 20260510002537 | 55 | 0 | 0.0 | 0.0 | 0.00 | 0.15 | 0.15 | 91 | 1007.5 |
| 20260510002517 | 55 | 360 | 0.0 | 0.0 | 0.00 | 0.15 | 0.15 | 91 | 1007.5 |
| 20260510002409 | 55 | 0 | 0.0 | 0.0 | 0.00 | 0.15 | 0.15 | 91 | 1007.5 |
| 20260510002336 | 55 | 0 | 0.0 | 0.0 | 0.00 | 0.15 | 0.15 | 91 | 1007.5 |
| 20260510002236 | 55 | 0 | 0.0 | 0.0 | 0.00 | 0.15 | 0.15 | 91 | 1007.5 |
| 20260510002135 | 55 | 0 | 0.0 | 0.0 | 0.00 | 0.15 | 0.15 | 91 | 1007.5 |
| 20260510002034 | 55 | 0 | 0.0 | 0.0 | 0.00 | 0.15 | 0.15 | 91 | 1007.5 |
| 20260510002017 | 55 | 360 | 0.0 | 0.0 | 0.00 | 0.15 | 0.15 | 91 | 1007.5 |
| 20260510001907 | 55 | 0 | 0.0 | 0.0 | 0.00 | 0.15 | 0.15 | 91 | 1007.5 |
| 20260510001834 | 55 | 0 | 0.0 | 0.0 | 0.00 | 0.15 | 0.15 | 91 | 1007.5 |
| 20260510001734 | 55 | 0 | 0.0 | 0.0 | 0.00 | 0.15 | 0.15 | 91 | 1007.5 |
| 20260510001634 | 55 | 0 | 0.0 | 0.0 | 0.00 | 0.15 | 0.15 | 91 | 1007.5 |
| 20260510001533 | 55 | 0 | 0.0 | 0.0 | 0.00 | 0.15 | 0.15 | 91 | 1007.4 |
| 20260510001517 | 55 | 360 | 0.0 | 0.0 | 0.00 | 0.15 | 0.15 | 91 | 1007.4 |
| 20260510001454 | 55 | 0 | 0.0 | 0.0 | 0.00 | 0.15 | 0.15 | 91 | 1007.4 |
| 20260510001340 | 55 | 0 | 0.0 | 0.0 | 0.00 | 0.15 | 0.15 | 91 | 1007.4 |
| 20260510001131 | 55 | 0 | 0.0 | 0.0 | 0.00 | 0.15 | 0.15 | 91 | 1007.3 |
| 20260510001030 | 55 | 0 | 0.0 | 0.0 | 0.00 | 0.15 | 0.15 | 91 | 1007.4 |
| 20260510001017 | 55 | 360 | 0.0 | 0.0 | 0.00 | 0.15 | 0.15 | 91 | 1007.3 |
| 20260510000930 | 55 | 0 | 0.0 | 0.0 | 0.00 | 0.15 | 0.15 | 91 | 1007.3 |
| 20260510000904 | 55 | 0 | 0.0 | 0.0 | 0.00 | 0.15 | 0.15 | 91 | 1007.4 |
| 20260510000830 | 55 | 0 | 0.0 | 0.0 | 0.00 | 0.15 | 0.15 | 91 | 1007.4 |
| 20260510000729 | 55 | 0 | 0.0 | 0.0 | 0.00 | 0.15 | 0.15 | 91 | 1007.4 |
| 20260510000629 | 55 | 0 | 0.0 | 0.0 | 0.00 | 0.15 | 0.15 | 91 | 1007.4 |
| 20260510000529 | 55 | 0 | 0.0 | 0.0 | 0.00 | 0.15 | 0.15 | 91 | 1007.4 |
| 20260510000517 | 55 | 360 | 0.0 | 0.0 | 0.00 | 0.15 | 0.15 | 91 | 1007.4 |
| 20260510000427 | 55 | 0 | 0.0 | 0.0 | 0.00 | 0.15 | 0.15 | 91 | 1007.4 |
| 20260510000403 | 55 | 0 | 0.0 | 0.0 | 0.00 | 0.15 | 0.15 | 90 | 1007.4 |
| 20260510000327 | 55 | 0 | 0.0 | 0.0 | 0.00 | 0.15 | 0.15 | 90 | 1007.4 |
| 20260510000227 | 55 | 0 | 0.0 | 0.0 | 0.00 | 0.15 | 0.15 | 90 | 1007.3 |
| 20260510000138 | 55 | 0 | 0.0 | 0.0 | 0.00 | 0.15 | 0.15 | 90 | 1007.4 |
| 20260510000134 | 55 | 0 | 0.0 | 0.0 | 0.00 | 0.15 | 0.15 | 90 | 1007.4 |
| 20260510000017 | 55 | 360 | 0.0 | 0.0 | 0.00 | 0.15 | 0.15 | 90 | 1007.4 |
| 20260509235945 | 55 | 0 | 0.0 | 0.0 | 0.00 | 0.15 | 0.15 | 90 | 1007.4 |
| 20260509235939 | 55 | 0 | 0.0 | 0.0 | 0.00 | 0.15 | 0.15 | 90 | 1007.4 |
| 20260509235826 | 55 | 0 | 0.0 | 0.0 | 0.00 | 0.15 | 0.15 | 90 | 1007.4 |
| 20260509235822 | 56 | 0 | 0.0 | 0.0 | 0.00 | 0.15 | 0.15 | 90 | 1007.3 |
| 20260509235816 | 56 | 0 | 0.0 | 0.0 | 0.00 | 0.15 | 0.15 | 90 | 1007.3 |
| 20260509235812 | 56 | 0 | 0.0 | 0.0 | 0.00 | 0.15 | 0.15 | 90 | 1007.3 |
| 20260509235804 | 55 | 0 | 0.0 | 0.0 | 0.00 | 0.15 | 0.15 | 90 | 1007.4 |
| 20260509235532 | 56 | 360 | 0.0 | 0.0 | 0.00 | 0.15 | 0.15 | 90 | 1007.3 |
| 20260509235431 | 56 | 0 | 0.0 | 0.0 | 0.00 | 0.15 | 0.15 | 90 | 1007.3 |
| 20260509235221 | 56 | 0 | 0.0 | 0.0 | 0.00 | 0.15 | 0.15 | 90 | 1007.3 |
| 20260509235119 | 56 | 0 | 0.0 | 0.0 | 0.00 | 0.15 | 0.15 | 90 | 1007.4 |
| 20260509235018 | 56 | 0 | 0.0 | 0.0 | 0.00 | 0.15 | 0.15 | 90 | 1007.3 |
| 20260509234919 | 56 | 0 | 0.0 | 0.0 | 0.00 | 0.15 | 0.15 | 90 | 1007.3 |
| 20260509234859 | 56 | 0 | 0.0 | 0.0 | 0.00 | 0.15 | 0.15 | 90 | 1007.4 |
| 20260509234819 | 56 | 0 | 0.0 | 0.0 | 0.00 | 0.15 | 0.15 | 90 | 1007.4 |
| 20260509234718 | 56 | 0 | 0.0 | 0.0 | 0.00 | 0.15 | 0.15 | 90 | 1007.3 |
| 20260509234618 | 56 | 0 | 0.0 | 0.0 | 0.00 | 0.15 | 0.15 | 90 | 1007.4 |
| 20260509234517 | 56 | 360 | 0.0 | 0.0 | 0.00 | 0.15 | 0.15 | 90 | 1007.4 |
| 20260509234417 | 56 | 0 | 0.0 | 0.0 | 0.00 | 0.15 | 0.15 | 90 | 1007.4 |
| 20260509234359 | 56 | 0 | 0.0 | 0.0 | 0.00 | 0.15 | 0.15 | 90 | 1007.4 |
| 20260509234314 | 56 | 0 | 0.0 | 0.0 | 0.00 | 0.15 | 0.15 | 90 | 1007.4 |
| 20260509234214 | 56 | 0 | 0.0 | 0.0 | 0.00 | 0.15 | 0.15 | 90 | 1007.4 |
| 20260509234113 | 56 | 0 | 0.0 | 0.0 | 0.00 | 0.15 | 0.15 | 90 | 1007.4 |
| 20260509234026 | 56 | 0 | 0.0 | 0.0 | 0.00 | 0.15 | 0.15 | 90 | 1007.5 |
| 20260509234022 | 56 | 0 | 0.0 | 0.0 | 0.00 | 0.15 | 0.15 | 90 | 1007.4 |
| 20260509234017 | 56 | 360 | 0.0 | 0.0 | 0.00 | 0.15 | 0.15 | 90 | 1007.4 |
| 20260509233859 | 56 | 0 | 0.0 | 0.0 | 0.00 | 0.15 | 0.15 | 90 | 1007.5 |
| 20260509233811 | 56 | 0 | 0.0 | 0.0 | 0.00 | 0.15 | 0.15 | 90 | 1007.4 |
| 20260509233711 | 56 | 0 | 0.0 | 0.0 | 0.00 | 0.15 | 0.15 | 90 | 1007.5 |
| 20260509233611 | 56 | 0 | 0.0 | 0.0 | 0.00 | 0.15 | 0.15 | 90 | 1007.4 |
| 20260509233517 | 56 | 360 | 0.0 | 0.0 | 0.00 | 0.15 | 0.15 | 90 | 1007.4 |
| 20260509233510 | 56 | 0 | 0.0 | 0.0 | 0.00 | 0.15 | 0.15 | 90 | 1007.4 |
| 20260509233426 | 56 | 0 | 0.0 | 0.0 | 0.00 | 0.15 | 0.15 | 89 | 1007.4 |
| 20260509233422 | 56 | 0 | 0.0 | 0.0 | 0.00 | 0.15 | 0.15 | 89 | 1007.5 |
| 20260509233416 | 56 | 0 | 0.0 | 0.0 | 0.00 | 0.15 | 0.15 | 89 | 1007.5 |
| 20260509233207 | 56 | 0 | 0.0 | 0.0 | 0.00 | 0.15 | 0.15 | 89 | 1007.5 |
| 20260509233105 | 56 | 0 | 0.0 | 0.0 | 0.00 | 0.15 | 0.15 | 89 | 1007.5 |
| 20260509233017 | 56 | 360 | 0.0 | 0.0 | 0.00 | 0.15 | 0.15 | 89 | 1007.5 |
| 20260509233005 | 56 | 0 | 0.0 | 0.0 | 0.00 | 0.15 | 0.15 | 89 | 1007.5 |
| 20260509232905 | 56 | 0 | 0.0 | 0.0 | 0.00 | 0.15 | 0.15 | 89 | 1007.5 |
| 20260509232858 | 56 | 0 | 0.0 | 0.0 | 0.00 | 0.15 | 0.15 | 89 | 1007.5 |
| 20260509232804 | 56 | 0 | 0.0 | 0.0 | 0.00 | 0.15 | 0.15 | 89 | 1007.5 |
| 20260509232704 | 56 | 0 | 0.0 | 0.0 | 0.00 | 0.15 | 0.15 | 89 | 1007.5 |
| 20260509232602 | 56 | 0 | 0.0 | 0.0 | 0.00 | 0.15 | 0.15 | 89 | 1007.4 |
| 20260509232517 | 56 | 360 | 0.0 | 0.0 | 0.00 | 0.15 | 0.15 | 89 | 1007.4 |
| 20260509232502 | 56 | 0 | 0.0 | 0.0 | 0.00 | 0.15 | 0.15 | 89 | 1007.4 |
| 20260509232401 | 56 | 0 | 0.0 | 0.0 | 0.00 | 0.15 | 0.15 | 89 | 1007.4 |
| 20260509232354 | 56 | 0 | 0.0 | 0.0 | 0.00 | 0.15 | 0.15 | 89 | 1007.4 |
| 20260509232300 | 56 | 0 | 0.0 | 0.0 | 0.00 | 0.15 | 0.15 | 89 | 1007.4 |
| 20260509232200 | 56 | 0 | 0.0 | 0.0 | 0.00 | 0.15 | 0.15 | 89 | 1007.4 |
| 20260509232059 | 56 | 0 | 0.0 | 0.0 | 0.00 | 0.15 | 0.15 | 89 | 1007.4 |
| 20260509232032 | 56 | 360 | 0.0 | 0.0 | 0.00 | 0.15 | 0.15 | 89 | 1007.4 |
| 20260509231959 | 56 | 0 | 0.0 | 0.0 | 0.00 | 0.15 | 0.15 | 89 | 1007.4 |
| 20260509231853 | 56 | 0 | 0.0 | 0.0 | 0.00 | 0.15 | 0.15 | 89 | 1007.4 |
| 20260509231758 | 56 | 0 | 0.0 | 0.0 | 0.00 | 0.15 | 0.15 | 89 | 1007.3 |
| 20260509231658 | 56 | 0 | 0.0 | 0.0 | 0.00 | 0.15 | 0.15 | 89 | 1007.4 |
| 20260509231558 | 56 | 0 | 0.0 | 0.0 | 0.00 | 0.15 | 0.15 | 89 | 1007.4 |
| 20260509231517 | 56 | 360 | 0.0 | 0.0 | 0.00 | 0.15 | 0.15 | 89 | 1007.4 |
| 20260509231509 | 56 | 0 | 0.0 | 0.0 | 0.00 | 0.15 | 0.15 | 90 | 1007.4 |
| 20260509231505 | 56 | 0 | 0.0 | 0.0 | 0.00 | 0.15 | 0.15 | 89 | 1007.4 |
| 20260509231352 | 56 | 0 | 0.0 | 0.0 | 0.00 | 0.15 | 0.15 | 90 | 1007.4 |
| 20260509231256 | 56 | 0 | 0.0 | 0.0 | 0.00 | 0.15 | 0.15 | 90 | 1007.4 |
| 20260509231155 | 56 | 0 | 0.0 | 0.0 | 0.00 | 0.15 | 0.15 | 90 | 1007.4 |
| 20260509231054 | 56 | 0 | 0.0 | 0.0 | 0.00 | 0.15 | 0.15 | 90 | 1007.4 |
| 20260509231017 | 56 | 360 | 0.0 | 0.0 | 0.00 | 0.15 | 0.15 | 89 | 1007.4 |
| 20260509230954 | 56 | 0 | 0.0 | 0.0 | 0.00 | 0.15 | 0.15 | 89 | 1007.4 |
| 20260509230849 | 56 | 0 | 0.0 | 0.0 | 0.00 | 0.15 | 0.15 | 89 | 1007.4 |
| 20260509230753 | 56 | 0 | 0.0 | 0.0 | 0.00 | 0.15 | 0.15 | 89 | 1007.4 |
| 20260509230653 | 56 | 0 | 0.0 | 0.0 | 0.00 | 0.15 | 0.15 | 89 | 1007.4 |
| 20260509230553 | 56 | 0 | 0.0 | 1.0 | 0.00 | 0.15 | 0.15 | 89 | 1007.4 |
| 20260509230517 | 56 | 360 | 0.0 | 1.0 | 0.00 | 0.15 | 0.15 | 89 | 1007.4 |
| 20260509230506 | 56 | 0 | 0.0 | 1.0 | 0.00 | 0.15 | 0.15 | 89 | 1007.3 |
| 20260509230502 | 56 | 0 | 0.0 | 1.0 | 0.00 | 0.15 | 0.15 | 89 | 1007.4 |
| 20260509230347 | 56 | 0 | 0.0 | 1.0 | 0.00 | 0.15 | 0.15 | 89 | 1007.3 |
| 20260509230251 | 56 | 0 | 0.0 | 1.0 | 0.00 | 0.15 | 0.15 | 89 | 1007.3 |
| 20260509230150 | 56 | 0 | 0.0 | 1.0 | 0.00 | 0.15 | 0.15 | 89 | 1007.3 |
| 20260509230050 | 56 | 0 | 0.0 | 1.0 | 0.00 | 0.15 | 0.15 | 89 | 1007.3 |
| 20260509230017 | 57 | 360 | 0.0 | 1.0 | 0.00 | 0.15 | 0.15 | 89 | 1007.3 |
| 20260509225950 | 56 | 0 | 0.0 | 1.0 | 0.00 | 0.15 | 0.15 | 89 | 1007.3 |
| 20260509225846 | 57 | 0 | 0.0 | 4.0 | 0.00 | 0.15 | 0.15 | 89 | 1007.4 |
| 20260509225748 | 57 | 0 | 0.0 | 4.0 | 0.00 | 0.15 | 0.15 | 89 | 1007.4 |
| 20260509225648 | 57 | 0 | 0.0 | 4.0 | 0.00 | 0.15 | 0.15 | 89 | 1007.4 |
| 20260509225601 | 57 | 0 | 0.0 | 4.0 | 0.00 | 0.15 | 0.15 | 90 | 1007.4 |
| 20260509225557 | 57 | 0 | 0.0 | 4.0 | 0.00 | 0.15 | 0.15 | 89 | 1007.4 |
| 20260509225517 | 57 | 360 | 0.0 | 4.0 | 0.00 | 0.15 | 0.15 | 89 | 1007.3 |
| 20260509225405 | 57 | 0 | 0.0 | 4.0 | 0.00 | 0.15 | 0.15 | 90 | 1007.4 |
| 20260509225356 | 57 | 0 | 0.0 | 4.0 | 0.00 | 0.15 | 0.15 | 90 | 1007.5 |
| 20260509225145 | 57 | 0 | 0.0 | 4.0 | 0.00 | 0.15 | 0.15 | 90 | 1007.5 |
| 20260509225045 | 57 | 0 | 0.0 | 4.0 | 0.00 | 0.15 | 0.15 | 90 | 1007.5 |
| 20260509225017 | 57 | 360 | 0.0 | 4.0 | 0.00 | 0.15 | 0.15 | 90 | 1007.4 |
| 20260509224945 | 57 | 0 | 0.0 | 4.0 | 0.00 | 0.15 | 0.15 | 91 | 1007.5 |
| 20260509224845 | 57 | 0 | 0.0 | 0.0 | 0.00 | 0.15 | 0.15 | 91 | 1007.4 |
| 20260509224742 | 57 | 0 | 0.0 | 0.0 | 0.00 | 0.15 | 0.15 | 90 | 1007.4 |
| 20260509224641 | 57 | 0 | 0.0 | 0.0 | 0.00 | 0.15 | 0.15 | 90 | 1007.4 |
| 20260509224604 | 57 | 0 | 0.0 | 0.0 | 0.00 | 0.15 | 0.15 | 90 | 1007.5 |
| 20260509224541 | 57 | 0 | 0.0 | 0.0 | 0.00 | 0.15 | 0.15 | 90 | 1007.5 |
| 20260509224517 | 57 | 360 | 0.0 | 0.0 | 0.00 | 0.15 | 0.15 | 90 | 1007.4 |
| 20260509224455 | 57 | 0 | 0.0 | 0.0 | 0.00 | 0.15 | 0.15 | 90 | 1007.5 |
| 20260509224340 | 57 | 0 | 0.0 | 0.0 | 0.00 | 0.15 | 0.15 | 90 | 1007.5 |
| 20260509224252 | 57 | 0 | 0.0 | 0.0 | 0.00 | 0.15 | 0.15 | 90 | 1007.4 |
| 20260509224248 | 57 | 0 | 0.0 | 0.0 | 0.00 | 0.15 | 0.15 | 90 | 1007.4 |
| 20260509224039 | 57 | 0 | 0.0 | 0.0 | 0.00 | 0.15 | 0.15 | 90 | 1007.5 |
| 20260509224017 | 57 | 360 | 0.0 | 0.0 | 0.00 | 0.15 | 0.15 | 90 | 1007.3 |
| 20260509223937 | 57 | 0 | 0.0 | 0.0 | 0.00 | 0.15 | 0.15 | 90 | 1007.4 |
| 20260509223837 | 57 | 0 | 0.0 | 0.0 | 0.00 | 0.15 | 0.15 | 90 | 1007.4 |
| 20260509223749 | 57 | 0 | 0.0 | 0.0 | 0.00 | 0.15 | 0.15 | 90 | 1007.4 |
| 20260509223745 | 57 | 0 | 0.0 | 0.0 | 0.00 | 0.15 | 0.15 | 90 | 1007.4 |
| 20260509223536 | 57 | 0 | 0.0 | 0.0 | 0.00 | 0.15 | 0.15 | 90 | 1007.4 |
| 20260509223517 | 57 | 360 | 0.0 | 0.0 | 0.00 | 0.15 | 0.15 | 90 | 1007.2 |
| 20260509223436 | 57 | 0 | 0.0 | 0.0 | 0.00 | 0.15 | 0.15 | 90 | 1007.3 |
| 20260509223335 | 57 | 0 | 0.0 | 0.0 | 0.00 | 0.15 | 0.15 | 90 | 1007.3 |
| 20260509223235 | 57 | 0 | 0.0 | 0.0 | 0.00 | 0.15 | 0.15 | 90 | 1007.4 |
| 20260509223147 | 57 | 0 | 0.0 | 0.0 | 0.00 | 0.15 | 0.15 | 90 | 1007.4 |
| 20260509223143 | 57 | 0 | 0.0 | 0.0 | 0.00 | 0.15 | 0.15 | 90 | 1007.4 |
| 20260509223032 | 57 | 360 | 0.0 | 0.0 | 0.00 | 0.15 | 0.15 | 90 | 1007.4 |
| 20260509222933 | 57 | 0 | 0.0 | 0.0 | 0.00 | 0.15 | 0.15 | 90 | 1007.5 |
| 20260509222833 | 57 | 0 | 0.0 | 0.0 | 0.00 | 0.15 | 0.15 | 90 | 1007.4 |
| 20260509222759 | 57 | 0 | 0.0 | 1.0 | 0.00 | 0.15 | 0.15 | 90 | 1007.5 |
| 20260509222755 | 57 | 0 | 0.0 | 1.0 | 0.00 | 0.15 | 0.15 | 90 | 1007.5 |
| 20260509222750 | 57 | 0 | 0.0 | 0.0 | 0.00 | 0.15 | 0.15 | 90 | 1007.4 |
| 20260509222518 | 57 | 360 | 0.0 | 1.0 | 0.00 | 0.15 | 0.15 | 90 | 1007.3 |
| 20260509222432 | 57 | 0 | 0.0 | 1.0 | 0.00 | 0.15 | 0.15 | 90 | 1007.4 |
| 20260509222331 | 57 | 0 | 0.0 | 1.0 | 0.00 | 0.15 | 0.15 | 89 | 1007.4 |
| 20260509222229 | 57 | 0 | 0.0 | 1.0 | 0.00 | 0.15 | 0.15 | 89 | 1007.4 |
| 20260509222220 | 57 | 0 | 0.0 | 2.0 | 0.00 | 0.15 | 0.15 | 89 | 1007.3 |
| 20260509222216 | 57 | 0 | 0.0 | 2.0 | 0.00 | 0.15 | 0.15 | 89 | 1007.3 |
| 20260509222211 | 57 | 0 | 0.0 | 2.0 | 0.00 | 0.15 | 0.15 | 89 | 1007.3 |
| 20260509222204 | 57 | 0 | 0.0 | 1.0 | 0.00 | 0.15 | 0.15 | 89 | 1007.4 |
| 20260509222035 | 57 | 360 | 0.0 | 2.0 | 0.00 | 0.15 | 0.15 | 89 | 1007.2 |
| 20260509221828 | 57 | 0 | 0.0 | 2.0 | 0.00 | 0.15 | 0.15 | 89 | 1007.3 |
| 20260509221742 | 57 | 0 | 0.0 | 2.0 | 0.00 | 0.15 | 0.15 | 90 | 1007.2 |
| 20260509221738 | 57 | 0 | 0.0 | 2.0 | 0.00 | 0.15 | 0.15 | 90 | 1007.3 |
| 20260509221527 | 57 | 0 | 0.0 | 2.0 | 0.00 | 0.15 | 0.15 | 90 | 1007.1 |
| 20260509221517 | 57 | 360 | 0.0 | 2.0 | 0.00 | 0.15 | 0.15 | 90 | 1007.0 |
| 20260509221427 | 57 | 0 | 0.0 | 2.0 | 0.00 | 0.15 | 0.15 | 90 | 1007.1 |
| 20260509221327 | 57 | 0 | 0.0 | 2.0 | 0.00 | 0.15 | 0.15 | 90 | 1007.1 |
| 20260509221227 | 57 | 0 | 0.0 | 2.0 | 0.00 | 0.15 | 0.15 | 89 | 1007.1 |
| 20260509221127 | 57 | 0 | 0.0 | 2.0 | 0.00 | 0.15 | 0.15 | 89 | 1007.1 |
| 20260509221025 | 57 | 0 | 0.0 | 2.0 | 0.00 | 0.15 | 0.15 | 89 | 1007.1 |
| 20260509221017 | 57 | 360 | 0.0 | 0.0 | 0.00 | 0.15 | 0.15 | 89 | 1006.9 |
| 20260509220925 | 57 | 0 | 0.0 | 0.0 | 0.00 | 0.15 | 0.15 | 89 | 1007.0 |
| 20260509220824 | 57 | 0 | 0.0 | 0.0 | 0.00 | 0.15 | 0.15 | 89 | 1007.0 |
| 20260509220737 | 57 | 0 | 0.0 | 0.0 | 0.00 | 0.15 | 0.15 | 89 | 1007.1 |
| 20260509220733 | 57 | 0 | 0.0 | 0.0 | 0.00 | 0.15 | 0.15 | 89 | 1007.0 |
| 20260509220551 | 57 | 0 | 0.0 | 0.0 | 0.00 | 0.15 | 0.15 | 89 | 1007.1 |
| 20260509220517 | 57 | 360 | 0.0 | 0.0 | 0.00 | 0.15 | 0.15 | 89 | 1007.0 |
| 20260509220437 | 57 | 0 | 0.0 | 0.0 | 0.00 | 0.15 | 0.15 | 89 | 1007.1 |
| 20260509220428 | 57 | 0 | 0.0 | 0.0 | 0.00 | 0.15 | 0.15 | 89 | 1007.1 |
| 20260509220221 | 57 | 0 | 0.0 | 0.0 | 0.00 | 0.15 | 0.15 | 89 | 1007.1 |
| 20260509220121 | 57 | 0 | 0.0 | 0.0 | 0.00 | 0.15 | 0.15 | 89 | 1007.1 |
| 20260509220022 | 57 | 0 | 0.0 | 0.0 | 0.00 | 0.15 | 0.15 | 89 | 1007.1 |
| 20260509220017 | 57 | 360 | 0.0 | 0.0 | 0.00 | 0.15 | 0.15 | 89 | 1007.0 |
| 20260509215920 | 57 | 0 | 0.0 | 0.0 | 0.00 | 0.15 | 0.15 | 89 | 1007.1 |
| 20260509215818 | 58 | 0 | 0.0 | 0.0 | 0.00 | 0.15 | 0.15 | 89 | 1007.1 |
| 20260509215718 | 58 | 0 | 0.0 | 0.0 | 0.00 | 0.15 | 0.15 | 89 | 1007.2 |
| 20260509215618 | 58 | 0 | 0.0 | 0.0 | 0.00 | 0.15 | 0.15 | 90 | 1007.1 |
| 20260509215517 | 58 | 360 | 0.0 | 0.0 | 0.00 | 0.15 | 0.15 | 90 | 1007.0 |
| 20260509215431 | 58 | 0 | 0.0 | 0.0 | 0.00 | 0.15 | 0.15 | 90 | 1007.1 |
| 20260509215422 | 58 | 0 | 0.0 | 0.0 | 0.00 | 0.15 | 0.15 | 90 | 1007.1 |
| 20260509215216 | 58 | 0 | 0.0 | 0.0 | 0.00 | 0.15 | 0.15 | 90 | 1007.1 |
| 20260509215116 | 58 | 0 | 0.0 | 0.0 | 0.00 | 0.15 | 0.15 | 90 | 1007.1 |
| 20260509215028 | 58 | 0 | 0.0 | 0.0 | 0.00 | 0.15 | 0.15 | 90 | 1007.2 |
| 20260509215024 | 58 | 0 | 0.0 | 0.0 | 0.00 | 0.15 | 0.15 | 90 | 1007.1 |
| 20260509215017 | 58 | 360 | 0.0 | 0.0 | 0.00 | 0.15 | 0.15 | 90 | 1007.1 |
| 20260509214814 | 58 | 0 | 0.0 | 0.0 | 0.00 | 0.15 | 0.15 | 90 | 1007.2 |
| 20260509214736 | 58 | 0 | 0.0 | 0.0 | 0.00 | 0.15 | 0.15 | 90 | 1007.2 |
| 20260509214623 | 58 | 0 | 0.0 | 0.0 | 0.00 | 0.15 | 0.15 | 90 | 1007.2 |
| 20260509214547 | 58 | 360 | 0.0 | 0.0 | 0.00 | 0.15 | 0.15 | 90 | 1007.2 |
| 20260509214414 | 58 | 0 | 0.0 | 0.0 | 0.00 | 0.15 | 0.15 | 90 | 1007.3 |
| 20260509214313 | 58 | 0 | 0.0 | 0.0 | 0.00 | 0.15 | 0.15 | 90 | 1007.3 |
| 20260509214212 | 58 | 0 | 0.0 | 0.0 | 0.00 | 0.15 | 0.15 | 90 | 1007.3 |
| 20260509214123 | 57 | 0 | 0.0 | 0.0 | 0.00 | 0.15 | 0.15 | 91 | 1007.3 |
| 20260509214119 | 57 | 0 | 0.0 | 0.0 | 0.00 | 0.15 | 0.15 | 91 | 1007.3 |
| 20260509214017 | 57 | 360 | 0.0 | 0.0 | 0.00 | 0.15 | 0.15 | 91 | 1007.2 |
| 20260509213937 | 57 | 0 | 0.0 | 0.0 | 0.00 | 0.15 | 0.15 | 90 | 1007.3 |
| 20260509213932 | 57 | 0 | 0.0 | 0.0 | 0.00 | 0.15 | 0.15 | 91 | 1007.2 |
| 20260509213924 | 57 | 0 | 0.0 | 0.0 | 0.00 | 0.15 | 0.15 | 90 | 1007.2 |
| 20260509213609 | 57 | 0 | 0.0 | 0.0 | 0.00 | 0.15 | 0.15 | 90 | 1007.3 |
| 20260509213517 | 57 | 360 | 0.0 | 0.0 | 0.00 | 0.15 | 0.15 | 90 | 1007.2 |
| 20260509213507 | 57 | 0 | 0.0 | 0.0 | 0.00 | 0.15 | 0.15 | 90 | 1007.3 |
| 20260509213407 | 57 | 0 | 0.0 | 0.0 | 0.00 | 0.15 | 0.15 | 90 | 1007.3 |
| 20260509213326 | 57 | 0 | 0.0 | 0.0 | 0.00 | 0.15 | 0.15 | 91 | 1007.3 |
| 20260509213306 | 57 | 0 | 0.0 | 0.0 | 0.00 | 0.15 | 0.15 | 91 | 1007.4 |
| 20260509213206 | 57 | 0 | 0.0 | 0.0 | 0.00 | 0.15 | 0.15 | 91 | 1007.3 |
| 20260509213106 | 57 | 0 | 0.0 | 0.0 | 0.00 | 0.15 | 0.15 | 90 | 1007.3 |
| 20260509213017 | 57 | 360 | 0.0 | 0.0 | 0.00 | 0.15 | 0.15 | 90 | 1007.3 |
| 20260509213006 | 57 | 0 | 0.0 | 0.0 | 0.00 | 0.15 | 0.15 | 90 | 1007.4 |
| 20260509212903 | 57 | 0 | 0.0 | 0.0 | 0.00 | 0.15 | 0.15 | 91 | 1007.3 |
| 20260509212826 | 57 | 0 | 0.0 | 0.0 | 0.00 | 0.15 | 0.15 | 91 | 1007.3 |
| 20260509212801 | 57 | 0 | 0.0 | 0.0 | 0.00 | 0.15 | 0.15 | 91 | 1007.5 |
| 20260509212702 | 57 | 0 | 0.0 | 0.0 | 0.00 | 0.15 | 0.15 | 91 | 1007.5 |
| 20260509212601 | 57 | 0 | 0.0 | 0.0 | 0.00 | 0.15 | 0.15 | 91 | 1007.5 |
| 20260509212517 | 57 | 360 | 0.0 | 0.0 | 0.00 | 0.15 | 0.15 | 91 | 1007.3 |
| 20260509212500 | 57 | 0 | 0.0 | 0.0 | 0.00 | 0.15 | 0.15 | 91 | 1007.4 |
| 20260509212400 | 57 | 0 | 0.0 | 0.0 | 0.00 | 0.15 | 0.15 | 91 | 1007.5 |
| 20260509212325 | 57 | 0 | 0.0 | 0.0 | 0.00 | 0.15 | 0.15 | 91 | 1007.5 |
| 20260509212300 | 57 | 0 | 0.0 | 0.0 | 0.00 | 0.15 | 0.15 | 91 | 1007.5 |
| 20260509212159 | 57 | 0 | 0.0 | 0.0 | 0.00 | 0.15 | 0.15 | 91 | 1007.5 |
| 20260509212059 | 57 | 0 | 0.0 | 0.0 | 0.00 | 0.15 | 0.15 | 90 | 1007.5 |
| 20260509212017 | 57 | 360 | 0.0 | 0.0 | 0.00 | 0.15 | 0.15 | 90 | 1007.4 |
| 20260509211959 | 57 | 0 | 0.0 | 0.0 | 0.00 | 0.15 | 0.15 | 90 | 1007.5 |
| 20260509211857 | 57 | 0 | 0.0 | 0.0 | 0.00 | 0.15 | 0.15 | 90 | 1007.6 |
| 20260509211823 | 57 | 0 | 0.0 | 0.0 | 0.00 | 0.15 | 0.15 | 90 | 1007.6 |
| 20260509211758 | 57 | 0 | 0.0 | 0.0 | 0.00 | 0.15 | 0.15 | 90 | 1007.5 |
| 20260509211656 | 57 | 0 | 0.0 | 0.0 | 0.00 | 0.15 | 0.15 | 90 | 1007.6 |
| 20260509211556 | 57 | 0 | 0.0 | 0.0 | 0.00 | 0.15 | 0.15 | 90 | 1007.5 |
| 20260509211517 | 58 | 360 | 0.0 | 0.0 | 0.00 | 0.15 | 0.15 | 91 | 1007.3 |
| 20260509211455 | 58 | 0 | 0.0 | 0.0 | 0.00 | 0.15 | 0.15 | 91 | 1007.4 |
| 20260509211355 | 58 | 0 | 0.0 | 0.0 | 0.00 | 0.15 | 0.15 | 91 | 1007.4 |
| 20260509211326 | 58 | 0 | 0.0 | 0.0 | 0.00 | 0.15 | 0.15 | 91 | 1007.4 |
| 20260509211254 | 58 | 0 | 0.0 | 0.0 | 0.00 | 0.15 | 0.15 | 91 | 1007.5 |
| 20260509211154 | 58 | 0 | 0.0 | 0.0 | 0.00 | 0.15 | 0.15 | 91 | 1007.4 |
| 20260509211054 | 58 | 0 | 0.0 | 0.0 | 0.00 | 0.15 | 0.15 | 92 | 1007.3 |
| 20260509211017 | 58 | 360 | 0.0 | 0.0 | 0.00 | 0.15 | 0.15 | 92 | 1007.2 |
| 20260509211006 | 58 | 0 | 0.0 | 0.0 | 0.00 | 0.15 | 0.15 | 93 | 1007.2 |
| 20260509211002 | 58 | 0 | 0.0 | 0.0 | 0.00 | 0.15 | 0.15 | 92 | 1007.3 |
| 20260509210823 | 58 | 0 | 0.0 | 0.0 | 0.00 | 0.15 | 0.15 | 93 | 1007.2 |
| 20260509210814 | 58 | 0 | 0.0 | 0.0 | 0.00 | 0.15 | 0.15 | 93 | 1007.2 |
| 20260509210701 | 58 | 0 | 0.0 | 0.0 | 0.00 | 0.15 | 0.15 | 93 | 1007.2 |
| 20260509210517 | 58 | 360 | 0.0 | 0.0 | 0.00 | 0.15 | 0.15 | 93 | 1007.2 |
| 20260509210452 | 58 | 0 | 0.0 | 0.0 | 0.00 | 0.15 | 0.15 | 93 | 1007.3 |
| 20260509210351 | 58 | 0 | 0.0 | 1.0 | 0.00 | 0.15 | 0.15 | 93 | 1007.3 |
| 20260509210322 | 58 | 0 | 0.0 | 2.0 | 0.00 | 0.15 | 0.15 | 93 | 1007.3 |
| 20260509210250 | 58 | 0 | 0.0 | 2.0 | 0.00 | 0.15 | 0.15 | 94 | 1007.3 |
| 20260509210151 | 58 | 0 | 0.0 | 2.0 | 0.00 | 0.15 | 0.15 | 94 | 1007.3 |
| 20260509210050 | 58 | 0 | 0.0 | 2.0 | 0.00 | 0.15 | 0.15 | 94 | 1007.3 |
| 20260509210044 | 58 | 0 | 0.0 | 2.0 | 0.00 | 0.15 | 0.15 | 94 | 1007.4 |
| 20260509210017 | 58 | 360 | 0.0 | 2.0 | 0.00 | 0.15 | 0.15 | 94 | 1007.3 |
| 20260509205949 | 58 | 0 | 0.0 | 2.0 | 0.00 | 0.15 | 0.15 | 94 | 1007.4 |
| 20260509205924 | 58 | 0 | 0.0 | 2.0 | 0.00 | 0.15 | 0.15 | 94 | 1007.4 |
| 20260509205747 | 58 | 0 | 0.0 | 2.0 | 0.00 | 0.15 | 0.15 | 94 | 1007.4 |
| 20260509205647 | 57 | 0 | 0.0 | 2.0 | 0.01 | 0.15 | 0.15 | 94 | 1007.4 |
| 20260509205547 | 57 | 0 | 0.0 | 2.0 | 0.01 | 0.15 | 0.15 | 94 | 1007.4 |
| 20260509205517 | 57 | 360 | 0.0 | 2.0 | 0.01 | 0.15 | 0.15 | 94 | 1007.3 |
| 20260509205446 | 57 | 0 | 0.0 | 2.0 | 0.01 | 0.15 | 0.15 | 94 | 1007.4 |
| 20260509205346 | 57 | 0 | 0.0 | 2.0 | 0.01 | 0.15 | 0.15 | 94 | 1007.4 |
| 20260509205318 | 57 | 0 | 0.0 | 1.0 | 0.01 | 0.15 | 0.15 | 94 | 1007.4 |
| 20260509205310 | 57 | 0 | 0.0 | 1.0 | 0.01 | 0.15 | 0.15 | 94 | 1007.3 |
| 20260509205307 | 57 | 0 | 0.0 | 1.0 | 0.01 | 0.15 | 0.15 | 94 | 1007.3 |
| 20260509205301 | 57 | 0 | 0.0 | 1.0 | 0.01 | 0.15 | 0.15 | 94 | 1007.4 |
| 20260509205017 | 57 | 360 | 0.0 | 1.0 | 0.01 | 0.15 | 0.15 | 94 | 1007.2 |
| 20260509204942 | 57 | 0 | 0.0 | 1.0 | 0.01 | 0.15 | 0.15 | 94 | 1007.3 |
| 20260509204817 | 57 | 0 | 0.0 | 1.0 | 0.01 | 0.15 | 0.15 | 94 | 1007.3 |
| 20260509204743 | 57 | 0 | 0.0 | 1.0 | 0.01 | 0.15 | 0.15 | 94 | 1007.4 |
| 20260509204642 | 57 | 0 | 0.0 | 1.0 | 0.01 | 0.15 | 0.15 | 94 | 1007.4 |
| 20260509204542 | 56 | 0 | 0.0 | 1.0 | 0.01 | 0.15 | 0.15 | 94 | 1007.4 |
| 20260509204517 | 56 | 360 | 0.0 | 0.0 | 0.01 | 0.15 | 0.15 | 94 | 1007.3 |
| 20260509204442 | 56 | 0 | 0.0 | 0.0 | 0.01 | 0.15 | 0.15 | 94 | 1007.4 |
| 20260509204402 | 56 | 0 | 0.0 | 0.0 | 0.01 | 0.15 | 0.15 | 94 | 1007.3 |
| 20260509204356 | 56 | 0 | 0.0 | 0.0 | 0.01 | 0.15 | 0.15 | 94 | 1007.4 |
| 20260509204351 | 56 | 0 | 0.0 | 0.0 | 0.01 | 0.15 | 0.15 | 94 | 1007.3 |
| 20260509204141 | 56 | 0 | 0.0 | 0.0 | 0.01 | 0.15 | 0.15 | 94 | 1007.2 |
| 20260509204041 | 56 | 0 | 0.0 | 0.0 | 0.02 | 0.15 | 0.15 | 94 | 1007.2 |
| 20260509204017 | 56 | 360 | 0.0 | 0.0 | 0.01 | 0.15 | 0.15 | 94 | 1007.1 |
| 20260509203940 | 56 | 0 | 0.0 | 0.0 | 0.02 | 0.15 | 0.15 | 94 | 1007.1 |
| 20260509203816 | 56 | 0 | 0.0 | 0.0 | 0.02 | 0.15 | 0.15 | 94 | 1007.1 |
| 20260509203739 | 56 | 0 | 0.0 | 0.0 | 0.02 | 0.15 | 0.15 | 94 | 1007.1 |
| 20260509203638 | 56 | 0 | 0.0 | 0.0 | 0.02 | 0.15 | 0.15 | 94 | 1007.1 |
| 20260509203538 | 56 | 0 | 0.0 | 0.0 | 0.02 | 0.15 | 0.15 | 94 | 1007.1 |
| 20260509203517 | 56 | 360 | 0.0 | 0.0 | 0.02 | 0.15 | 0.15 | 94 | 1007.0 |
| 20260509203438 | 56 | 0 | 0.0 | 0.0 | 0.02 | 0.15 | 0.15 | 94 | 1007.0 |
| 20260509203315 | 56 | 0 | 0.0 | 0.0 | 0.02 | 0.15 | 0.15 | 94 | 1007.1 |
| 20260509203238 | 56 | 0 | 0.0 | 0.0 | 0.02 | 0.15 | 0.15 | 94 | 1007.1 |
| 20260509203137 | 56 | 0 | 0.0 | 0.0 | 0.02 | 0.15 | 0.15 | 94 | 1007.1 |
| 20260509203037 | 56 | 0 | 0.0 | 0.0 | 0.02 | 0.15 | 0.15 | 94 | 1007.0 |
| 20260509203017 | 56 | 360 | 0.0 | 0.0 | 0.02 | 0.15 | 0.15 | 94 | 1007.0 |
| 20260509202936 | 56 | 0 | 0.0 | 0.0 | 0.02 | 0.15 | 0.15 | 94 | 1007.0 |
| 20260509202836 | 55 | 0 | 0.0 | 0.0 | 0.03 | 0.15 | 0.15 | 94 | 1006.9 |
| 20260509202814 | 55 | 0 | 0.0 | 0.0 | 0.03 | 0.15 | 0.15 | 94 | 1006.9 |
| 20260509202734 | 55 | 0 | 0.0 | 0.0 | 0.03 | 0.15 | 0.15 | 94 | 1007.0 |
| 20260509202634 | 55 | 0 | 0.0 | 0.0 | 0.03 | 0.15 | 0.15 | 94 | 1007.0 |
| 20260509202534 | 55 | 0 | 0.0 | 0.0 | 0.03 | 0.15 | 0.15 | 93 | 1007.0 |
| 20260509202517 | 55 | 360 | 0.0 | 0.0 | 0.03 | 0.15 | 0.15 | 93 | 1007.1 |
| 20260509202433 | 55 | 0 | 0.0 | 0.0 | 0.03 | 0.15 | 0.15 | 93 | 1007.1 |
| 20260509202333 | 55 | 0 | 0.0 | 0.0 | 0.03 | 0.15 | 0.15 | 93 | 1007.1 |
| 20260509202314 | 55 | 0 | 0.0 | 0.0 | 0.03 | 0.15 | 0.15 | 93 | 1007.1 |
| 20260509202232 | 55 | 0 | 0.0 | 0.0 | 0.03 | 0.15 | 0.15 | 93 | 1007.2 |
| 20260509202133 | 55 | 0 | 0.0 | 0.0 | 0.03 | 0.15 | 0.15 | 93 | 1007.2 |
| 20260509202032 | 55 | 0 | 0.0 | 0.0 | 0.03 | 0.15 | 0.15 | 93 | 1007.2 |
| 20260509202017 | 55 | 360 | 0.0 | 0.0 | 0.03 | 0.15 | 0.15 | 93 | 1007.2 |
| 20260509201932 | 55 | 0 | 0.0 | 0.0 | 0.03 | 0.15 | 0.15 | 93 | 1007.2 |
| 20260509201859 | 55 | 0 | 0.0 | 0.0 | 0.03 | 0.15 | 0.15 | 93 | 1007.2 |
| 20260509201855 | 55 | 0 | 0.0 | 0.0 | 0.03 | 0.15 | 0.15 | 93 | 1007.2 |
| 20260509201741 | 55 | 0 | 0.0 | 0.0 | 0.03 | 0.15 | 0.15 | 93 | 1007.3 |
| 20260509201547 | 55 | 360 | 0.0 | 0.0 | 0.03 | 0.15 | 0.15 | 93 | 1007.4 |
| 20260509201545 | 55 | 0 | 0.0 | 0.0 | 0.03 | 0.15 | 0.15 | 93 | 1007.4 |
| 20260509201540 | 55 | 0 | 0.0 | 0.0 | 0.03 | 0.15 | 0.15 | 93 | 1007.4 |
| 20260509201330 | 55 | 0 | 0.0 | 0.0 | 0.03 | 0.15 | 0.15 | 93 | 1007.4 |
| 20260509201313 | 55 | 0 | 0.0 | 0.0 | 0.03 | 0.15 | 0.15 | 93 | 1007.4 |
| 20260509201244 | 55 | 0 | 0.0 | 0.0 | 0.03 | 0.15 | 0.15 | 93 | 1007.5 |
| 20260509201238 | 55 | 0 | 0.0 | 0.0 | 0.03 | 0.15 | 0.15 | 93 | 1007.4 |
| 20260509201028 | 55 | 0 | 0.0 | 0.0 | 0.04 | 0.15 | 0.15 | 93 | 1007.5 |
| 20260509201017 | 55 | 360 | 0.0 | 0.0 | 0.04 | 0.15 | 0.15 | 93 | 1007.5 |
| 20260509200928 | 55 | 0 | 0.0 | 0.0 | 0.04 | 0.15 | 0.15 | 93 | 1007.5 |
| 20260509200855 | 55 | 0 | 0.0 | 0.0 | 0.04 | 0.15 | 0.15 | 93 | 1007.5 |
| 20260509200850 | 55 | 0 | 0.0 | 0.0 | 0.04 | 0.15 | 0.15 | 93 | 1007.6 |
| 20260509200736 | 55 | 0 | 0.0 | 0.0 | 0.04 | 0.15 | 0.15 | 93 | 1007.6 |
| 20260509200526 | 55 | 0 | 0.0 | 0.0 | 0.04 | 0.15 | 0.15 | 93 | 1007.5 |
| 20260509200517 | 55 | 360 | 0.0 | 0.0 | 0.04 | 0.15 | 0.15 | 93 | 1007.5 |
| 20260509200426 | 55 | 0 | 0.0 | 0.0 | 0.05 | 0.15 | 0.15 | 93 | 1007.5 |
| 20260509200325 | 55 | 0 | 0.0 | 0.0 | 0.06 | 0.15 | 0.15 | 93 | 1007.5 |
| 20260509200312 | 55 | 0 | 0.0 | 0.0 | 0.06 | 0.15 | 0.15 | 93 | 1007.4 |
| 20260509200240 | 55 | 0 | 0.0 | 0.0 | 0.07 | 0.15 | 0.15 | 93 | 1007.4 |
| 20260509200235 | 55 | 0 | 0.0 | 0.0 | 0.06 | 0.15 | 0.15 | 93 | 1007.4 |
| 20260509200025 | 55 | 0 | 0.0 | 0.0 | 0.07 | 0.15 | 0.15 | 93 | 1007.4 |
| 20260509200017 | 55 | 360 | 0.0 | 0.0 | 0.07 | 0.15 | 0.15 | 93 | 1007.3 |
| 20260509195925 | 55 | 0 | 0.0 | 0.0 | 0.07 | 0.15 | 0.15 | 93 | 1007.3 |
| 20260509195824 | 55 | 0 | 0.0 | 0.0 | 0.07 | 0.15 | 0.15 | 93 | 1007.3 |
| 20260509195812 | 55 | 0 | 0.0 | 0.0 | 0.07 | 0.15 | 0.15 | 93 | 1007.4 |
| 20260509195724 | 55 | 0 | 0.0 | 0.0 | 0.07 | 0.15 | 0.15 | 93 | 1007.4 |
| 20260509195623 | 55 | 0 | 0.0 | 0.0 | 0.06 | 0.14 | 0.14 | 93 | 1007.4 |
| 20260509195523 | 55 | 0 | 0.0 | 0.0 | 0.06 | 0.14 | 0.14 | 93 | 1007.5 |
| 20260509195517 | 55 | 360 | 0.0 | 0.0 | 0.06 | 0.14 | 0.14 | 93 | 1007.5 |
| 20260509195422 | 55 | 0 | 0.0 | 0.0 | 0.06 | 0.14 | 0.14 | 93 | 1007.5 |
| 20260509195321 | 55 | 0 | 0.0 | 0.0 | 0.06 | 0.14 | 0.14 | 93 | 1007.4 |
| 20260509195312 | 55 | 0 | 0.0 | 0.0 | 0.06 | 0.14 | 0.14 | 93 | 1007.5 |
| 20260509195221 | 55 | 0 | 0.0 | 0.0 | 0.06 | 0.14 | 0.14 | 93 | 1007.5 |
| 20260509195120 | 55 | 0 | 0.0 | 0.0 | 0.06 | 0.14 | 0.14 | 93 | 1007.6 |
| 20260509195032 | 56 | 360 | 0.0 | 0.0 | 0.06 | 0.14 | 0.14 | 93 | 1007.7 |
| 20260509195020 | 56 | 0 | 0.0 | 0.0 | 0.06 | 0.14 | 0.14 | 93 | 1007.7 |
| 20260509194920 | 56 | 0 | 0.0 | 0.0 | 0.06 | 0.14 | 0.14 | 93 | 1007.7 |
| 20260509194812 | 56 | 0 | 0.0 | 0.0 | 0.06 | 0.14 | 0.14 | 93 | 1007.7 |
| 20260509194719 | 56 | 0 | 0.0 | 0.0 | 0.06 | 0.14 | 0.14 | 93 | 1007.7 |
| 20260509194618 | 56 | 0 | 0.0 | 0.0 | 0.06 | 0.14 | 0.14 | 93 | 1007.7 |
| 20260509194518 | 56 | 0 | 0.0 | 0.0 | 0.06 | 0.14 | 0.14 | 93 | 1007.8 |
| 20260509194432 | 56 | 0 | 0.0 | 0.0 | 0.06 | 0.14 | 0.14 | 93 | 1007.7 |
| 20260509194426 | 56 | 0 | 0.0 | 0.0 | 0.06 | 0.14 | 0.14 | 92 | 1007.8 |
| 20260509194310 | 56 | 0 | 0.0 | 0.0 | 0.06 | 0.14 | 0.14 | 93 | 1007.8 |
| 20260509194217 | 56 | 0 | 0.0 | 0.0 | 0.06 | 0.14 | 0.14 | 93 | 1007.8 |
| 20260509194116 | 56 | 0 | 0.0 | 0.0 | 0.06 | 0.14 | 0.14 | 93 | 1007.8 |
| 20260509194017 | 56 | 360 | 0.0 | 0.0 | 0.06 | 0.14 | 0.14 | 93 | 1007.7 |
| 20260509193915 | 56 | 0 | 0.0 | 0.0 | 0.05 | 0.13 | 0.13 | 93 | 1007.7 |
| 20260509193842 | 56 | 0 | 0.0 | 0.0 | 0.05 | 0.13 | 0.13 | 93 | 1007.8 |
| 20260509193838 | 56 | 0 | 0.0 | 0.0 | 0.05 | 0.13 | 0.13 | 93 | 1007.8 |
| 20260509193724 | 56 | 0 | 0.0 | 0.0 | 0.05 | 0.13 | 0.13 | 93 | 1007.8 |
| 20260509193517 | 56 | 360 | 0.0 | 0.0 | 0.05 | 0.13 | 0.13 | 93 | 1007.8 |
| 20260509193514 | 56 | 0 | 0.0 | 0.0 | 0.05 | 0.13 | 0.13 | 93 | 1007.8 |
| 20260509193413 | 56 | 0 | 0.0 | 0.0 | 0.05 | 0.13 | 0.13 | 93 | 1007.8 |
| 20260509193310 | 56 | 0 | 0.0 | 0.0 | 0.05 | 0.13 | 0.13 | 92 | 1007.9 |
| 20260509193213 | 56 | 0 | 0.0 | 0.0 | 0.05 | 0.13 | 0.13 | 92 | 1007.9 |
| 20260509193112 | 56 | 0 | 0.0 | 0.0 | 0.05 | 0.13 | 0.13 | 93 | 1008.0 |
| 20260509193102 | 56 | 360 | 0.0 | 0.0 | 0.05 | 0.13 | 0.13 | 93 | 1008.0 |
| 20260509193012 | 56 | 0 | 0.0 | 0.0 | 0.05 | 0.13 | 0.13 | 93 | 1008.0 |
| 20260509192912 | 56 | 0 | 0.0 | 0.0 | 0.05 | 0.13 | 0.13 | 93 | 1008.0 |
| 20260509192809 | 56 | 0 | 0.0 | 0.0 | 0.04 | 0.12 | 0.12 | 93 | 1008.0 |
| 20260509192711 | 56 | 0 | 0.0 | 0.0 | 0.04 | 0.12 | 0.12 | 93 | 1008.0 |
| 20260509192611 | 56 | 0 | 0.0 | 0.0 | 0.04 | 0.12 | 0.12 | 93 | 1008.0 |
| 20260509192524 | 56 | 0 | 0.0 | 0.0 | 0.04 | 0.12 | 0.12 | 93 | 1008.0 |
| 20260509192519 | 56 | 0 | 0.0 | 0.0 | 0.04 | 0.12 | 0.12 | 93 | 1008.0 |
| 20260509192517 | 56 | 360 | 0.0 | 0.0 | 0.04 | 0.12 | 0.12 | 93 | 1008.0 |
| 20260509192307 | 56 | 0 | 0.0 | 2.0 | 0.04 | 0.12 | 0.12 | 93 | 1008.1 |
| 20260509192209 | 56 | 0 | 0.0 | 2.0 | 0.04 | 0.12 | 0.12 | 93 | 1008.1 |
| 20260509192108 | 56 | 0 | 0.0 | 2.0 | 0.04 | 0.12 | 0.12 | 93 | 1008.0 |
| 20260509192018 | 56 | 360 | 0.0 | 2.0 | 0.04 | 0.12 | 0.12 | 93 | 1008.0 |
| 20260509192007 | 56 | 0 | 0.0 | 2.0 | 0.04 | 0.12 | 0.12 | 93 | 1008.0 |
| 20260509191907 | 56 | 0 | 0.0 | 2.0 | 0.05 | 0.12 | 0.12 | 93 | 1008.0 |
| 20260509191808 | 56 | 0 | 0.0 | 2.0 | 0.05 | 0.12 | 0.12 | 92 | 1008.1 |
| 20260509191706 | 56 | 0 | 0.0 | 2.0 | 0.05 | 0.12 | 0.12 | 92 | 1008.1 |
| 20260509191621 | 56 | 0 | 0.0 | 2.0 | 0.05 | 0.12 | 0.12 | 92 | 1008.3 |
| 20260509191616 | 56 | 0 | 0.0 | 2.0 | 0.05 | 0.12 | 0.12 | 92 | 1008.2 |
| 20260509191548 | 56 | 360 | 0.0 | 2.0 | 0.05 | 0.12 | 0.12 | 92 | 1008.3 |
| 20260509191406 | 56 | 0 | 0.0 | 2.0 | 0.05 | 0.12 | 0.12 | 92 | 1008.4 |
| 20260509191319 | 56 | 0 | 0.0 | 4.0 | 0.05 | 0.12 | 0.12 | 92 | 1008.4 |
| 20260509191204 | 56 | 0 | 0.0 | 4.0 | 0.05 | 0.12 | 0.12 | 92 | 1008.4 |
| 20260509191104 | 56 | 0 | 0.0 | 4.0 | 0.05 | 0.12 | 0.12 | 92 | 1008.5 |
| 20260509191032 | 56 | 360 | 0.0 | 4.0 | 0.04 | 0.11 | 0.11 | 92 | 1008.5 |
| 20260509191004 | 56 | 0 | 0.0 | 4.0 | 0.04 | 0.11 | 0.11 | 92 | 1008.5 |
| 20260509190902 | 56 | 0 | 0.0 | 4.0 | 0.04 | 0.11 | 0.11 | 92 | 1008.3 |
| 20260509190803 | 56 | 0 | 0.0 | 4.0 | 0.04 | 0.11 | 0.11 | 92 | 1008.3 |
| 20260509190704 | 56 | 0 | 0.0 | 4.0 | 0.04 | 0.11 | 0.11 | 92 | 1008.3 |
| 20260509190645 | 56 | 0 | 0.0 | 4.0 | 0.04 | 0.11 | 0.11 | 92 | 1008.4 |
| 20260509190534 | 56 | 0 | 0.0 | 4.0 | 0.03 | 0.10 | 0.11 | 92 | 1008.5 |
| 20260509190527 | 56 | 0 | 0.0 | 4.0 | 0.04 | 0.11 | 0.11 | 92 | 1008.4 |
| 20260509190517 | 56 | 360 | 0.0 | 4.0 | 0.04 | 0.11 | 0.11 | 92 | 1008.4 |
| 20260509190303 | 56 | 0 | 0.0 | 1.0 | 0.02 | 0.09 | 0.10 | 92 | 1008.5 |
| 20260509190202 | 56 | 0 | 0.0 | 1.0 | 0.02 | 0.09 | 0.09 | 92 | 1008.4 |
| 20260509190018 | 57 | 360 | 0.0 | 0.0 | 0.02 | 0.08 | 0.08 | 92 | 1008.5 |
| 20260509190002 | 57 | 0 | 0.0 | 1.0 | 0.02 | 0.08 | 0.08 | 92 | 1008.5 |
| 20260509185921 | 57 | 0 | 0.0 | 0.0 | 0.02 | 0.08 | 0.08 | 92 | 1008.5 |
| 20260509185914 | 57 | 0 | 0.0 | 1.0 | 0.02 | 0.08 | 0.08 | 92 | 1008.6 |
| 20260509185905 | 57 | 0 | 0.0 | 0.0 | 0.02 | 0.08 | 0.08 | 92 | 1008.5 |
| 20260509185659 | 57 | 0 | 0.0 | 0.0 | 0.02 | 0.08 | 0.08 | 92 | 1008.5 |
| 20260509185559 | 57 | 0 | 0.0 | 0.0 | 0.02 | 0.08 | 0.08 | 92 | 1008.5 |
| 20260509185517 | 57 | 360 | 0.0 | 0.0 | 0.02 | 0.08 | 0.08 | 92 | 1008.5 |
| 20260509185458 | 57 | 0 | 0.0 | 0.0 | 0.02 | 0.08 | 0.08 | 92 | 1008.5 |
| 20260509185358 | 57 | 0 | 0.0 | 0.0 | 0.02 | 0.08 | 0.08 | 92 | 1008.5 |
| 20260509185306 | 57 | 0 | 0.0 | 0.0 | 0.02 | 0.08 | 0.08 | 92 | 1008.5 |
| 20260509185258 | 57 | 0 | 0.0 | 0.0 | 0.02 | 0.08 | 0.08 | 92 | 1008.5 |
| 20260509185210 | 57 | 0 | 0.0 | 0.0 | 0.02 | 0.08 | 0.08 | 92 | 1008.5 |
| 20260509185206 | 57 | 0 | 0.0 | 0.0 | 0.02 | 0.08 | 0.08 | 92 | 1008.5 |
| 20260509185017 | 57 | 360 | 0.0 | 0.0 | 0.02 | 0.08 | 0.08 | 92 | 1008.4 |
| 20260509184956 | 56 | 0 | 0.0 | 0.0 | 0.02 | 0.08 | 0.08 | 92 | 1008.4 |
| 20260509184856 | 56 | 0 | 0.0 | 0.0 | 0.02 | 0.08 | 0.08 | 92 | 1008.4 |
| 20260509184805 | 56 | 0 | 0.0 | 0.0 | 0.02 | 0.08 | 0.08 | 92 | 1008.4 |
| 20260509184757 | 56 | 0 | 0.0 | 0.0 | 0.02 | 0.08 | 0.08 | 92 | 1008.4 |
| 20260509184656 | 56 | 0 | 0.0 | 0.0 | 0.02 | 0.08 | 0.08 | 92 | 1008.4 |
| 20260509184607 | 56 | 0 | 0.0 | 0.0 | 0.02 | 0.08 | 0.08 | 92 | 1008.4 |
| 20260509184603 | 56 | 0 | 0.0 | 0.0 | 0.02 | 0.08 | 0.08 | 92 | 1008.5 |
| 20260509184532 | 57 | 360 | 0.0 | 0.0 | 0.02 | 0.08 | 0.08 | 92 | 1008.4 |
| 20260509184354 | 56 | 0 | 0.0 | 0.0 | 0.02 | 0.08 | 0.08 | 92 | 1008.3 |
| 20260509184303 | 56 | 0 | 0.0 | 0.0 | 0.03 | 0.08 | 0.08 | 92 | 1008.3 |
| 20260509184253 | 56 | 0 | 0.0 | 0.0 | 0.03 | 0.08 | 0.08 | 92 | 1008.3 |
| 20260509184153 | 56 | 0 | 0.0 | 0.0 | 0.03 | 0.08 | 0.08 | 92 | 1008.4 |
| 20260509184053 | 56 | 0 | 0.0 | 0.0 | 0.03 | 0.08 | 0.08 | 92 | 1008.4 |
| 20260509184018 | 57 | 360 | 0.0 | 0.0 | 0.03 | 0.08 | 0.08 | 92 | 1008.5 |
| 20260509183951 | 56 | 0 | 0.0 | 0.0 | 0.03 | 0.08 | 0.08 | 92 | 1008.5 |
| 20260509183852 | 56 | 0 | 0.0 | 0.0 | 0.03 | 0.08 | 0.08 | 92 | 1008.5 |
| 20260509183803 | 56 | 0 | 0.0 | 0.0 | 0.03 | 0.08 | 0.08 | 91 | 1008.5 |
| 20260509183750 | 56 | 0 | 0.0 | 0.0 | 0.03 | 0.08 | 0.08 | 91 | 1008.5 |
| 20260509183650 | 56 | 0 | 0.0 | 0.0 | 0.03 | 0.08 | 0.08 | 91 | 1008.5 |
| 20260509183550 | 56 | 0 | 0.0 | 0.0 | 0.03 | 0.08 | 0.08 | 91 | 1008.5 |
| 20260509183517 | 57 | 360 | 0.0 | 0.0 | 0.03 | 0.08 | 0.08 | 91 | 1008.5 |
| 20260509183450 | 56 | 0 | 0.0 | 0.0 | 0.03 | 0.08 | 0.08 | 91 | 1008.5 |
| 20260509183430 | 56 | 0 | 0.0 | 0.0 | 0.03 | 0.08 | 0.08 | 91 | 1008.5 |
| 20260509183320 | 57 | 0 | 0.0 | 0.0 | 0.03 | 0.08 | 0.08 | 91 | 1008.6 |
| 20260509183307 | 56 | 0 | 0.0 | 0.0 | 0.03 | 0.08 | 0.08 | 91 | 1008.6 |
| 20260509183017 | 57 | 360 | 0.0 | 0.0 | 0.03 | 0.08 | 0.08 | 91 | 1008.6 |
| 20260509182948 | 57 | 0 | 0.0 | 0.0 | 0.03 | 0.08 | 0.08 | 91 | 1008.6 |
| 20260509182848 | 57 | 0 | 0.0 | 0.0 | 0.03 | 0.08 | 0.08 | 91 | 1008.5 |
| 20260509182748 | 57 | 0 | 0.0 | 0.0 | 0.03 | 0.08 | 0.08 | 91 | 1008.5 |
| 20260509182647 | 57 | 0 | 0.0 | 0.0 | 0.03 | 0.08 | 0.08 | 91 | 1008.6 |
| 20260509182546 | 57 | 0 | 0.0 | 0.0 | 0.03 | 0.08 | 0.08 | 91 | 1008.5 |
| 20260509182518 | 57 | 360 | 0.0 | 0.0 | 0.03 | 0.08 | 0.08 | 91 | 1008.5 |
| 20260509182445 | 57 | 0 | 0.0 | 0.0 | 0.03 | 0.08 | 0.08 | 91 | 1008.5 |
| 20260509182344 | 57 | 0 | 0.0 | 0.0 | 0.03 | 0.08 | 0.08 | 91 | 1008.5 |
| 20260509182244 | 57 | 0 | 0.0 | 0.0 | 0.03 | 0.08 | 0.08 | 91 | 1008.6 |
| 20260509182143 | 57 | 0 | 0.0 | 0.0 | 0.03 | 0.08 | 0.08 | 91 | 1008.6 |
| 20260509182044 | 57 | 0 | 0.0 | 0.0 | 0.03 | 0.08 | 0.08 | 90 | 1008.6 |
| 20260509182017 | 57 | 360 | 0.0 | 0.0 | 0.03 | 0.08 | 0.08 | 90 | 1008.7 |
| 20260509181941 | 57 | 0 | 0.0 | 0.0 | 0.02 | 0.07 | 0.07 | 90 | 1008.7 |
| 20260509181839 | 57 | 0 | 0.0 | 0.0 | 0.02 | 0.07 | 0.07 | 91 | 1008.8 |
| 20260509181759 | 57 | 0 | 0.0 | 0.0 | 0.02 | 0.07 | 0.07 | 91 | 1008.8 |
| 20260509181738 | 57 | 0 | 0.0 | 0.0 | 0.02 | 0.07 | 0.07 | 91 | 1008.8 |
| 20260509181638 | 57 | 0 | 0.0 | 0.0 | 0.02 | 0.07 | 0.07 | 91 | 1008.8 |
| 20260509181537 | 57 | 0 | 0.0 | 0.0 | 0.02 | 0.07 | 0.07 | 91 | 1008.9 |
| 20260509181517 | 57 | 360 | 0.0 | 0.0 | 0.02 | 0.07 | 0.07 | 91 | 1008.8 |
| 20260509181435 | 57 | 0 | 0.0 | 0.0 | 0.02 | 0.07 | 0.07 | 91 | 1008.9 |
| 20260509181334 | 57 | 0 | 0.0 | 0.0 | 0.02 | 0.07 | 0.07 | 92 | 1008.9 |
| 20260509181258 | 57 | 0 | 0.0 | 0.0 | 0.02 | 0.07 | 0.07 | 92 | 1008.9 |
| 20260509181234 | 57 | 0 | 0.0 | 0.0 | 0.02 | 0.07 | 0.07 | 92 | 1008.9 |
| 20260509181147 | 57 | 0 | 0.0 | 0.0 | 0.02 | 0.07 | 0.07 | 92 | 1009.0 |
| 20260509181143 | 57 | 0 | 0.0 | 0.0 | 0.02 | 0.07 | 0.07 | 92 | 1009.0 |
| 20260509181017 | 57 | 360 | 0.0 | 0.0 | 0.02 | 0.07 | 0.07 | 92 | 1008.9 |
| 20260509180933 | 57 | 0 | 0.0 | 0.0 | 0.02 | 0.07 | 0.07 | 92 | 1009.0 |
| 20260509180832 | 57 | 0 | 0.0 | 0.0 | 0.03 | 0.07 | 0.07 | 92 | 1008.9 |
| 20260509180756 | 57 | 0 | 0.0 | 0.0 | 0.03 | 0.07 | 0.07 | 92 | 1008.9 |
| 20260509180744 | 57 | 0 | 0.0 | 0.0 | 0.03 | 0.07 | 0.07 | 91 | 1008.8 |
| 20260509180740 | 57 | 0 | 0.0 | 0.0 | 0.03 | 0.07 | 0.07 | 92 | 1008.8 |
| 20260509180530 | 57 | 0 | 0.0 | 0.0 | 0.03 | 0.07 | 0.07 | 91 | 1008.8 |
| 20260509180517 | 57 | 360 | 0.0 | 0.0 | 0.03 | 0.07 | 0.07 | 91 | 1008.8 |
| 20260509180430 | 57 | 0 | 0.0 | 0.0 | 0.03 | 0.07 | 0.07 | 91 | 1008.8 |
| 20260509180329 | 57 | 0 | 0.0 | 0.0 | 0.03 | 0.07 | 0.07 | 91 | 1008.8 |
| 20260509180256 | 57 | 0 | 0.0 | 0.0 | 0.03 | 0.07 | 0.07 | 91 | 1008.9 |
| 20260509180229 | 57 | 0 | 0.0 | 0.0 | 0.03 | 0.07 | 0.07 | 91 | 1008.8 |
| 20260509180142 | 57 | 0 | 0.0 | 0.0 | 0.02 | 0.06 | 0.06 | 91 | 1008.8 |
| 20260509180137 | 57 | 0 | 0.0 | 0.0 | 0.02 | 0.06 | 0.07 | 91 | 1008.8 |
| 20260509180021 | 57 | 0 | 0.0 | 0.0 | 0.02 | 0.06 | 0.06 | 91 | 1008.8 |
| 20260509180017 | 57 | 360 | 0.0 | 0.0 | 0.02 | 0.06 | 0.06 | 91 | 1008.8 |
| 20260509175927 | 57 | 0 | 0.0 | 0.0 | 0.02 | 0.06 | 0.06 | 91 | 1008.8 |
| 20260509175903 | 57 | 0 | 0.0 | 0.0 | 0.02 | 0.06 | 0.06 | 91 | 1008.8 |
| 20260509175726 | 57 | 0 | 0.0 | 0.0 | 0.02 | 0.06 | 0.06 | 91 | 1008.9 |
| 20260509175625 | 57 | 0 | 0.0 | 0.0 | 0.02 | 0.06 | 0.06 | 91 | 1008.9 |
| 20260509175533 | 57 | 360 | 0.0 | 0.0 | 0.02 | 0.06 | 0.06 | 91 | 1008.9 |
| 20260509175524 | 57 | 0 | 0.0 | 0.0 | 0.02 | 0.06 | 0.06 | 91 | 1008.8 |
| 20260509175424 | 57 | 0 | 0.0 | 0.0 | 0.02 | 0.06 | 0.06 | 91 | 1008.9 |
| 20260509175323 | 57 | 0 | 0.0 | 0.0 | 0.02 | 0.06 | 0.06 | 91 | 1008.9 |
| 20260509175257 | 57 | 0 | 0.0 | 0.0 | 0.02 | 0.06 | 0.06 | 91 | 1009.0 |
| 20260509175223 | 57 | 0 | 0.0 | 0.0 | 0.02 | 0.06 | 0.06 | 91 | 1009.0 |
| 20260509175122 | 57 | 0 | 0.0 | 1.0 | 0.02 | 0.06 | 0.06 | 90 | 1009.0 |
| 20260509175032 | 57 | 360 | 0.0 | 1.0 | 0.02 | 0.06 | 0.06 | 90 | 1008.9 |
| 20260509175021 | 57 | 0 | 0.0 | 1.0 | 0.02 | 0.06 | 0.06 | 90 | 1009.0 |
| 20260509174920 | 57 | 0 | 0.0 | 1.0 | 0.02 | 0.06 | 0.06 | 90 | 1009.0 |
| 20260509174820 | 57 | 0 | 0.0 | 1.0 | 0.02 | 0.06 | 0.06 | 90 | 1009.0 |
| 20260509174732 | 57 | 0 | 0.0 | 1.0 | 0.02 | 0.06 | 0.06 | 90 | 1008.9 |
| 20260509174727 | 57 | 0 | 0.0 | 1.0 | 0.02 | 0.06 | 0.06 | 90 | 1009.0 |
| 20260509174532 | 58 | 360 | 0.0 | 1.0 | 0.02 | 0.06 | 0.06 | 90 | 1008.9 |
| 20260509174516 | 58 | 0 | 0.0 | 1.0 | 0.02 | 0.06 | 0.06 | 90 | 1009.0 |
| 20260509174417 | 58 | 0 | 0.0 | 1.0 | 0.02 | 0.06 | 0.06 | 90 | 1009.0 |
| 20260509174316 | 58 | 0 | 0.0 | 1.0 | 0.02 | 0.06 | 0.06 | 90 | 1009.0 |
| 20260509174256 | 58 | 0 | 0.0 | 1.0 | 0.01 | 0.05 | 0.06 | 90 | 1009.0 |
| 20260509174215 | 58 | 0 | 0.0 | 1.0 | 0.02 | 0.05 | 0.06 | 90 | 1009.0 |
| 20260509174153 | 58 | 0 | 0.0 | 0.0 | 0.02 | 0.05 | 0.05 | 90 | 1008.8 |
| 20260509174145 | 58 | 0 | 0.0 | 1.0 | 0.02 | 0.05 | 0.05 | 90 | 1009.0 |
| 20260509174032 | 58 | 0 | 0.0 | 1.0 | 0.02 | 0.05 | 0.05 | 90 | 1008.9 |
| 20260509174017 | 58 | 360 | 0.0 | 1.0 | 0.02 | 0.05 | 0.05 | 90 | 1008.8 |
| 20260509173755 | 58 | 0 | 0.0 | 0.0 | 0.02 | 0.05 | 0.05 | 91 | 1008.9 |
| 20260509173713 | 58 | 0 | 0.0 | 0.0 | 0.02 | 0.05 | 0.05 | 91 | 1008.8 |
| 20260509173625 | 58 | 0 | 0.0 | 0.0 | 0.02 | 0.05 | 0.05 | 91 | 1008.7 |
| 20260509173621 | 58 | 0 | 0.0 | 0.0 | 0.02 | 0.05 | 0.05 | 91 | 1008.7 |
| 20260509173517 | 58 | 360 | 0.0 | 0.0 | 0.02 | 0.05 | 0.05 | 91 | 1008.6 |
| 20260509173410 | 58 | 0 | 0.0 | 0.0 | 0.02 | 0.05 | 0.05 | 91 | 1008.7 |
| 20260509173309 | 58 | 0 | 0.0 | 0.0 | 0.02 | 0.05 | 0.05 | 91 | 1008.6 |
| 20260509173255 | 58 | 0 | 0.0 | 0.0 | 0.03 | 0.05 | 0.05 | 91 | 1008.6 |
| 20260509173210 | 58 | 0 | 0.0 | 0.0 | 0.03 | 0.05 | 0.05 | 91 | 1008.6 |
| 20260509173109 | 58 | 0 | 0.0 | 0.0 | 0.03 | 0.05 | 0.05 | 91 | 1008.6 |
| 20260509173019 | 58 | 360 | 0.0 | 0.0 | 0.03 | 0.05 | 0.05 | 91 | 1008.5 |
| 20260509173007 | 58 | 0 | 0.0 | 0.0 | 0.03 | 0.05 | 0.05 | 91 | 1008.6 |
| 20260509172939 | 58 | 0 | 0.0 | 0.0 | 0.03 | 0.05 | 0.05 | 91 | 1008.6 |
| 20260509172935 | 58 | 0 | 0.0 | 0.0 | 0.03 | 0.05 | 0.05 | 91 | 1008.6 |
| 20260509172927 | 58 | 0 | 0.0 | 0.0 | 0.03 | 0.05 | 0.05 | 91 | 1008.6 |
| 20260509172813 | 58 | 0 | 0.0 | 0.0 | 0.03 | 0.05 | 0.05 | 91 | 1008.6 |
| 20260509172603 | 58 | 0 | 0.0 | 0.0 | 0.03 | 0.05 | 0.05 | 91 | 1008.6 |
| 20260509172532 | 58 | 360 | 0.0 | 0.0 | 0.03 | 0.05 | 0.05 | 91 | 1008.4 |
| 20260509172515 | 58 | 0 | 0.0 | 0.0 | 0.04 | 0.05 | 0.05 | 91 | 1008.5 |
| 20260509172511 | 58 | 0 | 0.0 | 0.0 | 0.03 | 0.05 | 0.05 | 91 | 1008.5 |
| 20260509172306 | 58 | 0 | 0.0 | 0.0 | 0.04 | 0.05 | 0.05 | 90 | 1008.4 |
| 20260509172255 | 58 | 0 | 0.0 | 0.0 | 0.04 | 0.05 | 0.05 | 90 | 1008.4 |
| 20260509172214 | 58 | 0 | 0.0 | 0.0 | 0.04 | 0.05 | 0.05 | 90 | 1008.3 |
| 20260509172210 | 58 | 0 | 0.0 | 0.0 | 0.04 | 0.05 | 0.05 | 90 | 1008.4 |
| 20260509172018 | 58 | 360 | 0.0 | 0.0 | 0.04 | 0.05 | 0.05 | 90 | 1008.2 |
| 20260509172000 | 58 | 0 | 0.0 | 0.0 | 0.04 | 0.05 | 0.05 | 90 | 1008.3 |
| 20260509171900 | 58 | 0 | 0.0 | 0.0 | 0.04 | 0.05 | 0.05 | 89 | 1008.3 |
| 20260509171818 | 58 | 0 | 0.0 | 0.0 | 0.05 | 0.05 | 0.05 | 89 | 1008.3 |
| 20260509171808 | 58 | 0 | 0.0 | 0.0 | 0.04 | 0.05 | 0.05 | 89 | 1008.3 |
| 20260509171559 | 58 | 0 | 0.0 | 0.0 | 0.05 | 0.05 | 0.05 | 89 | 1008.2 |
| 20260509171517 | 58 | 360 | 0.0 | 0.0 | 0.05 | 0.05 | 0.05 | 89 | 1008.2 |
| 20260509171510 | 58 | 0 | 0.0 | 0.0 | 0.05 | 0.05 | 0.05 | 89 | 1008.2 |
| 20260509171506 | 58 | 0 | 0.0 | 0.0 | 0.05 | 0.05 | 0.05 | 89 | 1008.3 |
| 20260509171316 | 58 | 0 | 0.0 | 0.0 | 0.05 | 0.05 | 0.05 | 89 | 1008.3 |
| 20260509171306 | 58 | 0 | 0.0 | 0.0 | 0.05 | 0.05 | 0.05 | 89 | 1008.3 |
| 20260509171056 | 58 | 0 | 0.0 | 0.0 | 0.05 | 0.05 | 0.05 | 89 | 1008.3 |
| 20260509171021 | 58 | 0 | 0.0 | 0.0 | 0.04 | 0.04 | 0.04 | 89 | 1008.3 |
| 20260509171017 | 58 | 360 | 0.0 | 0.0 | 0.05 | 0.05 | 0.05 | 89 | 1008.1 |
| 20260509170954 | 58 | 0 | 0.0 | 0.0 | 0.05 | 0.05 | 0.05 | 89 | 1008.2 |
| 20260509170906 | 58 | 0 | 0.0 | 0.0 | 0.04 | 0.04 | 0.04 | 89 | 1008.2 |
| 20260509170857 | 58 | 0 | 0.0 | 0.0 | 0.04 | 0.04 | 0.04 | 89 | 1008.3 |
| 20260509170652 | 58 | 0 | 0.0 | 0.0 | 0.04 | 0.04 | 0.04 | 89 | 1008.5 |
| 20260509170552 | 58 | 0 | 0.0 | 0.0 | 0.04 | 0.04 | 0.04 | 89 | 1008.5 |
| 20260509170518 | 58 | 360 | 0.0 | 0.0 | 0.04 | 0.04 | 0.04 | 88 | 1008.2 |
| 20260509170505 | 58 | 0 | 0.0 | 0.0 | 0.04 | 0.04 | 0.04 | 88 | 1008.2 |
| 20260509170501 | 58 | 0 | 0.0 | 0.0 | 0.04 | 0.04 | 0.04 | 88 | 1008.3 |
| 20260509170253 | 58 | 0 | 0.0 | 0.0 | 0.04 | 0.04 | 0.04 | 88 | 1008.3 |
| 20260509170150 | 59 | 0 | 0.0 | 0.0 | 0.04 | 0.04 | 0.04 | 88 | 1008.4 |
| 20260509170050 | 59 | 0 | 0.0 | 0.0 | 0.04 | 0.04 | 0.04 | 89 | 1008.5 |
| 20260509170019 | 59 | 0 | 0.0 | 0.0 | 0.04 | 0.04 | 0.04 | 88 | 1008.6 |
| 20260509170017 | 59 | 360 | 0.0 | 0.0 | 0.04 | 0.04 | 0.04 | 88 | 1008.5 |
| 20260509165949 | 59 | 0 | 0.0 | 0.0 | 0.04 | 0.04 | 0.04 | 88 | 1008.6 |
| 20260509165902 | 59 | 0 | 0.0 | 0.0 | 0.04 | 0.04 | 0.04 | 88 | 1008.7 |
| 20260509165748 | 59 | 0 | 0.0 | 0.0 | 0.04 | 0.04 | 0.04 | 88 | 1008.6 |
| 20260509165645 | 59 | 0 | 0.0 | 0.0 | 0.04 | 0.04 | 0.04 | 89 | 1008.5 |
| 20260509165546 | 59 | 0 | 0.0 | 0.0 | 0.04 | 0.04 | 0.04 | 89 | 1008.5 |
| 20260509165517 | 59 | 360 | 0.0 | 0.0 | 0.04 | 0.04 | 0.04 | 88 | 1008.4 |
| 20260509165446 | 59 | 0 | 0.0 | 0.0 | 0.04 | 0.04 | 0.04 | 88 | 1008.5 |
| 20260509165359 | 59 | 0 | 0.0 | 0.0 | 0.04 | 0.04 | 0.04 | 88 | 1008.5 |
| 20260509165350 | 59 | 0 | 0.0 | 0.0 | 0.04 | 0.04 | 0.04 | 88 | 1008.5 |
| 20260509165144 | 59 | 0 | 0.0 | 0.0 | 0.04 | 0.04 | 0.04 | 88 | 1008.5 |
| 20260509165044 | 59 | 0 | 0.0 | 0.0 | 0.04 | 0.04 | 0.04 | 88 | 1008.5 |
| 20260509165017 | 59 | 360 | 0.0 | 0.0 | 0.04 | 0.04 | 0.04 | 88 | 1008.5 |
| 20260509164942 | 59 | 0 | 0.0 | 0.0 | 0.04 | 0.04 | 0.04 | 88 | 1008.6 |
| 20260509164842 | 59 | 0 | 0.0 | 0.0 | 0.04 | 0.04 | 0.04 | 87 | 1008.6 |
| 20260509164742 | 59 | 0 | 0.0 | 0.0 | 0.04 | 0.04 | 0.04 | 87 | 1008.6 |
| 20260509164641 | 59 | 0 | 0.0 | 0.0 | 0.04 | 0.04 | 0.04 | 87 | 1008.6 |
| 20260509164539 | 59 | 0 | 0.0 | 0.0 | 0.04 | 0.04 | 0.04 | 86 | 1008.7 |
| 20260509164518 | 59 | 360 | 0.0 | 0.0 | 0.04 | 0.04 | 0.04 | 86 | 1008.6 |
| 20260509164438 | 59 | 0 | 0.0 | 2.0 | 0.04 | 0.04 | 0.04 | 86 | 1008.7 |
| 20260509164417 | 59 | 0 | 0.0 | 2.0 | 0.04 | 0.04 | 0.04 | 86 | 1008.6 |
| 20260509164307 | 59 | 0 | 0.0 | 2.0 | 0.03 | 0.03 | 0.03 | 85 | 1008.7 |
| 20260509164253 | 59 | 0 | 0.0 | 2.0 | 0.04 | 0.04 | 0.04 | 86 | 1008.6 |
| 20260509164018 | 59 | 360 | 0.0 | 2.0 | 0.03 | 0.03 | 0.03 | 85 | 1008.6 |
| 20260509163935 | 59 | 0 | 0.0 | 2.0 | 0.03 | 0.03 | 0.03 | 85 | 1008.7 |
| 20260509163834 | 59 | 0 | 0.0 | 2.0 | 0.03 | 0.03 | 0.03 | 85 | 1008.7 |
| 20260509163734 | 59 | 0 | 0.0 | 2.0 | 0.03 | 0.03 | 0.03 | 85 | 1008.7 |
| 20260509163633 | 59 | 0 | 0.0 | 2.0 | 0.03 | 0.03 | 0.03 | 84 | 1008.7 |
| 20260509163533 | 59 | 0 | 0.0 | 2.0 | 0.03 | 0.03 | 0.03 | 85 | 1008.8 |
| 20260509163517 | 59 | 360 | 0.0 | 2.0 | 0.03 | 0.03 | 0.03 | 85 | 1008.7 |
| 20260509163432 | 59 | 0 | 0.0 | 0.0 | 0.03 | 0.03 | 0.03 | 85 | 1008.8 |
| 20260509163332 | 59 | 0 | 0.0 | 0.0 | 0.03 | 0.03 | 0.03 | 85 | 1008.7 |
| 20260509163243 | 59 | 0 | 0.0 | 0.0 | 0.02 | 0.02 | 0.03 | 85 | 1008.7 |
| 20260509163232 | 60 | 0 | 0.0 | 0.0 | 0.02 | 0.02 | 0.03 | 85 | 1008.7 |
| 20260509163131 | 60 | 0 | 0.0 | 0.0 | 0.02 | 0.02 | 0.02 | 84 | 1008.7 |
| 20260509163032 | 60 | 360 | 0.0 | 0.0 | 0.02 | 0.02 | 0.02 | 84 | 1008.6 |
| 20260509163030 | 60 | 0 | 0.0 | 0.0 | 0.02 | 0.02 | 0.02 | 84 | 1008.8 |
| 20260509162931 | 60 | 0 | 0.0 | 0.0 | 0.02 | 0.02 | 0.02 | 84 | 1008.7 |
| 20260509162829 | 60 | 0 | 0.0 | 0.0 | 0.02 | 0.02 | 0.02 | 84 | 1008.8 |
| 20260509162729 | 60 | 0 | 0.0 | 0.0 | 0.02 | 0.02 | 0.02 | 83 | 1008.7 |
| 20260509162642 | 60 | 0 | 0.0 | 0.0 | 0.02 | 0.02 | 0.02 | 82 | 1008.8 |
| 20260509162637 | 60 | 0 | 0.0 | 0.0 | 0.02 | 0.02 | 0.02 | 83 | 1008.8 |
| 20260509162533 | 60 | 360 | 0.0 | 0.0 | 0.02 | 0.02 | 0.02 | 82 | 1008.6 |
| 20260509162455 | 60 | 0 | 0.0 | 0.0 | 0.01 | 0.01 | 0.02 | 82 | 1008.7 |
| 20260509162341 | 60 | 0 | 0.0 | 0.0 | 0.01 | 0.01 | 0.01 | 82 | 1008.8 |
| 20260509162332 | 60 | 0 | 0.0 | 0.0 | 0.01 | 0.01 | 0.01 | 82 | 1008.7 |
| 20260509162126 | 60 | 0 | 0.0 | 0.0 | 0.01 | 0.01 | 0.01 | 81 | 1008.7 |
| 20260509162026 | 60 | 0 | 0.0 | 0.0 | 0.01 | 0.01 | 0.01 | 80 | 1008.8 |
| 20260509162017 | 60 | 360 | 0.0 | 0.0 | 0.01 | 0.01 | 0.01 | 80 | 1008.6 |
| 20260509161924 | 60 | 0 | 0.0 | 0.0 | 0.01 | 0.01 | 0.01 | 80 | 1008.7 |
| 20260509161824 | 60 | 0 | 0.0 | 0.0 | 0.01 | 0.01 | 0.01 | 80 | 1008.7 |
| 20260509161749 | 60 | 0 | 0.0 | 0.0 | 0.01 | 0.01 | 0.01 | 80 | 1008.8 |
| 20260509161744 | 60 | 0 | 0.0 | 0.0 | 0.00 | 0.00 | 0.01 | 80 | 1008.8 |
| 20260509161630 | 60 | 0 | 0.0 | 2.0 | 0.00 | 0.00 | 0.00 | 79 | 1008.8 |
| 20260509161547 | 60 | 360 | 0.0 | 4.0 | 0.00 | 0.00 | 0.00 | 79 | 1008.8 |
| 20260509161434 | 60 | 0 | 1.0 | 8.0 | 0.00 | 0.00 | 0.00 | 77 | 1009.0 |
| 20260509161430 | 60 | 0 | 1.0 | 6.0 | 0.00 | 0.00 | 0.00 | 78 | 1008.9 |
| 20260509161234 | 60 | 0 | 1.0 | 8.0 | 0.00 | 0.00 | 0.00 | 76 | 1009.1 |
| 20260509161230 | 60 | 0 | 1.0 | 8.0 | 0.00 | 0.00 | 0.00 | 77 | 1009.1 |
| 20260509161019 | 61 | 0 | 1.0 | 8.0 | 0.00 | 0.00 | 0.00 | 76 | 1009.1 |
| 20260509161003 | 61 | 0 | 1.0 | 8.0 | 0.00 | 0.00 | 0.00 | 76 | 1009.2 |
| 20260509160919 | 61 | 0 | 1.0 | 8.0 | 0.00 | 0.00 | 0.00 | 75 | 1009.1 |
| 20260509160850 | 61 | 0 | 1.0 | 8.0 | 0.00 | 0.00 | 0.00 | 76 | 1009.2 |
| 20260509160718 | 61 | 0 | 1.0 | 8.0 | 0.00 | 0.00 | 0.00 | 76 | 1009.2 |
| 20260509160618 | 61 | 0 | 1.0 | 8.0 | 0.00 | 0.00 | 0.00 | 76 | 1009.2 |
| 20260509160518 | 61 | 0 | 1.0 | 8.0 | 0.00 | 0.00 | 0.00 | 76 | 1009.3 |
| 20260509160417 | 61 | 0 | 0.0 | 8.0 | 0.00 | 0.00 | 0.00 | 77 | 1009.2 |
| 20260509160344 | 61 | 0 | 0.0 | 2.0 | 0.00 | 0.00 | 0.00 | 77 | 1009.3 |
| 20260509160337 | 61 | 0 | 0.0 | 2.0 | 0.00 | 0.00 | 0.00 | 77 | 1009.3 |
| 20260509160225 | 61 | 0 | 0.0 | 2.0 | 0.00 | 0.00 | 0.00 | 76 | 1009.3 |
| 20260509160018 | 62 | 360 | 0.0 | 2.0 | 0.00 | 0.00 | 0.00 | 77 | 1009.2 |
| 20260509160016 | 62 | 0 | 0.0 | 2.0 | 0.00 | 0.00 | 0.00 | 77 | 1009.3 |
| 20260509155927 | 62 | 0 | 0.0 | 2.0 | 0.00 | 0.00 | 0.00 | 77 | 1009.1 |
| 20260509155923 | 62 | 0 | 0.0 | 2.0 | 0.00 | 0.00 | 0.00 | 77 | 1009.2 |
| 20260509155713 | 62 | 0 | 0.0 | 2.0 | 0.00 | 0.00 | 0.00 | 77 | 1009.0 |
| 20260509155612 | 62 | 0 | 0.0 | 2.0 | 0.00 | 0.00 | 0.00 | 78 | 1009.0 |
| 20260509155517 | 62 | 360 | 0.0 | 6.0 | 0.00 | 0.00 | 0.00 | 77 | 1009.0 |
| 20260509155512 | 62 | 0 | 0.0 | 6.0 | 0.00 | 0.00 | 0.00 | 77 | 1009.0 |
| 20260509155411 | 62 | 0 | 0.0 | 6.0 | 0.00 | 0.00 | 0.00 | 76 | 1009.0 |
| 20260509155311 | 62 | 0 | 0.0 | 6.0 | 0.00 | 0.00 | 0.00 | 75 | 1009.0 |
| 20260509155241 | 62 | 0 | 0.0 | 6.0 | 0.00 | 0.00 | 0.00 | 75 | 1009.0 |
| 20260509155210 | 62 | 0 | 0.0 | 6.0 | 0.00 | 0.00 | 0.00 | 75 | 1009.0 |
| 20260509155110 | 62 | 0 | 1.0 | 6.0 | 0.00 | 0.00 | 0.00 | 75 | 1009.0 |
| 20260509155023 | 62 | 0 | 1.0 | 6.0 | 0.00 | 0.00 | 0.00 | 75 | 1008.9 |
| 20260509155019 | 62 | 0 | 1.0 | 6.0 | 0.00 | 0.00 | 0.00 | 76 | 1009.0 |
| 20260509155017 | 62 | 360 | 0.0 | 6.0 | 0.00 | 0.00 | 0.00 | 76 | 1009.0 |
| 20260509154809 | 62 | 0 | 1.0 | 6.0 | 0.00 | 0.00 | 0.00 | 75 | 1008.9 |
| 20260509154741 | 62 | 0 | 1.0 | 6.0 | 0.00 | 0.00 | 0.00 | 75 | 1008.9 |
| 20260509154709 | 62 | 0 | 1.0 | 6.0 | 0.00 | 0.00 | 0.00 | 75 | 1009.0 |
| 20260509154608 | 62 | 0 | 1.0 | 6.0 | 0.00 | 0.00 | 0.00 | 74 | 1009.0 |
| 20260509154521 | 62 | 0 | 1.0 | 11.0 | 0.00 | 0.00 | 0.00 | 73 | 1009.1 |
| 20260509154517 | 62 | 360 | 0.0 | 6.0 | 0.00 | 0.00 | 0.00 | 74 | 1009.1 |
| 20260509154306 | 62 | 0 | 1.0 | 11.0 | 0.00 | 0.00 | 0.00 | 73 | 1009.2 |
| 20260509154239 | 62 | 0 | 1.0 | 11.0 | 0.00 | 0.00 | 0.00 | 73 | 1009.2 |
| 20260509154206 | 62 | 0 | 1.0 | 11.0 | 0.00 | 0.00 | 0.00 | 73 | 1009.3 |
| 20260509154105 | 62 | 0 | 1.0 | 11.0 | 0.00 | 0.00 | 0.00 | 72 | 1009.2 |
| 20260509154047 | 63 | 360 | 2.0 | 11.0 | 0.00 | 0.00 | 0.00 | 71 | 1009.2 |
| 20260509154005 | 62 | 0 | 1.0 | 11.0 | 0.00 | 0.00 | 0.00 | 71 | 1009.2 |
| 20260509153904 | 62 | 0 | 1.0 | 11.0 | 0.00 | 0.00 | 0.00 | 71 | 1009.2 |
| 20260509153822 | 62 | 0 | 1.0 | 11.0 | 0.00 | 0.00 | 0.00 | 70 | 1009.2 |
| 20260509153818 | 62 | 0 | 0.0 | 11.0 | 0.00 | 0.00 | 0.00 | 71 | 1009.2 |
| 20260509153812 | 62 | 0 | 0.0 | 11.0 | 0.00 | 0.00 | 0.00 | 70 | 1009.2 |
| 20260509153603 | 63 | 0 | 1.0 | 11.0 | 0.00 | 0.00 | 0.00 | 69 | 1009.2 |
| 20260509153517 | 63 | 360 | 0.0 | 11.0 | 0.00 | 0.00 | 0.00 | 69 | 1009.2 |
| 20260509153502 | 63 | 0 | 1.0 | 11.0 | 0.00 | 0.00 | 0.00 | 69 | 1009.2 |
| 20260509153402 | 63 | 0 | 1.0 | 8.0 | 0.00 | 0.00 | 0.00 | 69 | 1009.2 |
| 20260509153237 | 63 | 0 | 1.0 | 8.0 | 0.00 | 0.00 | 0.00 | 68 | 1009.1 |
| 20260509153159 | 63 | 0 | 1.0 | 8.0 | 0.00 | 0.00 | 0.00 | 68 | 1009.2 |
| 20260509153059 | 63 | 0 | 1.0 | 8.0 | 0.00 | 0.00 | 0.00 | 68 | 1009.3 |
| 20260509153032 | 63 | 360 | 0.0 | 8.0 | 0.00 | 0.00 | 0.00 | 68 | 1009.1 |
| 20260509153018 | 63 | 0 | 0.0 | 8.0 | 0.00 | 0.00 | 0.00 | 67 | 1009.0 |
| 20260509153012 | 63 | 0 | 0.0 | 8.0 | 0.00 | 0.00 | 0.00 | 68 | 1009.1 |
| 20260509153008 | 63 | 0 | 1.0 | 8.0 | 0.00 | 0.00 | 0.00 | 68 | 1009.1 |
| 20260509152841 | 63 | 0 | 0.0 | 8.0 | 0.00 | 0.00 | 0.00 | 67 | 1009.0 |
| 20260509152657 | 63 | 0 | 0.0 | 8.0 | 0.00 | 0.00 | 0.00 | 66 | 1009.0 |
| 20260509152610 | 63 | 0 | 0.0 | 4.0 | 0.00 | 0.00 | 0.00 | 67 | 1009.0 |
| 20260509152606 | 63 | 0 | 0.0 | 4.0 | 0.00 | 0.00 | 0.00 | 66 | 1009.0 |
| 20260509152518 | 63 | 360 | 0.0 | 3.0 | 0.00 | 0.00 | 0.00 | 66 | 1009.0 |
| 20260509152408 | 64 | 0 | 0.0 | 4.0 | 0.00 | 0.00 | 0.00 | 67 | 1009.1 |
| 20260509152404 | 63 | 0 | 0.0 | 4.0 | 0.00 | 0.00 | 0.00 | 67 | 1009.0 |
| 20260509152236 | 64 | 0 | 0.0 | 4.0 | 0.00 | 0.00 | 0.00 | 67 | 1009.1 |
| 20260509152154 | 64 | 0 | 0.0 | 4.0 | 0.00 | 0.00 | 0.00 | 66 | 1009.0 |
| 20260509152054 | 64 | 0 | 0.0 | 3.0 | 0.00 | 0.00 | 0.00 | 67 | 1009.1 |
| 20260509152018 | 64 | 239 | 0.0 | 3.0 | 0.00 | 0.00 | 0.00 | 69 | 1009.1 |
| 20260509152007 | 64 | 225 | 0.0 | 1.0 | 0.00 | 0.00 | 0.00 | 67 | 1009.1 |
| 20260509152002 | 64 | 202 | 0.0 | 1.0 | 0.00 | 0.00 | 0.00 | 69 | 1009.2 |
| 20260509151753 | 64 | 272 | 0.0 | 1.0 | 0.00 | 0.00 | 0.00 | 67 | 1009.1 |
| 20260509151733 | 64 | 225 | 0.0 | 1.0 | 0.00 | 0.00 | 0.00 | 67 | 1009.1 |
| 20260509151652 | 64 | 198 | 0.0 | 0.0 | 0.00 | 0.00 | 0.00 | 68 | 1009.1 |
| 20260509151552 | 64 | 237 | 0.0 | 0.0 | 0.00 | 0.00 | 0.00 | 68 | 1009.1 |
| 20260509151527 | 64 | 229 | 0.0 | 0.0 | 0.00 | 0.00 | 0.00 | 67 | 1009.1 |
| 20260509151517 | 64 | 225 | 0.0 | 0.0 | 0.00 | 0.00 | 0.00 | 68 | 1009.1 |
| 20260509151451 | 64 | 205 | 0.0 | 0.0 | 0.00 | 0.00 | 0.00 | 68 | 1009.1 |
| 20260509151422 | 64 | 225 | 0.0 | 0.0 | 0.00 | 0.00 | 0.00 | 68 | 1009.1 |
| 20260509151414 | 64 | 194 | 0.0 | 0.0 | 0.00 | 0.00 | 0.00 | 67 | 1009.1 |
| 20260509151405 | 64 | 202 | 0.0 | 0.0 | 0.00 | 0.00 | 0.00 | 67 | 1009.1 |
| 20260509151049 | 64 | 232 | 0.0 | 0.0 | 0.00 | 0.00 | 0.00 | 68 | 1009.0 |
| 20260509151017 | 64 | 232 | 0.0 | 0.0 | 0.00 | 0.00 | 0.00 | 68 | 1008.9 |
| 20260509150948 | 64 | 249 | 0.0 | 0.0 | 0.00 | 0.00 | 0.00 | 68 | 1008.9 |
| 20260509150848 | 63 | 257 | 0.0 | 0.0 | 0.00 | 0.00 | 0.00 | 69 | 1008.9 |
| 20260509150748 | 63 | 226 | 0.0 | 0.0 | 0.00 | 0.00 | 0.00 | 68 | 1008.7 |
| 20260509150732 | 63 | 244 | 0.0 | 0.0 | 0.00 | 0.00 | 0.00 | 68 | 1008.7 |
| 20260509150701 | 63 | 231 | 0.0 | 0.0 | 0.00 | 0.00 | 0.00 | 69 | 1008.8 |
| 20260509150658 | 63 | 251 | 0.0 | 0.0 | 0.00 | 0.00 | 0.00 | 69 | 1008.7 |
| 20260509150517 | 63 | 224 | 0.0 | 0.0 | 0.00 | 0.00 | 0.00 | 69 | 1008.9 |
| 20260509150446 | 63 | 229 | 0.0 | 0.0 | 0.00 | 0.00 | 0.00 | 69 | 1008.9 |
| 20260509150346 | 63 | 216 | 0.0 | 1.0 | 0.00 | 0.00 | 0.00 | 69 | 1008.9 |
| 20260509150246 | 63 | 269 | 0.0 | 1.0 | 0.00 | 0.00 | 0.00 | 71 | 1009.0 |
| 20260509150232 | 63 | 229 | 0.0 | 1.0 | 0.00 | 0.00 | 0.00 | 71 | 1009.0 |
| 20260509150145 | 63 | 228 | 0.0 | 1.0 | 0.00 | 0.00 | 0.00 | 72 | 1009.0 |
| 20260509150045 | 63 | 227 | 0.0 | 1.0 | 0.00 | 0.00 | 0.00 | 71 | 1008.9 |
| 20260509150017 | 63 | 360 | 0.0 | 1.0 | 0.00 | 0.00 | 0.00 | 70 | 1008.7 |
| 20260509145957 | 62 | 0 | 0.0 | 1.0 | 0.00 | 0.00 | 0.00 | 70 | 1008.6 |
| 20260509145953 | 62 | 0 | 0.0 | 1.0 | 0.00 | 0.00 | 0.00 | 70 | 1008.7 |
| 20260509145802 | 62 | 0 | 0.0 | 2.0 | 0.00 | 0.00 | 0.00 | 69 | 1008.7 |
| 20260509145757 | 62 | 0 | 0.0 | 2.0 | 0.00 | 0.00 | 0.00 | 70 | 1008.7 |
| 20260509145752 | 62 | 0 | 0.0 | 2.0 | 0.00 | 0.00 | 0.00 | 69 | 1008.7 |
| 20260509145542 | 62 | 0 | 0.0 | 2.0 | 0.00 | 0.00 | 0.00 | 69 | 1008.8 |
| 20260509145532 | 62 | 360 | 0.0 | 4.0 | 0.00 | 0.00 | 0.00 | 69 | 1008.9 |
| 20260509145443 | 62 | 0 | 0.0 | 4.0 | 0.00 | 0.00 | 0.00 | 69 | 1008.9 |
| 20260509145343 | 62 | 0 | 0.0 | 4.0 | 0.00 | 0.00 | 0.00 | 69 | 1009.0 |
| 20260509145242 | 62 | 0 | 0.0 | 4.0 | 0.00 | 0.00 | 0.00 | 70 | 1008.9 |
| 20260509145229 | 62 | 0 | 0.0 | 4.0 | 0.00 | 0.00 | 0.00 | 71 | 1008.9 |
| 20260509145142 | 62 | 0 | 1.0 | 4.0 | 0.00 | 0.00 | 0.00 | 71 | 1008.9 |
| 20260509145041 | 62 | 0 | 1.0 | 4.0 | 0.00 | 0.00 | 0.00 | 71 | 1008.9 |
| 20260509145032 | 62 | 360 | 0.0 | 4.0 | 0.00 | 0.00 | 0.00 | 71 | 1009.0 |
| 20260509144940 | 62 | 0 | 1.0 | 4.0 | 0.00 | 0.00 | 0.00 | 70 | 1009.0 |
| 20260509144729 | 62 | 0 | 1.0 | 4.0 | 0.00 | 0.00 | 0.00 | 70 | 1008.9 |
| 20260509144639 | 62 | 0 | 1.0 | 4.0 | 0.00 | 0.00 | 0.00 | 70 | 1008.9 |
| 20260509144538 | 62 | 0 | 0.0 | 4.0 | 0.00 | 0.00 | 0.00 | 72 | 1008.9 |
| 20260509144517 | 62 | 360 | 1.0 | 3.0 | 0.00 | 0.00 | 0.00 | 72 | 1009.0 |
| 20260509144438 | 62 | 0 | 0.0 | 3.0 | 0.00 | 0.00 | 0.00 | 72 | 1009.0 |
| 20260509144337 | 62 | 0 | 0.0 | 3.0 | 0.00 | 0.00 | 0.00 | 72 | 1009.1 |
| 20260509144228 | 62 | 0 | 0.0 | 3.0 | 0.00 | 0.00 | 0.00 | 72 | 1009.0 |
| 20260509144135 | 62 | 0 | 0.0 | 3.0 | 0.00 | 0.00 | 0.00 | 71 | 1008.9 |
| 20260509144108 | 62 | 0 | 0.0 | 3.0 | 0.00 | 0.00 | 0.00 | 72 | 1008.8 |
| 20260509144017 | 62 | 360 | 0.0 | 3.0 | 0.00 | 0.00 | 0.00 | 72 | 1008.8 |
| 20260509143955 | 62 | 0 | 0.0 | 3.0 | 0.00 | 0.00 | 0.00 | 73 | 1008.9 |
| 20260509143950 | 62 | 0 | 0.0 | 3.0 | 0.00 | 0.00 | 0.00 | 72 | 1008.8 |
| 20260509143832 | 62 | 0 | 0.0 | 3.0 | 0.00 | 0.00 | 0.00 | 73 | 1008.9 |
| 20260509143634 | 62 | 0 | 0.0 | 3.0 | 0.00 | 0.00 | 0.00 | 72 | 1008.9 |
| 20260509143534 | 62 | 0 | 0.0 | 3.0 | 0.00 | 0.00 | 0.00 | 72 | 1009.0 |
| 20260509143517 | 62 | 360 | 0.0 | 3.0 | 0.00 | 0.00 | 0.00 | 72 | 1009.0 |
| 20260509143433 | 62 | 0 | 0.0 | 3.0 | 0.00 | 0.00 | 0.00 | 72 | 1009.0 |
| 20260509143333 | 62 | 0 | 0.0 | 3.0 | 0.00 | 0.00 | 0.00 | 73 | 1009.0 |
| 20260509143225 | 62 | 0 | 0.0 | 0.0 | 0.00 | 0.00 | 0.00 | 74 | 1009.0 |
| 20260509143132 | 62 | 0 | 0.0 | 1.0 | 0.00 | 0.00 | 0.00 | 74 | 1008.9 |
| 20260509143032 | 62 | 360 | 0.0 | 1.0 | 0.00 | 0.00 | 0.00 | 73 | 1008.9 |
| 20260509142950 | 62 | 0 | 0.0 | 1.0 | 0.00 | 0.00 | 0.00 | 74 | 1008.8 |
| 20260509142946 | 62 | 0 | 0.0 | 1.0 | 0.00 | 0.00 | 0.00 | 73 | 1008.9 |
| 20260509142937 | 62 | 0 | 0.0 | 1.0 | 0.00 | 0.00 | 0.00 | 73 | 1008.8 |
| 20260509142630 | 62 | 0 | 0.0 | 1.0 | 0.00 | 0.00 | 0.00 | 74 | 1008.9 |
| 20260509142547 | 62 | 360 | 0.0 | 1.0 | 0.00 | 0.00 | 0.00 | 74 | 1009.2 |
| 20260509142529 | 62 | 0 | 0.0 | 1.0 | 0.00 | 0.00 | 0.00 | 73 | 1009.1 |
| 20260509142429 | 61 | 0 | 0.0 | 1.0 | 0.00 | 0.00 | 0.00 | 74 | 1009.2 |
| 20260509142327 | 61 | 0 | 0.0 | 1.0 | 0.00 | 0.00 | 0.00 | 74 | 1009.0 |
| 20260509142224 | 61 | 0 | 0.0 | 1.0 | 0.00 | 0.00 | 0.00 | 74 | 1008.9 |
| 20260509142127 | 61 | 0 | 0.0 | 4.0 | 0.00 | 0.00 | 0.00 | 74 | 1008.8 |
| 20260509142043 | 61 | 0 | 0.0 | 4.0 | 0.00 | 0.00 | 0.00 | 73 | 1008.9 |
| 20260509142039 | 61 | 0 | 0.0 | 4.0 | 0.00 | 0.00 | 0.00 | 73 | 1008.9 |
| 20260509142035 | 61 | 0 | 0.0 | 4.0 | 0.00 | 0.00 | 0.00 | 73 | 1008.9 |
| 20260509142017 | 61 | 360 | 0.0 | 4.0 | 0.00 | 0.00 | 0.00 | 73 | 1008.9 |
| 20260509141835 | 61 | 0 | 0.0 | 4.0 | 0.00 | 0.00 | 0.00 | 73 | 1008.9 |
| 20260509141826 | 61 | 0 | 0.0 | 4.0 | 0.00 | 0.00 | 0.00 | 73 | 1008.9 |
| 20260509141625 | 61 | 0 | 0.0 | 4.0 | 0.00 | 0.00 | 0.00 | 73 | 1008.8 |
| 20260509141525 | 61 | 0 | 0.0 | 4.0 | 0.00 | 0.00 | 0.00 | 73 | 1008.8 |
| 20260509141518 | 61 | 360 | 0.0 | 4.0 | 0.00 | 0.00 | 0.00 | 73 | 1008.7 |
| 20260509141423 | 61 | 0 | 0.0 | 4.0 | 0.00 | 0.00 | 0.00 | 73 | 1008.7 |
| 20260509141327 | 61 | 0 | 0.0 | 4.0 | 0.00 | 0.00 | 0.00 | 73 | 1008.9 |
| 20260509141218 | 61 | 0 | 0.0 | 4.0 | 0.00 | 0.00 | 0.00 | 74 | 1008.8 |
| 20260509141120 | 61 | 0 | 0.0 | 2.0 | 0.00 | 0.00 | 0.00 | 74 | 1008.9 |
| 20260509141103 | 61 | 360 | 0.0 | 2.0 | 0.00 | 0.00 | 0.00 | 74 | 1009.0 |
| 20260509141020 | 61 | 0 | 0.0 | 2.0 | 0.00 | 0.00 | 0.00 | 74 | 1008.9 |
| 20260509140919 | 61 | 0 | 0.0 | 2.0 | 0.00 | 0.00 | 0.00 | 74 | 1009.0 |
| 20260509140819 | 61 | 0 | 0.0 | 2.0 | 0.00 | 0.00 | 0.00 | 75 | 1009.1 |
| 20260509140716 | 61 | 0 | 0.0 | 2.0 | 0.00 | 0.00 | 0.00 | 75 | 1009.0 |
| 20260509140618 | 61 | 0 | 0.0 | 1.0 | 0.00 | 0.00 | 0.00 | 75 | 1009.0 |
| 20260509140530 | 61 | 0 | 0.0 | 8.0 | 0.00 | 0.00 | 0.00 | 74 | 1008.9 |
| 20260509140526 | 61 | 0 | 0.0 | 5.0 | 0.00 | 0.00 | 0.00 | 75 | 1009.1 |
| 20260509140518 | 61 | 360 | 0.0 | 8.0 | 0.00 | 0.00 | 0.00 | 75 | 1008.9 |
| 20260509140333 | 61 | 0 | 0.0 | 8.0 | 0.00 | 0.00 | 0.00 | 75 | 1008.9 |
| 20260509140319 | 61 | 0 | 0.0 | 8.0 | 0.00 | 0.00 | 0.00 | 74 | 1008.9 |
| 20260509140208 | 60 | 0 | 1.0 | 8.0 | 0.00 | 0.00 | 0.00 | 74 | 1008.7 |
| 20260509140200 | 61 | 0 | 0.0 | 8.0 | 0.00 | 0.00 | 0.00 | 74 | 1008.8 |
| 20260509140018 | 61 | 360 | 0.0 | 8.0 | 0.00 | 0.00 | 0.00 | 74 | 1008.8 |
| 20260509135937 | 60 | 0 | 0.0 | 8.0 | 0.00 | 0.00 | 0.00 | 74 | 1008.8 |
| 20260509135928 | 60 | 0 | 1.0 | 8.0 | 0.00 | 0.00 | 0.00 | 74 | 1008.7 |
| 20260509135613 | 60 | 0 | 1.0 | 8.0 | 0.00 | 0.00 | 0.00 | 75 | 1008.7 |
| 20260509135518 | 60 | 360 | 5.0 | 8.0 | 0.00 | 0.00 | 0.00 | 75 | 1008.6 |
| 20260509135512 | 60 | 0 | 0.0 | 8.0 | 0.00 | 0.00 | 0.00 | 75 | 1008.6 |
| 20260509135412 | 60 | 0 | 0.0 | 8.0 | 0.00 | 0.00 | 0.00 | 75 | 1008.6 |
| 20260509135311 | 60 | 0 | 0.0 | 8.0 | 0.00 | 0.00 | 0.00 | 75 | 1008.6 |
| 20260509135217 | 60 | 0 | 0.0 | 8.0 | 0.00 | 0.00 | 0.00 | 75 | 1008.6 |
| 20260509135211 | 60 | 0 | 0.0 | 8.0 | 0.00 | 0.00 | 0.00 | 75 | 1008.6 |
| 20260509135111 | 60 | 0 | 0.0 | 8.0 | 0.00 | 0.00 | 0.00 | 75 | 1008.7 |
| 20260509135018 | 60 | 360 | 0.0 | 8.0 | 0.00 | 0.00 | 0.00 | 75 | 1008.7 |
| 20260509135011 | 60 | 0 | 0.0 | 8.0 | 0.00 | 0.00 | 0.00 | 75 | 1008.7 |
| 20260509134946 | 60 | 0 | 0.0 | 8.0 | 0.00 | 0.00 | 0.00 | 75 | 1008.7 |
| 20260509134942 | 60 | 0 | 1.0 | 8.0 | 0.00 | 0.00 | 0.00 | 75 | 1008.6 |
| 20260509134934 | 60 | 0 | 0.0 | 8.0 | 0.00 | 0.00 | 0.00 | 75 | 1008.7 |
| 20260509134815 | 60 | 0 | 0.0 | 8.0 | 0.00 | 0.00 | 0.00 | 75 | 1008.7 |
| 20260509134610 | 60 | 0 | 1.0 | 8.0 | 0.00 | 0.00 | 0.00 | 75 | 1008.6 |
| 20260509134517 | 60 | 360 | 0.0 | 8.0 | 0.00 | 0.00 | 0.00 | 76 | 1008.7 |
| 20260509134508 | 60 | 0 | 1.0 | 8.0 | 0.00 | 0.00 | 0.00 | 76 | 1008.7 |
| 20260509134443 | 60 | 0 | 1.0 | 8.0 | 0.00 | 0.00 | 0.00 | 77 | 1008.8 |
| 20260509134438 | 60 | 0 | 1.0 | 8.0 | 0.00 | 0.00 | 0.00 | 77 | 1008.9 |
| 20260509134430 | 60 | 0 | 1.0 | 8.0 | 0.00 | 0.00 | 0.00 | 77 | 1008.7 |
| 20260509134312 | 60 | 0 | 1.0 | 8.0 | 0.00 | 0.00 | 0.00 | 77 | 1008.8 |
| 20260509134107 | 60 | 0 | 2.0 | 8.0 | 0.00 | 0.00 | 0.00 | 77 | 1008.9 |
| 20260509134102 | 60 | 360 | 0.0 | 8.0 | 0.00 | 0.00 | 0.00 | 76 | 1008.8 |
| 20260509134024 | 60 | 0 | 2.0 | 8.0 | 0.00 | 0.00 | 0.00 | 76 | 1008.7 |
| 20260509134019 | 60 | 0 | 2.0 | 8.0 | 0.00 | 0.00 | 0.00 | 76 | 1008.7 |
| 20260509134015 | 60 | 0 | 2.0 | 8.0 | 0.00 | 0.00 | 0.00 | 76 | 1008.8 |